LiveATC.Net - Listen to live air traffic control over the Internet!

Find LiveATC Audio Streams


Airport/ARTCC Code

Frequency Search
(e.g., 124.400, 128.75)
Site-wide search
 


Browse LiveATC Feeds
Top 50 LiveATC Feeds
LiveATC Feed Map
Bad Weather Areas

LiveATC FAQ
Offer LiveATC feed
Contact LiveATC.net
Press Inquiries

LiveATC on iPhone
LiveATC on Android

Windows Phone
Windows 8/10

LiveATC Mobile
(Mobile browser)

ATC Audio Archives
Interesting Recordings

LiveATC Forums

Home Page
About LiveATC.net
Make a Donation
Terms of Use
Privacy Policy

Canadian Air Freqs

AIRMETs/SIGMETs

FAA Airport Status
Nat'l Airspace Status
Arrival Demand Charts


Server Software By:
Icecast.org
Liquidsoap

Select an area of interest:
U.S. Feeds: Class B Airports | Class C Airports | Class D/Other Airports | ARTCC (Centers)
International Feeds: Canada | Europe | Oceania | Asia | South America | North/Central America | Africa
Misc Feeds: HF Feeds
Search by ICAO/IATA airport code:   (e.g., kbos, kjfk, lax, eham, etc.)


Currently Available Live Feeds: 2428
Status Updated: Thu Feb 21 2019 14:55:01 UTC


NOTICE

Unauthorized use prohibited. See LiveATC.net Terms of Service

International Airport Feeds

 

HF CWP1/2
Cairns, Queensland, Australia

Feed Status: DOWN
Offline since: 2019-02-19 05:05:02 UTC

CWP: 11.384
CWP: 8.903
CWP: 4.666
CWP/SP: 13.261
CWP/SP: 17.904
CWP/SP: 21.985

Notes:
HF CWP1/2 (Central West Pacific) Japan to Honolulu and Australia to New Zealand

Frequencies Monitored:
3467, 4666, 5643, 5655, 6556, 8867, 8879, 8903, 11384, 13261, 13300, 13306, 17904, 21985

Stations:
San Francisco, Tokyo, Manila, Singapore, Brisbane, Auckland, Nadi and Tahiti.

Frequency Schedule: hfcwp.yolasite.com

EFKK Tower (Archives)
Kronoby, Finland

Feed Status: UP
Listen in your browser - HTML5 player(in browser, HTML5)
Click here to listen with your own player(launches your MP3 player)

EFKK 211420Z AUTO 01005KT CAVOK M07/M11 Q1028

EFKK Flight Activity (Flightaware)

Listeners: 2 out of 1246 total

Kronoby Tower: 120.100

EFKU Tower/Approach (Archives)
Siilinjarvi, Finland

Feed Status: UP
Listen in your browser - HTML5 player(in browser, HTML5)
Click here to listen with your own player(launches your MP3 player)

EFKU 211420Z AUTO 31011KT CAVOK M09/M14 Q1025

EFKU Flight Activity (Flightaware)

Listeners: 1 out of 1246 total

Kuopio Approach: 130.600
Kuopio Tower: 120.150

Dutch Mil Radar (Archives)
Amsterdam, Netherlands

Feed Status: UP
Listen in your browser - HTML5 player(in browser, HTML5)
Click here to listen with your own player(launches your MP3 player)

EHLE Flight Activity (Flightaware)

Listeners: 1 out of 1246 total

Dutch Mil Flight Info: 264.325
Dutch Mil Radar: 128.355
Dutch Mil Radar: 132.350

EHAA Radar ARTIP (Archives)
Amsterdam, Netherlands

Feed Status: UP
Listen in your browser - HTML5 player(in browser, HTML5)
Click here to listen with your own player(launches your MP3 player)

EHAM 211425Z 26012KT 220V290 1900 DZ BR SCT005 BKN006 OVC007 09/08 Q1026 BECMG 3800 SCT006 BKN008 OVC011

EHAM Flight Activity (Flightaware)

Listeners: 0 out of 1246 total

EHAA Radar Sector 1 ARTIP: 120.550

EHAA Radar East Inbound (Archives)
Amsterdam, Netherlands

Feed Status: UP
Listen in your browser - HTML5 player(in browser, HTML5)
Click here to listen with your own player(launches your MP3 player)

EHAM 211425Z 26012KT 220V290 1900 DZ BR SCT005 BKN006 OVC007 09/08 Q1026 BECMG 3800 SCT006 BKN008 OVC011

EHAM Flight Activity (Flightaware)

Listeners: 1 out of 1246 total

EHAA Radar Sector 2 East Inbound: 128.575

EHAA Radar East Outbound (Archives)
Amsterdam, Netherlands

Feed Status: UP
Listen in your browser - HTML5 player(in browser, HTML5)
Click here to listen with your own player(launches your MP3 player)

EHAM 211425Z 26012KT 220V290 1900 DZ BR SCT005 BKN006 OVC007 09/08 Q1026 BECMG 3800 SCT006 BKN008 OVC011

EHAM Flight Activity (Flightaware)

Listeners: 0 out of 1246 total

EHAA Radar Sector 2 East Outbound: 124.875

EHAA Radar North (Archives)
Amsterdam, Netherlands

Feed Status: UP
Listen in your browser - HTML5 player(in browser, HTML5)
Click here to listen with your own player(launches your MP3 player)

EHAM 211425Z 26012KT 220V290 1900 DZ BR SCT005 BKN006 OVC007 09/08 Q1026 BECMG 3800 SCT006 BKN008 OVC011

EHAM Flight Activity (Flightaware)

Listeners: 0 out of 1246 total

EHAA Radar Sector 1 North: 134.375

EHAA Radar Northwest (Archives)
Amsterdam, Netherlands

Feed Status: UP
Listen in your browser - HTML5 player(in browser, HTML5)
Click here to listen with your own player(launches your MP3 player)

EHAM 211425Z 26012KT 220V290 1900 DZ BR SCT005 BKN006 OVC007 09/08 Q1026 BECMG 3800 SCT006 BKN008 OVC011

EHAM Flight Activity (Flightaware)

Listeners: 0 out of 1246 total

EHAA Radar Sector 5 Northwest: 123.7000

EHAA Radar RIVER (Archives)
Amsterdam, Netherlands

Feed Status: UP
Listen in your browser - HTML5 player(in browser, HTML5)
Click here to listen with your own player(launches your MP3 player)

EHAM 211425Z 26012KT 220V290 1900 DZ BR SCT005 BKN006 OVC007 09/08 Q1026 BECMG 3800 SCT006 BKN008 OVC011

EHAM Flight Activity (Flightaware)

Listeners: 0 out of 1246 total

EHAA Radar Sector 3 RIVER: 130.950

EHAA Radar South (Archives)
Amsterdam, Netherlands

Feed Status: UP
Listen in your browser - HTML5 player(in browser, HTML5)
Click here to listen with your own player(launches your MP3 player)

EHAM 211425Z 26012KT 220V290 1900 DZ BR SCT005 BKN006 OVC007 09/08 Q1026 BECMG 3800 SCT006 BKN008 OVC011

EHAM Flight Activity (Flightaware)

Listeners: 0 out of 1246 total

EHAA Radar Sector 3 South: 123.850

EHAA Radar South (Backup) (Archives)
Amsterdam, Netherlands

Feed Status: UP
Listen in your browser - HTML5 player(in browser, HTML5)
Click here to listen with your own player(launches your MP3 player)

EHAM 211425Z 26012KT 220V290 1900 DZ BR SCT005 BKN006 OVC007 09/08 Q1026 BECMG 3800 SCT006 BKN008 OVC011

EHAM Flight Activity (Flightaware)

Listeners: 0 out of 1246 total

EHAA Radar Sector 3 South Backup : 127.775

EHAA Radar Southwest (Archives)
Amsterdam, Netherlands

Feed Status: UP
Listen in your browser - HTML5 player(in browser, HTML5)
Click here to listen with your own player(launches your MP3 player)

EHAM 211425Z 26012KT 220V290 1900 DZ BR SCT005 BKN006 OVC007 09/08 Q1026 BECMG 3800 SCT006 BKN008 OVC011

EHAM Flight Activity (Flightaware)

Listeners: 0 out of 1246 total

EHAA Radar Sector 4 Southwest: 125.750

EHAA Radar SUGOL (Archives)
Amsterdam, Netherlands

Feed Status: UP
Listen in your browser - HTML5 player(in browser, HTML5)
Click here to listen with your own player(launches your MP3 player)

EHAM 211425Z 26012KT 220V290 1900 DZ BR SCT005 BKN006 OVC007 09/08 Q1026 BECMG 3800 SCT006 BKN008 OVC011

EHAM Flight Activity (Flightaware)

Listeners: 0 out of 1246 total

EHAA Radar Sector 5 SUGOL: 118.800

EHAM Airside Ops Mgr (AOM) (Archives)
Amsterdam, Netherlands

Feed Status: UP
Listen in your browser - HTML5 player(in browser, HTML5)
Click here to listen with your own player(launches your MP3 player)

EHAM 211425Z 26012KT 220V290 1900 DZ BR SCT005 BKN006 OVC007 09/08 Q1026 BECMG 3800 SCT006 BKN008 OVC011

EHAM Flight Activity (Flightaware)

Listeners: 0 out of 1246 total

Schiphol Airside Operations Manager: 130.475

EHAM App/Dep Backup (Archives)
Amsterdam, Netherlands

Feed Status: UP
Listen in your browser - HTML5 player(in browser, HTML5)
Click here to listen with your own player(launches your MP3 player)

EHAM 211425Z 26012KT 220V290 1900 DZ BR SCT005 BKN006 OVC007 09/08 Q1026 BECMG 3800 SCT006 BKN008 OVC011

EHAM Flight Activity (Flightaware)

Listeners: 0 out of 1246 total

Schiphol App/Dep Backup: 118.075

EHAM App/Dep TMA East (Archives)
Amsterdam, Netherlands

Feed Status: UP
Listen in your browser - HTML5 player(in browser, HTML5)
Click here to listen with your own player(launches your MP3 player)

EHAM 211425Z 26012KT 220V290 1900 DZ BR SCT005 BKN006 OVC007 09/08 Q1026 BECMG 3800 SCT006 BKN008 OVC011

EHAM Flight Activity (Flightaware)

Listeners: 0 out of 1246 total

Amsterdam Approach/Departure TMA East: 119.055

EHAM App/Dep TMA West (Archives)
Amsterdam, Netherlands

Feed Status: UP
Listen in your browser - HTML5 player(in browser, HTML5)
Click here to listen with your own player(launches your MP3 player)

EHAM 211425Z 26012KT 220V290 1900 DZ BR SCT005 BKN006 OVC007 09/08 Q1026 BECMG 3800 SCT006 BKN008 OVC011

EHAM Flight Activity (Flightaware)

Listeners: 0 out of 1246 total

Amsterdam Approach/Departure TMA West: 121.200

EHAM Apron (North) (Archives)
Amsterdam, Netherlands

Feed Status: UP
Listen in your browser - HTML5 player(in browser, HTML5)
Click here to listen with your own player(launches your MP3 player)

EHAM 211425Z 26012KT 220V290 1900 DZ BR SCT005 BKN006 OVC007 09/08 Q1026 BECMG 3800 SCT006 BKN008 OVC011

EHAM Flight Activity (Flightaware)

Listeners: 0 out of 1246 total

Schiphol Apron (North): 121.880

EHAM Apron (South) (Archives)
Amsterdam, Netherlands

Feed Status: UP
Listen in your browser - HTML5 player(in browser, HTML5)
Click here to listen with your own player(launches your MP3 player)

EHAM 211425Z 26012KT 220V290 1900 DZ BR SCT005 BKN006 OVC007 09/08 Q1026 BECMG 3800 SCT006 BKN008 OVC011

EHAM Flight Activity (Flightaware)

Listeners: 1 out of 1246 total

Schiphol Apron (South): 121.780

EHAM Arrival (Primary) (Archives)
Amsterdam, Netherlands

Feed Status: UP
Listen in your browser - HTML5 player(in browser, HTML5)
Click here to listen with your own player(launches your MP3 player)

EHAM 211425Z 26012KT 220V290 1900 DZ BR SCT005 BKN006 OVC007 09/08 Q1026 BECMG 3800 SCT006 BKN008 OVC011

EHAM Flight Activity (Flightaware)

Listeners: 0 out of 1246 total

Amsterdam Arrival : 118.400

EHAM Arrival (Secondary) (Archives)
Amsterdam, Netherlands

Feed Status: UP
Listen in your browser - HTML5 player(in browser, HTML5)
Click here to listen with your own player(launches your MP3 player)

EHAM 211425Z 26012KT 220V290 1900 DZ BR SCT005 BKN006 OVC007 09/08 Q1026 BECMG 3800 SCT006 BKN008 OVC011

EHAM Flight Activity (Flightaware)

Listeners: 0 out of 1246 total

Amsterdam Arrival (Secondary): 131.150

EHAM Arrival (Secondary/Backup) (Archives)
Amsterdam, Netherlands

Feed Status: UP
Listen in your browser - HTML5 player(in browser, HTML5)
Click here to listen with your own player(launches your MP3 player)

EHAM 211425Z 26012KT 220V290 1900 DZ BR SCT005 BKN006 OVC007 09/08 Q1026 BECMG 3800 SCT006 BKN008 OVC011

EHAM Flight Activity (Flightaware)

Listeners: 0 out of 1246 total

Amsterdam Arrival (Secondary Backup): 131.275

EHAM Arrival Backup/Discrete (Archives)
Amsterdam, Netherlands

Feed Status: UP
Listen in your browser - HTML5 player(in browser, HTML5)
Click here to listen with your own player(launches your MP3 player)

EHAM 211425Z 26012KT 220V290 1900 DZ BR SCT005 BKN006 OVC007 09/08 Q1026 BECMG 3800 SCT006 BKN008 OVC011

EHAM Flight Activity (Flightaware)

Listeners: 0 out of 1246 total

Schiphol Arrival Backup: 126.675

EHAM Clearance Delivery (Archives)
Amsterdam, Netherlands

Feed Status: UP
Listen in your browser - HTML5 player(in browser, HTML5)
Click here to listen with your own player(launches your MP3 player)

EHAM 211425Z 26012KT 220V290 1900 DZ BR SCT005 BKN006 OVC007 09/08 Q1026 BECMG 3800 SCT006 BKN008 OVC011

EHAM Flight Activity (Flightaware)

Listeners: 0 out of 1246 total

Schiphol Clearance Delivery: 121.980

EHAM Ground (Backup) (Archives)
Amsterdam, Netherlands

Feed Status: UP
Listen in your browser - HTML5 player(in browser, HTML5)
Click here to listen with your own player(launches your MP3 player)

EHAM 211425Z 26012KT 220V290 1900 DZ BR SCT005 BKN006 OVC007 09/08 Q1026 BECMG 3800 SCT006 BKN008 OVC011

EHAM Flight Activity (Flightaware)

Listeners: 0 out of 1246 total

Schiphol Ground (Backup): 122.425

EHAM Ground (North) (Archives)
Amsterdam, Netherlands

Feed Status: UP
Listen in your browser - HTML5 player(in browser, HTML5)
Click here to listen with your own player(launches your MP3 player)

EHAM 211425Z 26012KT 220V290 1900 DZ BR SCT005 BKN006 OVC007 09/08 Q1026 BECMG 3800 SCT006 BKN008 OVC011

EHAM Flight Activity (Flightaware)

Listeners: 0 out of 1246 total

Schiphol Ground (North): 121.805

EHAM Ground (South) (Archives)
Amsterdam, Netherlands

Feed Status: UP
Listen in your browser - HTML5 player(in browser, HTML5)
Click here to listen with your own player(launches your MP3 player)

EHAM 211425Z 26012KT 220V290 1900 DZ BR SCT005 BKN006 OVC007 09/08 Q1026 BECMG 3800 SCT006 BKN008 OVC011

EHAM Flight Activity (Flightaware)

Listeners: 0 out of 1246 total

Schiphol Ground (South): 121.705

EHAM Ground (West) (Archives)
Amsterdam, Netherlands

Feed Status: UP
Listen in your browser - HTML5 player(in browser, HTML5)
Click here to listen with your own player(launches your MP3 player)

EHAM 211425Z 26012KT 220V290 1900 DZ BR SCT005 BKN006 OVC007 09/08 Q1026 BECMG 3800 SCT006 BKN008 OVC011

EHAM Flight Activity (Flightaware)

Listeners: 0 out of 1246 total

Schiphol Ground (West): 121.560

EHAM Info North Sea (North) (Archives)
Amsterdam, Netherlands

Feed Status: UP
Listen in your browser - HTML5 player(in browser, HTML5)
Click here to listen with your own player(launches your MP3 player)

EHAM 211425Z 26012KT 220V290 1900 DZ BR SCT005 BKN006 OVC007 09/08 Q1026 BECMG 3800 SCT006 BKN008 OVC011

EHAM Flight Activity (Flightaware)

Listeners: 0 out of 1246 total

Amsterdam Info North Sea (North): 119.175

EHAM Info North Sea (Over Land) (Archives)
Amsterdam, Netherlands

Feed Status: UP
Listen in your browser - HTML5 player(in browser, HTML5)
Click here to listen with your own player(launches your MP3 player)

EHAM 211425Z 26012KT 220V290 1900 DZ BR SCT005 BKN006 OVC007 09/08 Q1026 BECMG 3800 SCT006 BKN008 OVC011

EHAM Flight Activity (Flightaware)

Listeners: 0 out of 1246 total

Amsterdam Info North Sea (Over Land): 124.300

EHAM Info North Sea (South) (Archives)
Amsterdam, Netherlands

Feed Status: UP
Listen in your browser - HTML5 player(in browser, HTML5)
Click here to listen with your own player(launches your MP3 player)

EHAM 211425Z 26012KT 220V290 1900 DZ BR SCT005 BKN006 OVC007 09/08 Q1026 BECMG 3800 SCT006 BKN008 OVC011

EHAM Flight Activity (Flightaware)

Listeners: 0 out of 1246 total

Amsterdam Info North Sea (South): 136.650

EHAM Ops (Archives)
Amsterdam, Netherlands

Feed Status: UP
Listen in your browser - HTML5 player(in browser, HTML5)
Click here to listen with your own player(launches your MP3 player)

EHAM 211425Z 26012KT 220V290 1900 DZ BR SCT005 BKN006 OVC007 09/08 Q1026 BECMG 3800 SCT006 BKN008 OVC011

EHAM Flight Activity (Flightaware)

Listeners: 1 out of 1246 total

Schiphol Ops 1: 465.770
Schiphol Ops 2: 466.470
Schiphol Runway Ops: 447.175

EHAM Schiphol Outbound Planner (Archives)
Amsterdam, Netherlands

Feed Status: UP
Listen in your browser - HTML5 player(in browser, HTML5)
Click here to listen with your own player(launches your MP3 player)

EHAM 211425Z 26012KT 220V290 1900 DZ BR SCT005 BKN006 OVC007 09/08 Q1026 BECMG 3800 SCT006 BKN008 OVC011

EHAM Flight Activity (Flightaware)

Listeners: 1 out of 1246 total

Schiphol Outbound Planner: 121.655

EHAM Tow Traffic (Archives)
Amsterdam, Netherlands

Feed Status: UP
Listen in your browser - HTML5 player(in browser, HTML5)
Click here to listen with your own player(launches your MP3 player)

EHAM 211425Z 26012KT 220V290 1900 DZ BR SCT005 BKN006 OVC007 09/08 Q1026 BECMG 3800 SCT006 BKN008 OVC011

EHAM Flight Activity (Flightaware)

Listeners: 1 out of 1246 total

Schiphol Tow Traffic: 134.875

EHAM Tower (06/24) (Archives)
Amsterdam, Netherlands

Feed Status: UP
Listen in your browser - HTML5 player(in browser, HTML5)
Click here to listen with your own player(launches your MP3 player)

EHAM 211425Z 26012KT 220V290 1900 DZ BR SCT005 BKN006 OVC007 09/08 Q1026 BECMG 3800 SCT006 BKN008 OVC011

EHAM Flight Activity (Flightaware)

Listeners: 0 out of 1246 total

Schiphol Tower Main 06/24: 118.950

EHAM Tower (18C/36C-27/09) (Archives)
Amsterdam, Netherlands

Feed Status: UP
Listen in your browser - HTML5 player(in browser, HTML5)
Click here to listen with your own player(launches your MP3 player)

EHAM 211425Z 26012KT 220V290 1900 DZ BR SCT005 BKN006 OVC007 09/08 Q1026 BECMG 3800 SCT006 BKN008 OVC011

EHAM Flight Activity (Flightaware)

Listeners: 0 out of 1246 total

Schiphol Tower Main 18C/36C - 27/09: 118.100

EHAM Tower (18L/36R-22/04) (Archives)
Amsterdam, Netherlands

Feed Status: UP
Listen in your browser - HTML5 player(in browser, HTML5)
Click here to listen with your own player(launches your MP3 player)

EHAM 211425Z 26012KT 220V290 1900 DZ BR SCT005 BKN006 OVC007 09/08 Q1026 BECMG 3800 SCT006 BKN008 OVC011

EHAM Flight Activity (Flightaware)

Listeners: 0 out of 1246 total

Schiphol Tower Main 18L/36R - 22/04: 119.225

EHAM Tower Backup (Archives)
Amsterdam, Netherlands

Feed Status: UP
Listen in your browser - HTML5 player(in browser, HTML5)
Click here to listen with your own player(launches your MP3 player)

EHAM 211425Z 26012KT 220V290 1900 DZ BR SCT005 BKN006 OVC007 09/08 Q1026 BECMG 3800 SCT006 BKN008 OVC011

EHAM Flight Activity (Flightaware)

Listeners: 0 out of 1246 total

Schiphol Tower Backup: 119.905

EHAM Tower West (18R/36L) (Archives)
Amsterdam, Netherlands

Feed Status: UP
Listen in your browser - HTML5 player(in browser, HTML5)
Click here to listen with your own player(launches your MP3 player)

EHAM 211425Z 26012KT 220V290 1900 DZ BR SCT005 BKN006 OVC007 09/08 Q1026 BECMG 3800 SCT006 BKN008 OVC011

EHAM Flight Activity (Flightaware)

Listeners: 0 out of 1246 total

Schiphol Tower West 18R/36L: 118.280

EHBK Gnd/Twr/App (Archives)
Beek, Netherlands

Feed Status: UP
Listen in your browser - HTML5 player(in browser, HTML5)
Click here to listen with your own player(launches your MP3 player)

EHBK 211425Z AUTO 25008KT 220V300 9999 FEW025 BKN045 12/07 Q1027 NOSIG

EHBK Flight Activity (Flightaware)

Listeners: 1 out of 1246 total

Beek Approach: 120.200
Beek Approach: 123.975
Beek Ground: 121.825
Beek Tower: 119.475
Beek Tower: 119.700

MUAC/Eurocontrol Delta High (Archives)
Beek, Netherlands

Feed Status: UP
Listen in your browser - HTML5 player(in browser, HTML5)
Click here to listen with your own player(launches your MP3 player)

EHBK 211425Z AUTO 25008KT 220V300 9999 FEW025 BKN045 12/07 Q1027 NOSIG

EHBK Flight Activity (Flightaware)

Listeners: 0 out of 1246 total

MUAC Delta High Sector: 132.085

MUAC/Eurocontrol Koksy (Archives)
Beek, Netherlands

Feed Status: UP
Listen in your browser - HTML5 player(in browser, HTML5)
Click here to listen with your own player(launches your MP3 player)

EHBK 211425Z AUTO 25008KT 220V300 9999 FEW025 BKN045 12/07 Q1027 NOSIG

EHBK Flight Activity (Flightaware)

Listeners: 1 out of 1246 total

MUAC Koksy Sector: 132.205

MUAC/Eurocontrol Koksy High (Archives)
Beek, Netherlands

Feed Status: UP
Listen in your browser - HTML5 player(in browser, HTML5)
Click here to listen with your own player(launches your MP3 player)

EHBK 211425Z AUTO 25008KT 220V300 9999 FEW025 BKN045 12/07 Q1027 NOSIG

EHBK Flight Activity (Flightaware)

Listeners: 1 out of 1246 total

MUAC Koksy High Sector: 132.755

MUAC/Eurocontrol Lux High (Archives)
Beek, Netherlands

Feed Status: UP
Listen in your browser - HTML5 player(in browser, HTML5)
Click here to listen with your own player(launches your MP3 player)

EHBK 211425Z AUTO 25008KT 220V300 9999 FEW025 BKN045 12/07 Q1027 NOSIG

EHBK Flight Activity (Flightaware)

Listeners: 1 out of 1246 total

MUAC Lux High Sector: 132.315

MUAC/Eurocontrol Lux Low (Archives)
Beek, Netherlands

Feed Status: UP
Listen in your browser - HTML5 player(in browser, HTML5)
Click here to listen with your own player(launches your MP3 player)

EHBK 211425Z AUTO 25008KT 220V300 9999 FEW025 BKN045 12/07 Q1027 NOSIG

EHBK Flight Activity (Flightaware)

Listeners: 0 out of 1246 total

MUAC Lux Low Sector: 133.355

MUAC/Eurocontrol Olno Low (Archives)
Beek, Netherlands

Feed Status: UP
Listen in your browser - HTML5 player(in browser, HTML5)
Click here to listen with your own player(launches your MP3 player)

EHBK 211425Z AUTO 25008KT 220V300 9999 FEW025 BKN045 12/07 Q1027 NOSIG

EHBK Flight Activity (Flightaware)

Listeners: 0 out of 1246 total

MUAC Olno Low Sector: 132.855

MUAC/Eurocontrol Ruhr (Archives)
Beek, Netherlands

Feed Status: UP
Listen in your browser - HTML5 player(in browser, HTML5)
Click here to listen with your own player(launches your MP3 player)

EHBK 211425Z AUTO 25008KT 220V300 9999 FEW025 BKN045 12/07 Q1027 NOSIG

EHBK Flight Activity (Flightaware)

Listeners: 0 out of 1246 total

MUAC Ruhr Sector: 132.515

MUAC/Eurocontrol Sollingen High (Archives)
Beek, Netherlands

Feed Status: UP
Listen in your browser - HTML5 player(in browser, HTML5)
Click here to listen with your own player(launches your MP3 player)

EHBK 211425Z AUTO 25008KT 220V300 9999 FEW025 BKN045 12/07 Q1027 NOSIG

EHBK Flight Activity (Flightaware)

Listeners: 0 out of 1246 total

MUAC Sollingen High Sector: 131.380

EHEH Approach #1 (Archives)
Eindhoven, Netherlands

Feed Status: UP
Listen in your browser - HTML5 player(in browser, HTML5)
Click here to listen with your own player(launches your MP3 player)

EHEH 211425Z AUTO 26013KT 210V290 9999 OVC038/// 13/06 Q1026 BLU 25012KT 9999 FEW025 BKN040

EHEH Flight Activity (Flightaware)

Listeners: 0 out of 1246 total

Eindhoven Approach: 132.525
Eindhoven Arrival/Director: 124.525
Emergency/Guard: 121.500

EHEH Approach #2 (Archives)
Eindhoven, Netherlands

Feed Status: UP
Listen in your browser - HTML5 player(in browser, HTML5)
Click here to listen with your own player(launches your MP3 player)

EHEH 211425Z AUTO 26013KT 210V290 9999 OVC038/// 13/06 Q1026 BLU 25012KT 9999 FEW025 BKN040

EHEH Flight Activity (Flightaware)

Listeners: 0 out of 1246 total

Eindhoven Approach/Arrival: 124.530
Eindhoven Approach/Arrival: 132.530
Eindhoven Approach/Arrival: 278.050

EHEH Ground (Archives)
Eindhoven, Netherlands

Feed Status: UP
Listen in your browser - HTML5 player(in browser, HTML5)
Click here to listen with your own player(launches your MP3 player)

EHEH 211425Z AUTO 26013KT 210V290 9999 OVC038/// 13/06 Q1026 BLU 25012KT 9999 FEW025 BKN040

EHEH Flight Activity (Flightaware)

Listeners: 0 out of 1246 total

Eindhoven Ground: 121.930
Eindhoven Ground: 369.250

EHEH Tower #1 (Archives)
Eindhoven, Netherlands

Feed Status: UP
Listen in your browser - HTML5 player(in browser, HTML5)
Click here to listen with your own player(launches your MP3 player)

EHEH 211425Z AUTO 26013KT 210V290 9999 OVC038/// 13/06 Q1026 BLU 25012KT 9999 FEW025 BKN040

EHEH Flight Activity (Flightaware)

Listeners: 1 out of 1246 total

Budel Tower: 122.150
Eindhoven Tower: 131.005
Emergency/Guard: 121.500
Generic Tower: 122.100
Volkel Tower: 136.075

EHEH Tower #2 (Archives)
Eindhoven, Netherlands

Feed Status: UP
Listen in your browser - HTML5 player(in browser, HTML5)
Click here to listen with your own player(launches your MP3 player)

EHEH 211425Z AUTO 26013KT 210V290 9999 OVC038/// 13/06 Q1026 BLU 25012KT 9999 FEW025 BKN040

EHEH Flight Activity (Flightaware)

Listeners: 0 out of 1246 total

Eindhoven Tower: 122.100
Eindhoven Tower: 131.005
Eindhoven Tower: 281.150

EHGG Approach (Archives)
Groningen, Netherlands

Feed Status: UP
Listen in your browser - HTML5 player(in browser, HTML5)
Click here to listen with your own player(launches your MP3 player)

EHGG 211425Z AUTO 26009KT 2600 BR BKN003 OVC005 09/08 Q1024 TEMPO 2500

EHGG Flight Activity (Flightaware)

Listeners: 0 out of 1246 total

Eelde Approach: 120.305

EHGG ATIS (Archives)
Groningen, Netherlands

Feed Status: UP
Listen in your browser - HTML5 player(in browser, HTML5)
Click here to listen with your own player(launches your MP3 player)

EHGG 211425Z AUTO 26009KT 2600 BR BKN003 OVC005 09/08 Q1024 TEMPO 2500

EHGG Flight Activity (Flightaware)

Listeners: 0 out of 1246 total

Groningen ATIS: 133.555

EHGG Ground (Archives)
Groningen, Netherlands

Feed Status: UP
Listen in your browser - HTML5 player(in browser, HTML5)
Click here to listen with your own player(launches your MP3 player)

EHGG 211425Z AUTO 26009KT 2600 BR BKN003 OVC005 09/08 Q1024 TEMPO 2500

EHGG Flight Activity (Flightaware)

Listeners: 0 out of 1246 total

Eelde Clearance Delivery/Ground: 121.705

EHGG Guard/Emergency (Archives)
Groningen, Netherlands

Feed Status: UP
Listen in your browser - HTML5 player(in browser, HTML5)
Click here to listen with your own player(launches your MP3 player)

EHGG 211425Z AUTO 26009KT 2600 BR BKN003 OVC005 09/08 Q1024 TEMPO 2500

EHGG Flight Activity (Flightaware)

Listeners: 0 out of 1246 total

Emergency/Guard: 121.500

EHGG Tower (Archives)
Groningen, Netherlands

Feed Status: UP
Listen in your browser - HTML5 player(in browser, HTML5)
Click here to listen with your own player(launches your MP3 player)

EHGG 211425Z AUTO 26009KT 2600 BR BKN003 OVC005 09/08 Q1024 TEMPO 2500

EHGG Flight Activity (Flightaware)

Listeners: 1 out of 1246 total

Eelde Tower: 118.705

MUAC/Eurocontrol (EHGG Area) (Archives)
Groningen, Netherlands

Feed Status: UP
Listen in your browser - HTML5 player(in browser, HTML5)
Click here to listen with your own player(launches your MP3 player)

EHGG 211425Z AUTO 26009KT 2600 BR BKN003 OVC005 09/08 Q1024 TEMPO 2500

EHGG Flight Activity (Flightaware)

Listeners: 0 out of 1246 total

MUAC Holstein High Sector: 132.775
MUAC Holstein Sector: 120.9333
MUAC Javer High Sector: 134.700
MUAC Jever Sector: 136.4666

EHGR Twr/TMA/App (Archives)
Breda, Netherlands

Feed Status: UP
Listen in your browser - HTML5 player(in browser, HTML5)
Click here to listen with your own player(launches your MP3 player)

EHGR 211425Z AUTO 25008KT 200V290 9999 BKN028 OVC031 13/07 Q1026 BLU 21008KT 9999 FEW028 BKN045

EHGR Flight Activity (Flightaware)

Listeners: 1 out of 1246 total

Gilze Rijen Arrival U09 (UHF): 373.375
Gilze Rijen TMA D U16 (UHF) : 371.525
Gilze Rijen Tower U12 (UHF): 369.500

EHGR Mode-S Tracking
EHEH Mode-S Tracking

EHHV CTAF (Archives)
Hilversum, Netherlands

Feed Status: UP
Listen in your browser - HTML5 player(in browser, HTML5)
Click here to listen with your own player(launches your MP3 player)

EHHV Flight Activity (Flightaware)

Listeners: 0 out of 1246 total

Hilversum Radio: 131.025

Dutch Mil Radar (Archives)
Lelystad, Netherlands

Feed Status: UP
Listen in your browser - HTML5 player(in browser, HTML5)
Click here to listen with your own player(launches your MP3 player)

EHLE Flight Activity (Flightaware)

Listeners: 1 out of 1246 total

Dutch Mil Flight Info: 264.325
Dutch Mil Radar: 128.355
Dutch Mil Radar: 132.350

EHLE Air to Air (Archives)
Lelystad, Netherlands

Feed Status: UP
Listen in your browser - HTML5 player(in browser, HTML5)
Click here to listen with your own player(launches your MP3 player)

EHLE Flight Activity (Flightaware)

Listeners: 0 out of 1246 total

Lelystad Air to Air: 123.450

EHLE Fokker Four (Archives)
Lelystad, Netherlands

Feed Status: UP
Listen in your browser - HTML5 player(in browser, HTML5)
Click here to listen with your own player(launches your MP3 player)

EHLE Flight Activity (Flightaware)

Listeners: 0 out of 1246 total

Lelystad Fokker Four: 123.525

EHLE Microlight Aircraft (Archives)
Lelystad, Netherlands

Feed Status: UP
Listen in your browser - HTML5 player(in browser, HTML5)
Click here to listen with your own player(launches your MP3 player)

EHLE Flight Activity (Flightaware)

Listeners: 0 out of 1246 total

Lelystad Microlight Aircraft: 123.825

EHLE Radio (Archives)
Lelystad, Netherlands

Feed Status: UP
Listen in your browser - HTML5 player(in browser, HTML5)
Click here to listen with your own player(launches your MP3 player)

EHLE Flight Activity (Flightaware)

Listeners: 2 out of 1246 total

Lelystad Radio: 123.675

EHMC/EHML Military/Radar (Archives)
Nieuw-Milligen, Netherlands

Feed Status: UP
Listen in your browser - HTML5 player(in browser, HTML5)
Click here to listen with your own player(launches your MP3 player)

EHMC Flight Activity (Flightaware)

Listeners: 0 out of 1246 total

AMCC: 234.000
Belga Radar: 129.325
Command Post: 313.550
Dutch Military Radar: 120.825
Dutch Military Radar: 125.925
Dutch Military Radar: 128.350
GCI: 363.100
Lippe Radar: 131.075
London Mil: 135.275
Meteo: 284.425

Military Mode-S Logs
REACH Flights Europe Mode-S Logs
NOTE: Due to receiver distance only aircraft can be heard

EHMC/EHML Military/Radar (Archives)
Nieuw-Milligen, Netherlands

Feed Status: UP
Listen in your browser - HTML5 player(in browser, HTML5)
Click here to listen with your own player(launches your MP3 player)

EHMC Flight Activity (Flightaware)

Listeners: 0 out of 1246 total

AMCC: 234.000
Belga Radar: 129.325
Command Post: 313.550
Dutch Military Radar: 120.825
Dutch Military Radar: 125.925
Dutch Military Radar: 128.350
GCI: 363.100
Lippe Radar: 131.075
London Mil: 135.275
Meteo: 284.425

Military Mode-S Logs
REACH Flights Europe Mode-S Logs
NOTE: Due to receiver distance only aircraft can be heard

EHMM CTAF (Archives)
Middenmeer, Netherlands

Feed Status: UP
Listen in your browser - HTML5 player(in browser, HTML5)
Click here to listen with your own player(launches your MP3 player)

EHMM Flight Activity (Flightaware)

Listeners: 0 out of 1246 total

Middenmeer CTAF: 123.425

EHRD Approach (Archives)
Rotterdam, Netherlands

Feed Status: UP
Listen in your browser - HTML5 player(in browser, HTML5)
Click here to listen with your own player(launches your MP3 player)

EHRD 211425Z AUTO 26011KT 220V290 9000 DZ FEW009 OVC010 10/08 Q1026 TEMPO BKN006

EHRD Flight Activity (Flightaware)

Listeners: 0 out of 1246 total

Rotterdam Approach: 124.535
Rotterdam Approach: 281.050

EHRD Clearance Delivery (Archives)
Rotterdam, Netherlands

Feed Status: UP
Listen in your browser - HTML5 player(in browser, HTML5)
Click here to listen with your own player(launches your MP3 player)

EHRD 211425Z AUTO 26011KT 220V290 9000 DZ FEW009 OVC010 10/08 Q1026 TEMPO BKN006

EHRD Flight Activity (Flightaware)

Listeners: 0 out of 1246 total

Rotterdam Del/Gnd: 122.180

EHRD Del/Twr (Archives)
Rotterdam, Netherlands

Feed Status: UP
Listen in your browser - HTML5 player(in browser, HTML5)
Click here to listen with your own player(launches your MP3 player)

EHRD 211425Z AUTO 26011KT 220V290 9000 DZ FEW009 OVC010 10/08 Q1026 TEMPO BKN006

EHRD Flight Activity (Flightaware)

Listeners: 0 out of 1246 total

Rotterdam Del/Gnd: 122.180
Rotterdam Tower: 118.205

EHRD Gnd/Twr/App (Archives)
Rotterdam, Netherlands

Feed Status: UP
Listen in your browser - HTML5 player(in browser, HTML5)
Click here to listen with your own player(launches your MP3 player)

EHRD 211425Z AUTO 26011KT 220V290 9000 DZ FEW009 OVC010 10/08 Q1026 TEMPO BKN006

EHRD Flight Activity (Flightaware)

Listeners: 1 out of 1246 total

Adam Info: 124.300
Regional Guard: 119.705
Rotterdam Approach: 127.025
Rotterdam Del/Gnd: 122.180
Rotterdam Tower: 118.205
SAR: 123.100
SAR: 282.800

EHRD Tower (Archives)
Rotterdam, Netherlands

Feed Status: UP
Listen in your browser - HTML5 player(in browser, HTML5)
Click here to listen with your own player(launches your MP3 player)

EHRD 211425Z AUTO 26011KT 220V290 9000 DZ FEW009 OVC010 10/08 Q1026 TEMPO BKN006

EHRD Flight Activity (Flightaware)

Listeners: 1 out of 1246 total

Rotterdam Tower: 118.205
Rotterdam Tower: 362.300

EHRD Twr/App
Rotterdam, Netherlands

Feed Status: DOWN
Offline since: 2019-02-21 10:35:03 UTC

EHRD 211425Z AUTO 26011KT 220V290 9000 DZ FEW009 OVC010 10/08 Q1026 TEMPO BKN006

Rotterdam Approach: 127.025
Rotterdam Tower: 118.205

EHRD ADS-B Logs

EHTX Gnd/Twr (Archives)
Texel, Netherlands

Feed Status: UP
Listen in your browser - HTML5 player(in browser, HTML5)
Click here to listen with your own player(launches your MP3 player)

EHTX Flight Activity (Flightaware)

Listeners: 0 out of 1246 total

Texel Radio (Ground/Tower): 119.300

EHVL CTAF/Range Control (Archives)
Vlieland, Netherlands

Feed Status: UP
Listen in your browser - HTML5 player(in browser, HTML5)
Click here to listen with your own player(launches your MP3 player)

EHVL 211425Z AUTO 26014KT 3100 BR BKN002 BKN003 OVC005 08/08 Q1024 AMB

EHVL Flight Activity (Flightaware)

Listeners: 0 out of 1246 total

Cornfield VHF (CTAF): 122.100
Range Controller (Primary): 279.000
Range Controller (Secondary): 369.200
Range Controller VHF: 138.075

EICK Approach/Departure
Cork, Ireland

Feed Status: DOWN
Offline since: 2019-02-09 02:14:03 UTC

EICK 211400Z 17017G28KT 9999 BKN007 10/09 Q1019 TEMPO BKN012

Cork Approach: 119.900

EICK Gnd/Twr/App/Dep
Cork, Ireland

Feed Status: DOWN
Offline since: 2019-02-09 02:14:03 UTC

EICK 211400Z 17017G28KT 9999 BKN007 10/09 Q1019 TEMPO BKN012

Cork Approach: 119.900
Cork Ground: 121.850
Cork Tower: 119.300

EICK Ground/Tower
Cork, Ireland

Feed Status: DOWN
Offline since: 2019-02-09 02:14:03 UTC

EICK 211400Z 17017G28KT 9999 BKN007 10/09 Q1019 TEMPO BKN012

Cork Ground: 121.850
Cork Tower: 119.300

EIDW Approach (Archives)
Dublin, Ireland

Feed Status: UP
Listen in your browser - HTML5 player(in browser, HTML5)
Click here to listen with your own player(launches your MP3 player)

EIDW 211400Z 18018KT 9999 FEW020 BKN250 13/07 Q1020 NOSIG

EIDW Flight Activity (Flightaware)

Listeners: 7 out of 1246 total

Dublin Approach: 121.100

EIDW Approach (Final) (Archives)
Dublin, Ireland

Feed Status: UP
Listen in your browser - HTML5 player(in browser, HTML5)
Click here to listen with your own player(launches your MP3 player)

EIDW 211400Z 18018KT 9999 FEW020 BKN250 13/07 Q1020 NOSIG

EIDW Flight Activity (Flightaware)

Listeners: 2 out of 1246 total

Dublin Approach (Final): 119.925

EIDW Clearance Delivery (Archives)
Dublin, Ireland

Feed Status: UP
Listen in your browser - HTML5 player(in browser, HTML5)
Click here to listen with your own player(launches your MP3 player)

EIDW 211400Z 18018KT 9999 FEW020 BKN250 13/07 Q1020 NOSIG

EIDW Flight Activity (Flightaware)

Listeners: 0 out of 1246 total

Dublin Clearance Delivery: 121.875

EIDW Del/Gnd/Twr/App/Center (Archives)
Dublin, Ireland

Feed Status: UP
Listen in your browser - HTML5 player(in browser, HTML5)
Click here to listen with your own player(launches your MP3 player)

EIDW 211400Z 18018KT 9999 FEW020 BKN250 13/07 Q1020 NOSIG

EIDW Flight Activity (Flightaware)

Listeners: 23 out of 1246 total

Dublin Approach: 121.100
Dublin Approach (backup): 119.550
Dublin Centre North: 129.175
Dublin Centre South: 126.250
Dublin Clearance Delivery: 121.875
Dublin FIS: 118.500
Dublin Ground: 121.800
Dublin Tower: 118.600

EIDW Ground (Archives)
Dublin, Ireland

Feed Status: UP
Listen in your browser - HTML5 player(in browser, HTML5)
Click here to listen with your own player(launches your MP3 player)

EIDW 211400Z 18018KT 9999 FEW020 BKN250 13/07 Q1020 NOSIG

EIDW Flight Activity (Flightaware)

Listeners: 0 out of 1246 total

Dublin Ground: 121.800

EIDW Ground (North) (Archives)
Dublin, Ireland

Feed Status: UP
Listen in your browser - HTML5 player(in browser, HTML5)
Click here to listen with your own player(launches your MP3 player)

EIDW 211400Z 18018KT 9999 FEW020 BKN250 13/07 Q1020 NOSIG

EIDW Flight Activity (Flightaware)

Listeners: 0 out of 1246 total

Dublin Ground (North): 118.750

EIDW Ops (Archives)
Dublin, Ireland

Feed Status: UP
Listen in your browser - HTML5 player(in browser, HTML5)
Click here to listen with your own player(launches your MP3 player)

EIDW 211400Z 18018KT 9999 FEW020 BKN250 13/07 Q1020 NOSIG

EIDW Flight Activity (Flightaware)

Listeners: 0 out of 1246 total

Misc:

EIDW Tower (Archives)
Dublin, Ireland

Feed Status: UP
Listen in your browser - HTML5 player(in browser, HTML5)
Click here to listen with your own player(launches your MP3 player)

EIDW 211400Z 18018KT 9999 FEW020 BKN250 13/07 Q1020 NOSIG

EIDW Flight Activity (Flightaware)

Listeners: 5 out of 1246 total

Dublin Tower: 118.600

EIKN Gnd/Twr/App (Archives)
Charlestown, Ireland

Feed Status: UP
Listen in your browser - HTML5 player(in browser, HTML5)
Click here to listen with your own player(launches your MP3 player)

EIKN 211400Z 17014G27KT 130V220 9999 BKN015 BKN030 11/09 Q1015 NOSIG

EIKN Flight Activity (Flightaware)

Listeners: 0 out of 1246 total

Connaught Ground: 121.900
Connaught Tower: 130.700
Shannon Low Level: 119.075

Special Note: Sponsored by CAC

EINN Approach/Departure (Archives)
Shannon, Ireland

Feed Status: UP
Listen in your browser - HTML5 player(in browser, HTML5)
Click here to listen with your own player(launches your MP3 player)

EINN 211400Z 17020KT 9999 FEW016 BKN021 13/08 Q1017 NOSIG

EINN Flight Activity (Flightaware)

Listeners: 0 out of 1246 total

Shannon Approach Radar: 121.400
Shannon Low: 124.700

EINN Gnd/Twr/Ops (Archives)
Shannon, Ireland

Feed Status: UP
Listen in your browser - HTML5 player(in browser, HTML5)
Click here to listen with your own player(launches your MP3 player)

EINN 211400Z 17020KT 9999 FEW016 BKN021 13/08 Q1017 NOSIG

EINN Flight Activity (Flightaware)

Listeners: 1 out of 1246 total

Aer Lingus Ops: 131.500
Service Air Ops: 131.450
Shannon Ground: 121.800
Shannon Tower: 118.700
Sig Ops (Pre-Clearance): 131.590

EINN Shannon Control High #1 (Archives)
Shannon, Ireland

Feed Status: UP
Listen in your browser - HTML5 player(in browser, HTML5)
Click here to listen with your own player(launches your MP3 player)

EINN 211400Z 17020KT 9999 FEW016 BKN021 13/08 Q1017 NOSIG

EINN Flight Activity (Flightaware)

Listeners: 6 out of 1246 total

Shannon Clearance (Oceanic only): 121.700
Shannon Control: 134.630
Shannon Control: 134.260
Shannon Control: 119.075
Shannon Control (BABAN/DEVOL Sector): 132.150
Shannon Control (Cork Sector): 131.150
Shannon Control (Shannon Sector): 134.280
Shannon Control (SOTA Sector): 135.600
Shannon Control NOTA: 125.875
Shannon Control NOTA: 122.980
Shannon High Level (SOTA Sector): 135.230
Shanwick Radio: 127.650
Track Information: 133.800

EINN Twr/App #1 (Archives)
Shannon, Ireland

Feed Status: UP
Listen in your browser - HTML5 player(in browser, HTML5)
Click here to listen with your own player(launches your MP3 player)

EINN 211400Z 17020KT 9999 FEW016 BKN021 13/08 Q1017 NOSIG

EINN Flight Activity (Flightaware)

Listeners: 3 out of 1246 total

Aer Lingus Ops: 131.500
Service Air Ops: 131.450
Shannon Approach Radar: 121.400
Shannon Control: Misc
Shannon Ground: 121.800
Shannon Tower: 118.700
Sig Ops (Pre-Clearance): 131.590

ENAT Twr/App/Control (Archives)
Alta, Norway

Feed Status: UP
Listen in your browser - HTML5 player(in browser, HTML5)
Click here to listen with your own player(launches your MP3 player)

ENAT 211350Z 14006KT 120V180 CAVOK M10/M17 Q1022 RMK WIND 700FT 16013KT

ENAT Flight Activity (Flightaware)

Listeners: 0 out of 1246 total

Alta Tower (to boat, Harbour Channel 12): 156.600
Alta Tower (to vehicle): 462.400
Alta Tower/Approach: 120.400
Norway Control: 126.700

ENBO Approach (Archives)
Bodo, Norway

Feed Status: UP
Listen in your browser - HTML5 player(in browser, HTML5)
Click here to listen with your own player(launches your MP3 player)

ENBO 211420Z 08020KT CAVOK M03/M14 Q1022 NOSIG

ENBO Flight Activity (Flightaware)

Listeners: 0 out of 1246 total

Bodo Approach: 119.700

ENBO Tower (Archives)
Bodo, Norway

Feed Status: UP
Listen in your browser - HTML5 player(in browser, HTML5)
Click here to listen with your own player(launches your MP3 player)

ENBO 211420Z 08020KT CAVOK M03/M14 Q1022 NOSIG

ENBO Flight Activity (Flightaware)

Listeners: 1 out of 1246 total

Bodo Tower: 118.100

ENCN Tower/Approach (Archives)
Kristiansand, Norway

Feed Status: UP
Listen in your browser - HTML5 player(in browser, HTML5)
Click here to listen with your own player(launches your MP3 player)

ENCN 211420Z 07008KT 9999 BKN006 04/04 Q1019

ENCN Flight Activity (Flightaware)

Listeners: 2 out of 1246 total

Kjevik Tower: 118.100
Kjevik Tower/Approach: 119.950

ENEV Twr/App/ACC (Archives)
Evenes, Norway

Feed Status: UP
Listen in your browser - HTML5 player(in browser, HTML5)
Click here to listen with your own player(launches your MP3 player)

ENEV 211350Z 15004KT 9999 VCSH FEW034 OVC047 M05/M09 Q1023 RMK WIND 1400FT 15010KT

ENEV Flight Activity (Flightaware)

Listeners: 0 out of 1246 total

Evenes Approach: 120.100
Evenes Tower: 118.000
Norway ACC (Bodo Sector 25): 126.450

ENGM Approach (Archives)
Oslo, Norway

Feed Status: UP
Listen in your browser - HTML5 player(in browser, HTML5)
Click here to listen with your own player(launches your MP3 player)

ENGM 211420Z 04004KT 350V160 9999 SCT007 BKN010 M01/M03 Q1021

ENGM Flight Activity (Flightaware)

Listeners: 1 out of 1246 total

Oslo Approach: 118.475
Oslo Approach: 120.450

ENKJ RDO (Archives)
Kjeller, Norway

Feed Status: UP
Listen in your browser - HTML5 player(in browser, HTML5)
Click here to listen with your own player(launches your MP3 player)

ENKJ Flight Activity (Flightaware)

Listeners: 0 out of 1246 total

Kjeller RDO: 119.100

ENLI CTAF (Archives)
Farsund, Norway

Feed Status: UP
Listen in your browser - HTML5 player(in browser, HTML5)
Click here to listen with your own player(launches your MP3 player)

ENLI Flight Activity (Flightaware)

Listeners: 0 out of 1246 total

Lista Traffic/Lista Radio: 126.450

ENRK CTAF (Archives)
Astorp, Norway

Feed Status: UP
Listen in your browser - HTML5 player(in browser, HTML5)
Click here to listen with your own player(launches your MP3 player)

ENRK Flight Activity (Flightaware)

Listeners: 0 out of 1246 total

Rakkestad CTAF: 122.950

ENOR Sector 8 (Archives)
Moss, Norway

Feed Status: UP
Listen in your browser - HTML5 player(in browser, HTML5)
Click here to listen with your own player(launches your MP3 player)

ENOR Flight Activity (Flightaware)

Listeners: 0 out of 1246 total

Norway Center (FIR) Sector 8: 118.875

ENRY Tower (Archives)
Moss, Norway

Feed Status: UP
Listen in your browser - HTML5 player(in browser, HTML5)
Click here to listen with your own player(launches your MP3 player)

ENRY 211420Z 03006KT 9999 BKN015 00/M01 Q1021 TEMPO BKN012

ENRY Flight Activity (Flightaware)

Listeners: 0 out of 1246 total

Rygge Tower: 119.500

ENSO AFIS (Archives)
Stord, Norway

Feed Status: UP
Listen in your browser - HTML5 player(in browser, HTML5)
Click here to listen with your own player(launches your MP3 player)

ENSO 211420Z 24003KT 9999 FEW018 SCT026 BKN035 08/07 Q1019

ENSO Flight Activity (Flightaware)

Listeners: 0 out of 1246 total

Stord AFIS: 120.200

Feed sponsored by:

ENTO Tower/App (Archives)
Sandefjord, Norway

Feed Status: UP
Listen in your browser - HTML5 player(in browser, HTML5)
Click here to listen with your own player(launches your MP3 player)

ENTO 211420Z 01012KT 9999 OVC007 00/M01 Q1020 TEMPO SCT007 OVC010

ENTO Flight Activity (Flightaware)

Listeners: 0 out of 1246 total

ENJB Tonsberg Airport - Jarlsberg - CTAF: 122.300
Farris Approach (TCA): 134.050
Sandefjord Tower: 118.650

ENVA Gnd/Twr/App (Archives)
Trondheim, Norway

Feed Status: UP
Listen in your browser - HTML5 player(in browser, HTML5)
Click here to listen with your own player(launches your MP3 player)

ENVA 211420Z 08009KT 060V130 9999 -SHRA FEW020 BKN032 BKN053 00/M02 Q1019 TEMPO 2000 SNRA VV012 RMK WIND 670FT 13012KT

ENVA Flight Activity (Flightaware)

Listeners: 1 out of 1246 total

Trondheim Approach: 118.600
Trondheim Ground: 121.600
Trondheim Tower: 119.400

EPGD Tower/Approach (Archives)
Gdansk, Poland

Feed Status: UP
Listen in your browser - HTML5 player(in browser, HTML5)
Click here to listen with your own player(launches your MP3 player)

EPGD 211400Z 09005KT 6000 -SN OVC002 00/M00 Q1018

EPGD Flight Activity (Flightaware)

Listeners: 2 out of 1246 total

Gdansk Approach: 127.275
Gdansk Tower: 118.100

EPKK Tower/App (Archives)
Krakow, Poland

Feed Status: UP
Listen in your browser - HTML5 player(in browser, HTML5)
Click here to listen with your own player(launches your MP3 player)

EPKK 211400Z 24015KT 9999 BKN040 09/02 Q1021

EPKK Flight Activity (Flightaware)

Listeners: 0 out of 1246 total

Krakow Approach: 121.075
Krakow Approach: 123.258
Krakow Tower: 123.250

EPKR CTAF (Archives)
Krosno, Poland

Feed Status: UP
Listen in your browser - HTML5 player(in browser, HTML5)
Click here to listen with your own player(launches your MP3 player)

EPKR Flight Activity (Flightaware)

Listeners: 0 out of 1246 total

Krosno CTAF: 122.400

EPKT Del/Twr/App (Archives)
Katowice, Poland

Feed Status: UP
Listen in your browser - HTML5 player(in browser, HTML5)
Click here to listen with your own player(launches your MP3 player)

EPKT 211400Z 28009KT 5000 -RA BR FEW016 BKN020 06/04 Q1022

EPKT Flight Activity (Flightaware)

Listeners: 0 out of 1246 total

Katowice Delivery: 121.800
Katowice Tower: 129.250
Krakow Approach: 135.400
Krakow Approach: 121.075

EPKT Delivery/Approach (Archives)
Katowice, Poland

Feed Status: UP
Listen in your browser - HTML5 player(in browser, HTML5)
Click here to listen with your own player(launches your MP3 player)

EPKT 211400Z 28009KT 5000 -RA BR FEW016 BKN020 06/04 Q1022

EPKT Flight Activity (Flightaware)

Listeners: 0 out of 1246 total

Katowice Delivery: 121.800
Krakow Approach: 121.075

EPKT Tower/Approach (Archives)
Katowice, Poland

Feed Status: UP
Listen in your browser - HTML5 player(in browser, HTML5)
Click here to listen with your own player(launches your MP3 player)

EPKT 211400Z 28009KT 5000 -RA BR FEW016 BKN020 06/04 Q1022

EPKT Flight Activity (Flightaware)

Listeners: 0 out of 1246 total

Katowice Tower: 129.250
Krakow Approach: 135.400

EPLL Tower (Archives)
Lodz, Poland

Feed Status: UP
Listen in your browser - HTML5 player(in browser, HTML5)
Click here to listen with your own player(launches your MP3 player)

EPLL 211400Z 24011KT 4000 -RA BR SCT007 BKN009 05/04 Q1020

EPLL Flight Activity (Flightaware)

Listeners: 0 out of 1246 total

Lodz Tower: 124.230

EPPO Twr/App/FIS (Archives)
Poznan, Poland

Feed Status: UP
Listen in your browser - HTML5 player(in browser, HTML5)
Click here to listen with your own player(launches your MP3 player)

EPPO 211400Z 26009KT 8000 BKN009 07/06 Q1020 R10/29//95

EPPO Flight Activity (Flightaware)

Listeners: 3 out of 1246 total

Poznan Approach: 129.025
Poznan Approach: 127.225
Poznan FIS: 126.300
Poznan Tower: 119.975

Sponsored by: GearUp!

EPRZ Del/Twr/EPWW Radar (Archives)
Jasionka, Poland

Feed Status: UP
Listen in your browser - HTML5 player(in browser, HTML5)
Click here to listen with your own player(launches your MP3 player)

EPRZ 211400Z 26014KT 9999 BKN033 09/01 Q1020

EPRZ Flight Activity (Flightaware)

Listeners: 2 out of 1246 total

EPWW Radar: 134.175
EPWW Radar: 120.950
Rzeszow Delivery: 121.800
Rzeszow Tower: 126.800

EPWA Approach #1 (Archives)
Warsaw, Poland

Feed Status: UP
Listen in your browser - HTML5 player(in browser, HTML5)
Click here to listen with your own player(launches your MP3 player)

EPWA 211400Z 28009KT 240V310 6000 -RA BKN007 BKN014 06/05 Q1018 TEMPO 4000 RA BR

EPWA Flight Activity (Flightaware)

Listeners: 10 out of 1246 total

Warsaw Approach: 128.800

EPWA Approach #2 (Archives)
Warsaw, Poland

Feed Status: UP
Listen in your browser - HTML5 player(in browser, HTML5)
Click here to listen with your own player(launches your MP3 player)

EPWA 211400Z 28009KT 240V310 6000 -RA BKN007 BKN014 06/05 Q1018 TEMPO 4000 RA BR

EPWA Flight Activity (Flightaware)

Listeners: 0 out of 1246 total

Warsaw Approach: 125.050

EPWA Clearance Delivery (Archives)
Warsaw, Poland

Feed Status: UP
Listen in your browser - HTML5 player(in browser, HTML5)
Click here to listen with your own player(launches your MP3 player)

EPWA 211400Z 28009KT 240V310 6000 -RA BKN007 BKN014 06/05 Q1018 TEMPO 4000 RA BR

EPWA Flight Activity (Flightaware)

Listeners: 1 out of 1246 total

Warsaw Clearance Delivery: 121.600

EPWA Director (Archives)
Warsaw, Poland

Feed Status: UP
Listen in your browser - HTML5 player(in browser, HTML5)
Click here to listen with your own player(launches your MP3 player)

EPWA 211400Z 28009KT 240V310 6000 -RA BKN007 BKN014 06/05 Q1018 TEMPO 4000 RA BR

EPWA Flight Activity (Flightaware)

Listeners: 0 out of 1246 total

Warsaw Director: 129.375

EPWA Ground (Archives)
Warsaw, Poland

Feed Status: UP
Listen in your browser - HTML5 player(in browser, HTML5)
Click here to listen with your own player(launches your MP3 player)

EPWA 211400Z 28009KT 240V310 6000 -RA BKN007 BKN014 06/05 Q1018 TEMPO 4000 RA BR

EPWA Flight Activity (Flightaware)

Listeners: 2 out of 1246 total

Warsaw Ground: 121.900

EPWA Tower #1 (Archives)
Warsaw, Poland

Feed Status: UP
Listen in your browser - HTML5 player(in browser, HTML5)
Click here to listen with your own player(launches your MP3 player)

EPWA 211400Z 28009KT 240V310 6000 -RA BKN007 BKN014 06/05 Q1018 TEMPO 4000 RA BR

EPWA Flight Activity (Flightaware)

Listeners: 2 out of 1246 total

Warsaw Tower: 118.300

EPWA Tower #2 (Archives)
Warsaw, Poland

Feed Status: UP
Listen in your browser - HTML5 player(in browser, HTML5)
Click here to listen with your own player(launches your MP3 player)

EPWA 211400Z 28009KT 240V310 6000 -RA BKN007 BKN014 06/05 Q1018 TEMPO 4000 RA BR

EPWA Flight Activity (Flightaware)

Listeners: 1 out of 1246 total

Warsaw Tower: 118.300

Audio provided by: datahouse.pl

EPWR Tower (Archives)
Wroclaw, Poland

Feed Status: UP
Listen in your browser - HTML5 player(in browser, HTML5)
Click here to listen with your own player(launches your MP3 player)

EPWR 211400Z 28009KT 8000 -RA BKN024 07/05 Q1023

EPWR Flight Activity (Flightaware)

Listeners: 0 out of 1246 total

Wroclaw Tower: 120.250

EPWR Twr/App (Archives)
Wroclaw, Poland

Feed Status: UP
Listen in your browser - HTML5 player(in browser, HTML5)
Click here to listen with your own player(launches your MP3 player)

EPPO 211400Z 26009KT 8000 BKN009 07/06 Q1020 R10/29//95

EPPO Flight Activity (Flightaware)

Listeners: 2 out of 1246 total

Poznan Approach (South): 127.225

EPWS AFIS (Archives)
Wroclaw, Poland

Feed Status: UP
Listen in your browser - HTML5 player(in browser, HTML5)
Click here to listen with your own player(launches your MP3 player)

EPWS Flight Activity (Flightaware)

Listeners: 0 out of 1246 total

Szymanow Radio AFIS: 122.800

EPRZ Del/Twr/EPWW Radar (Archives)
Jasionka, Poland

Feed Status: UP
Listen in your browser - HTML5 player(in browser, HTML5)
Click here to listen with your own player(launches your MP3 player)

EPRZ 211400Z 26014KT 9999 BKN033 09/01 Q1020

EPRZ Flight Activity (Flightaware)

Listeners: 2 out of 1246 total

EPWW Radar: 134.175
EPWW Radar: 120.950
Rzeszow Delivery: 121.800
Rzeszow Tower: 126.800

ESGG Gnd/Twr/Control (Archives)
Gothenburg, Sweden

Feed Status: UP
Listen in your browser - HTML5 player(in browser, HTML5)
Click here to listen with your own player(launches your MP3 player)

ESGG 211420Z 31004KT 2500 BR VV004 05/04 Q1016 R03/29//95

ESGG Flight Activity (Flightaware)

Listeners: 3 out of 1246 total

Emergency/Guard: 121.500
Goteborg Arrival: 120.125
Goteborg Control: 124.675
Goteborg Control: 124.200
Landvetter Ground: 121.900
Landvetter Tower: 118.605

ESMS Tower
Svedala, Sweden

Feed Status: DOWN
Offline since: 2019-02-14 10:50:05 UTC

ESMS 211420Z 28007KT 2000 BR OVC003 07/07 Q1018 R17/29//95

Malmo Tower: 118.800

ESPA Twr/Control (Archives)
Lulea, Sweden

Feed Status: UP
Listen in your browser - HTML5 player(in browser, HTML5)
Click here to listen with your own player(launches your MP3 player)

ESPA 211420Z 33001KT CAVOK M11/M17 Q1028

ESPA Flight Activity (Flightaware)

Listeners: 1 out of 1246 total

Emergency/Guard: 121.500
Kallax Control: 125.450
Kallax Tower: 128.200
Sweden Control North: 131.050

ESSG Misc (Archives)
Ludvika, Sweden

Feed Status: UP
Listen in your browser - HTML5 player(in browser, HTML5)
Click here to listen with your own player(launches your MP3 player)

ESSG Flight Activity (Flightaware)

Listeners: 1 out of 1246 total

Avesta, Gagnef, Siljansnas: 123.550
Borlange Tower: 127.300
Dala-Jarna: 123.350
Emergency/Guard: 121.500
Karlstad: 119.450
Koping, Arboga, Borberg: 123.150
Ludvika CTAF: 122.100
Mora: 129.850
Orebro: 120.275
Orsa: 123.400
Soaring Freq: 123.500
Sweden Control: 131.125
Sweden Control: 129.175
Sweden Control: 118.200
Sweden Control: 132.150

ESSL Twr/App/Control (Archives)
Linkoping, Sweden

Feed Status: UP
Listen in your browser - HTML5 player(in browser, HTML5)
Click here to listen with your own player(launches your MP3 player)

ESSL 211420Z 10013KT 4000 SG FEW003 BKN005 OVC010 M01/M02 Q1022 R29/29//95

ESSL Flight Activity (Flightaware)

Listeners: 1 out of 1246 total

Emergency/Guard: 121.500
Linkoping Tower: 118.800
Linkoping Tower (Secondary): 123.400
Ostgota Control: 127.350
Ostgota Control: 126.400
Ostgota Control: 135.850
Ostgota Control: 132.950
Ostgota Control: 128.700
Ostgota Control (Malmen Sector): 133.100
Ostgota Control/Sweden Control: 118.400

ESVQ CTAF (Archives)
Koping, Sweden

Feed Status: UP
Listen in your browser - HTML5 player(in browser, HTML5)
Click here to listen with your own player(launches your MP3 player)

ESVQ Flight Activity (Flightaware)

Listeners: 0 out of 1246 total

Koping CTAF: 123.150

EVRA Approach (Archives)
Riga, Latvia

Feed Status: UP
Listen in your browser - HTML5 player(in browser, HTML5)
Click here to listen with your own player(launches your MP3 player)

EVRA 211420Z 36011KT CAVOK M03/M10 Q1022 R36/190095 NOSIG

EVRA Flight Activity (Flightaware)

Listeners: 0 out of 1246 total

Riga Approach: 129.925

EVRA CTAF (Archives)
Riga, Latvia

Feed Status: UP
Listen in your browser - HTML5 player(in browser, HTML5)
Click here to listen with your own player(launches your MP3 player)

EVRA 211420Z 36011KT CAVOK M03/M10 Q1022 R36/190095 NOSIG

EVRA Flight Activity (Flightaware)

Listeners: 0 out of 1246 total

Riga Approach (evenings): 134.850
Riga CTAF: 123.950

EVRA FIC (Archives)
Riga, Latvia

Feed Status: UP
Listen in your browser - HTML5 player(in browser, HTML5)
Click here to listen with your own player(launches your MP3 player)

EVRA 211420Z 36011KT CAVOK M03/M10 Q1022 R36/190095 NOSIG

EVRA Flight Activity (Flightaware)

Listeners: 0 out of 1246 total

Riga FIC: 120.225

EVRA Tower/Guard (Archives)
Riga, Latvia

Feed Status: UP
Listen in your browser - HTML5 player(in browser, HTML5)
Click here to listen with your own player(launches your MP3 player)

EVRA 211420Z 36011KT CAVOK M03/M10 Q1022 R36/190095 NOSIG

EVRA Flight Activity (Flightaware)

Listeners: 1 out of 1246 total

Emergency/Guard: 121.500
Riga Tower: 118.100

EYKA Gnd/Twr/FIS
Kaunas, Lithuania

Feed Status: DOWN
Offline since: 2019-01-21 19:46:02 UTC

EYKA 211420Z 35005KT 300V020 CAVOK M01/M12 Q1021 R08/190095

EYKS (ALEKSOTAS) Info: 135.500
Kaunas Approach: 124.200
Kaunas Info: 124.600
Kaunas Tower: 118.500

EYVI Twr/App/Misc (Archives)
Vilnius, Lithuania

Feed Status: UP
Listen in your browser - HTML5 player(in browser, HTML5)
Click here to listen with your own player(launches your MP3 player)

EYVI 211420Z 02010KT CAVOK M02/M16 Q1019 R01/1///95 NOSIG

EYVI Flight Activity (Flightaware)

Listeners: 1 out of 1246 total

Emergency / GUARD: 121.500
FlyLAL, AirBaltic transit services: 131.900
FlyLAL, AirBaltic transit services: 131.600
FlyLAL, AirBaltic transit services: 131.500
Kaunas Approach (EYKA): 124.200
Vilnius Approach: 120.700
Vilnius Control: 132.275
Vilnius Control: 133.425
Vilnius Control: 133.300
Vilnius FIS: 123.850
Vilnius Tower: 118.200
Zokniai A/G (mil): 122.775

EYVP CTAF (Archives)
Paluknys, Lithuania

Feed Status: UP
Listen in your browser - HTML5 player(in browser, HTML5)
Click here to listen with your own player(launches your MP3 player)

EYVP Flight Activity (Flightaware)

Listeners: 0 out of 1246 total

EYVP Paluknis CTAF: 119.100

FIMP Twr/App/Ctr #1 (Archives)
Plaine Magnien, Mauritius

Feed Status: UP
Listen in your browser - HTML5 player(in browser, HTML5)
Click here to listen with your own player(launches your MP3 player)

FIMP 211400Z 04010KT 9999 VCSH FEW013CB SCT014 BKN250 29/24 Q1014


Listeners: 4 out of 1246 total

FIMP Approach: 119.100
FIMP Tower: 118.100
FMEE Approach/Departure: 127.200
Mauritius Centre: 129.300

FIMP Twr/App/Ctr #2 (Archives)
Plaine Magnien, Mauritius

Feed Status: UP
Listen in your browser - HTML5 player(in browser, HTML5)
Click here to listen with your own player(launches your MP3 player)

FIMP 211400Z 04010KT 9999 VCSH FEW013CB SCT014 BKN250 29/24 Q1014


Listeners: 0 out of 1246 total

FIMP Approach: 119.100
FIMP Tower: 118.100
Mauritius Centre: 129.300

FMEE Tower (Archives)
Sainte-Marie, Reunion

Feed Status: UP
Listen in your browser - HTML5 player(in browser, HTML5)
Click here to listen with your own player(launches your MP3 player)

FMEE 211400Z AUTO 04004KT 010V070 9999 FEW022 BKN230 30/24 Q1014 NOSIG


Listeners: 1 out of 1246 total

Gillot Tower: 118.400

FMEP Info (Archives)
Saint-Pierre, Reunion

Feed Status: UP
Listen in your browser - HTML5 player(in browser, HTML5)
Click here to listen with your own player(launches your MP3 player)

FMEP 211400Z AUTO 12008KT 9999 BKN040 30/25 Q1013 TEMPO 4500 SHRA FEW010CB


Listeners: 0 out of 1246 total

Saint-Pierre Info: 122.400

FMMI Twr/App/Center (Archives)
Antananarivo, Madagascar

Feed Status: UP
Listen in your browser - HTML5 player(in browser, HTML5)
Click here to listen with your own player(launches your MP3 player)

FMMI 211400Z 30009KT 240V340 9999 SCT023CB 28/17 Q1017 NOSIG


Listeners: 0 out of 1246 total

Ivato Approach: 125.700
Ivato Tower: 120.100
Tana Control: 128.900

LATI Twr/App/ACC (Archives)
Tirana, Albania

Feed Status: UP
Listen in your browser - HTML5 player(in browser, HTML5)
Click here to listen with your own player(launches your MP3 player)

LATI 211420Z 33011KT CAVOK 18/02 Q1023 NOSIG

LATI Flight Activity (Flightaware)

Listeners: 0 out of 1246 total

Tirana Approach/Departure: 133.150
Tirana Approach/Departure: 131.075
Tirana Tower: 122.500
Tirana Tower: 123.500

LBBG Twr/App (Archives)
Burgas, Bulgaria

Feed Status: UP
Listen in your browser - HTML5 player(in browser, HTML5)
Click here to listen with your own player(launches your MP3 player)

LBBG 211430Z 13008KT CAVOK 10/03 Q1024 NOSIG

LBBG Flight Activity (Flightaware)

Listeners: 0 out of 1246 total

Burgas Approach: 125.100
Burgas Tower: 118.000

LBSF Sofia Control East (Archives)
Sofia, Bulgaria

Feed Status: UP
Listen in your browser - HTML5 player(in browser, HTML5)
Click here to listen with your own player(launches your MP3 player)

LBSF 211430Z 28010KT CAVOK 10/M04 Q1023 NOSIG

LBSF Flight Activity (Flightaware)

Listeners: 1 out of 1246 total

Sofia Control (East/Middle Sector): 129.100
Sofia Control (Varna Sector): 134.700

LBSF Twr/App #1 (Archives)
Sofia, Bulgaria

Feed Status: UP
Listen in your browser - HTML5 player(in browser, HTML5)
Click here to listen with your own player(launches your MP3 player)

LBSF 211430Z 28010KT CAVOK 10/M04 Q1023 NOSIG

LBSF Flight Activity (Flightaware)

Listeners: 2 out of 1246 total

Sofia Approach: 123.700
Sofia Approach: 129.900
Sofia Tower: 118.100
Sofia Tower: 120.200

LBSF Twr/App #2 (Archives)
Sofia, Bulgaria

Feed Status: UP
Listen in your browser - HTML5 player(in browser, HTML5)
Click here to listen with your own player(launches your MP3 player)

LBSF 211430Z 28010KT CAVOK 10/M04 Q1023 NOSIG

LBSF Flight Activity (Flightaware)

Listeners: 1 out of 1246 total

Sofia Approach: 123.700
Sofia Tower: 118.100

LBWN Tower/Approach (Archives)
Varna, Bulgaria

Feed Status: UP
Listen in your browser - HTML5 player(in browser, HTML5)
Click here to listen with your own player(launches your MP3 player)

LBWN 211430Z 10008KT CAVOK 10/M01 Q1023 NOSIG

LBWN Flight Activity (Flightaware)

Listeners: 0 out of 1246 total

Varna Approach: 121.000
Varna Tower: 119.500

Bordeaux Control (Archives)
Bordeaux, France

Feed Status: UP
Listen in your browser - HTML5 player(in browser, HTML5)
Click here to listen with your own player(launches your MP3 player)

LFBD 211400Z AUTO 11004KT 080V150 CAVOK 19/07 Q1027 NOSIG

LFBD Flight Activity (Flightaware)

Listeners: 8 out of 1246 total

Air to Air: 123.450
Bordeaux Control BN FL<300: 127.675
Bordeaux Control L3 FL>300: 134.250
Bordeaux Control R2 FL>300: 133.575
Emergency/Guard: 121.500

NOTE: In case of garbled sound, please refresh the player.

LFBU/LFBL Tower
Limoges, France

Feed Status: DOWN
Offline since: 2018-11-19 20:05:05 UTC

LFBU 211400Z AUTO VRB03KT CAVOK 18/06 Q1028 NOSIG

LFBL Limoges Tower: 124.055
LFBU Angouleme Tower: 123.150
Medoc: 124.325

Bordeaux Control (Archives)
Angouleme, France

Feed Status: UP
Listen in your browser - HTML5 player(in browser, HTML5)
Click here to listen with your own player(launches your MP3 player)

LFBD 211400Z AUTO 11004KT 080V150 CAVOK 19/07 Q1027 NOSIG

LFBD Flight Activity (Flightaware)

Listeners: 8 out of 1246 total

Air to Air: 123.450
Bordeaux Control BN FL<300: 127.675
Bordeaux Control L3 FL>300: 134.250
Bordeaux Control R2 FL>300: 133.575
Emergency/Guard: 121.500

NOTE: In case of garbled sound, please refresh the player.

LFBZ Tower (Archives)
Biarritz, France

Feed Status: UP
Listen in your browser - HTML5 player(in browser, HTML5)
Click here to listen with your own player(launches your MP3 player)

LFBZ 211400Z AUTO 22005KT 140V280 CAVOK 21/05 Q1026 NOSIG

LFBZ Flight Activity (Flightaware)

Listeners: 0 out of 1246 total


LFLL Tower (Archives)
Lyon, France

Feed Status: UP
Listen in your browser - HTML5 player(in browser, HTML5)
Click here to listen with your own player(launches your MP3 player)

LFLL 211400Z 36004KT 300V050 CAVOK 15/03 Q1028 NOSIG

LFLL Flight Activity (Flightaware)

Listeners: 3 out of 1246 total

Lyon Tower: 120.450

Lyon FIS (Archives)
Lyon, France

Feed Status: UP
Listen in your browser - HTML5 player(in browser, HTML5)
Click here to listen with your own player(launches your MP3 player)

LFLL 211400Z 36004KT 300V050 CAVOK 15/03 Q1028 NOSIG

LFLL Flight Activity (Flightaware)

Listeners: 1 out of 1246 total

Lyon FIS: 135.200

LFLP Twr/LFLB App
Annecy, France

Feed Status: DOWN
Offline since: 2019-02-16 15:25:03 UTC

LFLP 211400Z AUTO 29006KT 250V320 CAVOK 15/02 Q1028 NOSIG

Annecy Tower: 118.200
Chambery Approach: 121.200
Chambery Info: 123.700

NOTE: Reception might be deteriorated due to terrain surrounding feed

LFLY Tower (Archives)
Bron, France

Feed Status: UP
Listen in your browser - HTML5 player(in browser, HTML5)
Click here to listen with your own player(launches your MP3 player)

LFLY 211400Z AUTO 35004KT 320V040 CAVOK 16/04 Q1028 NOSIG

LFLY Flight Activity (Flightaware)

Listeners: 5 out of 1246 total

Lyon-Bron Tower: 118.100

Lyon FIS (Archives)
Bron, France

Feed Status: UP
Listen in your browser - HTML5 player(in browser, HTML5)
Click here to listen with your own player(launches your MP3 player)

LFLL 211400Z 36004KT 300V050 CAVOK 15/03 Q1028 NOSIG

LFLL Flight Activity (Flightaware)

Listeners: 1 out of 1246 total

Lyon FIS: 135.200

LFMD Ground/Tower (Archives)
Cannes, France

Feed Status: UP
Listen in your browser - HTML5 player(in browser, HTML5)
Click here to listen with your own player(launches your MP3 player)

LFMD 211400Z AUTO 18006KT CAVOK 15/09 Q1027 NOSIG

LFMD Flight Activity (Flightaware)

Listeners: 0 out of 1246 total

Cannes Ground: 121.800
Cannes Tower: 118.625

LFMN Approach (Archives)
Nice, France

Feed Status: UP
Listen in your browser - HTML5 player(in browser, HTML5)
Click here to listen with your own player(launches your MP3 player)

LFMN 211400Z 20008KT CAVOK 14/09 Q1028 NOSIG

LFMN Flight Activity (Flightaware)

Listeners: 0 out of 1246 total

Nice Approach: 124.175

LFMN Control (High) (Archives)
Nice, France

Feed Status: UP
Listen in your browser - HTML5 player(in browser, HTML5)
Click here to listen with your own player(launches your MP3 player)

LFMN 211400Z 20008KT CAVOK 14/09 Q1028 NOSIG

LFMN Flight Activity (Flightaware)

Listeners: 5 out of 1246 total

Marseille Control Sector K1 (FL245-FL305): 126.780

LFMN FIS/Approach (Archives)
Nice, France

Feed Status: UP
Listen in your browser - HTML5 player(in browser, HTML5)
Click here to listen with your own player(launches your MP3 player)

LFMN 211400Z 20008KT CAVOK 14/09 Q1028 NOSIG

LFMN Flight Activity (Flightaware)

Listeners: 0 out of 1246 total

Nice FIS/Approach (TMA4 NICE 2500ft - FL115): 120.850

LFMN Ground/Tower (Archives)
Nice, France

Feed Status: UP
Listen in your browser - HTML5 player(in browser, HTML5)
Click here to listen with your own player(launches your MP3 player)

LFMN 211400Z 20008KT CAVOK 14/09 Q1028 NOSIG

LFMN Flight Activity (Flightaware)

Listeners: 1 out of 1246 total

Nice Ground: 121.700
Nice Tower: 118.700

LFPO Approach (Archives)
Paris, France

Feed Status: UP
Listen in your browser - HTML5 player(in browser, HTML5)
Click here to listen with your own player(launches your MP3 player)

LFPO 211400Z 18005KT 110V230 9999 FEW033 16/06 Q1028 NOSIG

LFPO Flight Activity (Flightaware)

Listeners: 4 out of 1246 total

Orly Approach: 124.450
Orly Approach: 118.850
Orly Approach: 120.850
Orly Approach: 123.875

LFPO Departure (Archives)
Paris, France

Feed Status: UP
Listen in your browser - HTML5 player(in browser, HTML5)
Click here to listen with your own player(launches your MP3 player)

LFPO 211400Z 18005KT 110V230 9999 FEW033 16/06 Q1028 NOSIG

LFPO Flight Activity (Flightaware)

Listeners: 1 out of 1246 total

Orly Departure: 127.750

LFPO Tower (Archives)
Paris, France

Feed Status: UP
Listen in your browser - HTML5 player(in browser, HTML5)
Click here to listen with your own player(launches your MP3 player)

LFPO 211400Z 18005KT 110V230 9999 FEW033 16/06 Q1028 NOSIG

LFPO Flight Activity (Flightaware)

Listeners: 8 out of 1246 total

Orly Tower: 120.500
Orly Tower: 118.700

LFSB Tower (Archives)
Basel, Switzerland

Feed Status: UP
Listen in your browser - HTML5 player(in browser, HTML5)
Click here to listen with your own player(launches your MP3 player)

LFSB 211400Z 25006KT 200V280 CAVOK 18/01 Q1028 NOSIG

LFSB Flight Activity (Flightaware)

Listeners: 1 out of 1246 total

Mulhouse Tower: 118.300

LFST Approach #1 (Archives)
Strasbourg, France

Feed Status: UP
Listen in your browser - HTML5 player(in browser, HTML5)
Click here to listen with your own player(launches your MP3 player)

LFST 211400Z AUTO VRB02KT CAVOK 15/05 Q1028 NOSIG

LFST Flight Activity (Flightaware)

Listeners: 0 out of 1246 total

Strasbourg Approach: 120.700

LFST Approach #2 (Archives)
Strasbourg, France

Feed Status: UP
Listen in your browser - HTML5 player(in browser, HTML5)
Click here to listen with your own player(launches your MP3 player)

LFST 211400Z AUTO VRB02KT CAVOK 15/05 Q1028 NOSIG

LFST Flight Activity (Flightaware)

Listeners: 0 out of 1246 total

Strasbourg Approach: 119.575

LFST Emergency/Guard (Archives)
Strasbourg, France

Feed Status: UP
Listen in your browser - HTML5 player(in browser, HTML5)
Click here to listen with your own player(launches your MP3 player)

LFST 211400Z AUTO VRB02KT CAVOK 15/05 Q1028 NOSIG

LFST Flight Activity (Flightaware)

Listeners: 0 out of 1246 total

Emergency/Guard: 121.500

LFST Ground (Archives)
Strasbourg, France

Feed Status: UP
Listen in your browser - HTML5 player(in browser, HTML5)
Click here to listen with your own player(launches your MP3 player)

LFST 211400Z AUTO VRB02KT CAVOK 15/05 Q1028 NOSIG

LFST Flight Activity (Flightaware)

Listeners: 0 out of 1246 total

Strasbourg Ground: 121.800

LFST Tower (Archives)
Strasbourg, France

Feed Status: UP
Listen in your browser - HTML5 player(in browser, HTML5)
Click here to listen with your own player(launches your MP3 player)

LFST 211400Z AUTO VRB02KT CAVOK 15/05 Q1028 NOSIG

LFST Flight Activity (Flightaware)

Listeners: 0 out of 1246 total

Strasbourg Tower: 119.250

LGAV App/Radar (Archives)
Athens, Greece

Feed Status: UP
Listen in your browser - HTML5 player(in browser, HTML5)
Click here to listen with your own player(launches your MP3 player)

LGAV 211420Z 07010KT 9999 FEW030 15/07 Q1022 NOSIG

LGAV Flight Activity (Flightaware)

Listeners: 0 out of 1246 total

Athens Approach: 132.975
Athens Information: 130.925
Athens Information: 119.750
Athens Radar (Kerkira-Kefalinia-Paleohora Sectors FL460-FL345): 134.325
Athens Radar (Milos/Sitia Sectors FL460-FL345): 125.200
Athens Radar (Paleohora /Kerkira Sectors FL460-FL345): 133.725
Athens Radar (Paleohora Sector FL460-FL345): 124.625
Athens Radar (Rhodos/Kavos Sector FL460-FL345): 133.325
Emergency/Guard: 121.500
Makedonia Radar (Thessaloniki/Skopelos/Limnos/Kavala Sectors FL460-FL345): 133.575

LGIR Approach (Archives)
Iraklion, Greece

Feed Status: UP
Listen in your browser - HTML5 player(in browser, HTML5)
Click here to listen with your own player(launches your MP3 player)

LGIR 211420Z 33006KT 9999 FEW020 16/10 Q1021 NOSIG

LGIR Flight Activity (Flightaware)

Listeners: 1 out of 1246 total

Iraklion Radar: 123.975

LGIR Ground (Archives)
Iraklion, Greece

Feed Status: UP
Listen in your browser - HTML5 player(in browser, HTML5)
Click here to listen with your own player(launches your MP3 player)

LGIR 211420Z 33006KT 9999 FEW020 16/10 Q1021 NOSIG

LGIR Flight Activity (Flightaware)

Listeners: 1 out of 1246 total

Heraklion Ground: 121.700

LGIR Tower (Archives)
Iraklion, Greece

Feed Status: UP
Listen in your browser - HTML5 player(in browser, HTML5)
Click here to listen with your own player(launches your MP3 player)

LGIR 211420Z 33006KT 9999 FEW020 16/10 Q1021 NOSIG

LGIR Flight Activity (Flightaware)

Listeners: 1 out of 1246 total

Heraklion Tower: 120.850

LHBP Approach #1 (Archives)
Budapest, Hungary

Feed Status: UP
Listen in your browser - HTML5 player(in browser, HTML5)
Click here to listen with your own player(launches your MP3 player)

LHBP 211430Z 30011KT 9999 FEW047 BKN260 12/02 Q1025 NOSIG

LHBP Flight Activity (Flightaware)

Listeners: 3 out of 1246 total

Budapest Approach: 129.700
Budapest Approach: 122.975
Budapest Approach (Upper): 123.860

LHBP Approach #2 (Archives)
Budapest, Hungary

Feed Status: UP
Listen in your browser - HTML5 player(in browser, HTML5)
Click here to listen with your own player(launches your MP3 player)

LHBP 211430Z 30011KT 9999 FEW047 BKN260 12/02 Q1025 NOSIG

LHBP Flight Activity (Flightaware)

Listeners: 1 out of 1246 total

Budapest Approach: 122.975
Budapest Approach (Upper): 123.860

LHBP Approach (Director) (Archives)
Budapest, Hungary

Feed Status: UP
Listen in your browser - HTML5 player(in browser, HTML5)
Click here to listen with your own player(launches your MP3 player)

LHBP 211430Z 30011KT 9999 FEW047 BKN260 12/02 Q1025 NOSIG

LHBP Flight Activity (Flightaware)

Listeners: 1 out of 1246 total

Budapest Director: 119.510

LHBP ATIS (Archives)
Budapest, Hungary

Feed Status: UP
Listen in your browser - HTML5 player(in browser, HTML5)
Click here to listen with your own player(launches your MP3 player)

LHBP 211430Z 30011KT 9999 FEW047 BKN260 12/02 Q1025 NOSIG

LHBP Flight Activity (Flightaware)

Listeners: 0 out of 1246 total

Budapest ATIS: 132.380

LHBP Clearance Delivery (Archives)
Budapest, Hungary

Feed Status: UP
Listen in your browser - HTML5 player(in browser, HTML5)
Click here to listen with your own player(launches your MP3 player)

LHBP 211430Z 30011KT 9999 FEW047 BKN260 12/02 Q1025 NOSIG

LHBP Flight Activity (Flightaware)

Listeners: 0 out of 1246 total

Budapest Clearance Delivery: 134.540

LHBP Ground (Archives)
Budapest, Hungary

Feed Status: UP
Listen in your browser - HTML5 player(in browser, HTML5)
Click here to listen with your own player(launches your MP3 player)

LHBP 211430Z 30011KT 9999 FEW047 BKN260 12/02 Q1025 NOSIG

LHBP Flight Activity (Flightaware)

Listeners: 0 out of 1246 total

Budapest Ground: 121.910

LHBP Info (Archives)
Budapest, Hungary

Feed Status: UP
Listen in your browser - HTML5 player(in browser, HTML5)
Click here to listen with your own player(launches your MP3 player)

LHBP 211430Z 30011KT 9999 FEW047 BKN260 12/02 Q1025 NOSIG

LHBP Flight Activity (Flightaware)

Listeners: 0 out of 1246 total

Budapest Info: 119.350

LHBP Tower (Archives)
Budapest, Hungary

Feed Status: UP
Listen in your browser - HTML5 player(in browser, HTML5)
Click here to listen with your own player(launches your MP3 player)

LHBP 211430Z 30011KT 9999 FEW047 BKN260 12/02 Q1025 NOSIG

LHBP Flight Activity (Flightaware)

Listeners: 0 out of 1246 total

Budapest Tower: 118.100

LHBP Twr/Info (Archives)
Budapest, Hungary

Feed Status: UP
Listen in your browser - HTML5 player(in browser, HTML5)
Click here to listen with your own player(launches your MP3 player)

LHBP 211430Z 30011KT 9999 FEW047 BKN260 12/02 Q1025 NOSIG

LHBP Flight Activity (Flightaware)

Listeners: 1 out of 1246 total

Budapest Info: 119.350
Budapest Tower: 118.100

LHCC Control (East/West)
Budapest, Hungary

Feed Status: DOWN
Offline since: 2019-02-21 07:08:03 UTC

LHBP 211430Z 30011KT 9999 FEW047 BKN260 12/02 Q1025 NOSIG

Budapest Control (East Low Sector): 120.375
Budapest Control (West Low Sector): 133.200

LHDC Info/Tower (Archives)
Debrecen, Hungary

Feed Status: UP
Listen in your browser - HTML5 player(in browser, HTML5)
Click here to listen with your own player(launches your MP3 player)

LHDC 211345Z 23010KT CAVOK 11/M04 Q1025 NOSIG

LHDC Flight Activity (Flightaware)

Listeners: 1 out of 1246 total

Debrecen Info/Tower: 125.900

LHEM CTAF (Archives)
Esztergom, Hungary

Feed Status: UP
Listen in your browser - HTML5 player(in browser, HTML5)
Click here to listen with your own player(launches your MP3 player)

LHEM Flight Activity (Flightaware)

Listeners: 0 out of 1246 total

Esztergom CTAF: 126.850

LHPR Info/AFIS (Archives)
Gyor, Hungary

Feed Status: UP
Listen in your browser - HTML5 player(in browser, HTML5)
Click here to listen with your own player(launches your MP3 player)

LHPR 211345Z 30009KT 260V330 9999 FEW040 BKN200 13/03 Q1025 RMK BLU

LHPR Flight Activity (Flightaware)

Listeners: 2 out of 1246 total

Gyor AFIS: 129.910

LJLJ Radar (Archives)
Ljubljana, Slovenia

Feed Status: UP
Listen in your browser - HTML5 player(in browser, HTML5)
Click here to listen with your own player(launches your MP3 player)

LJLJ 211400Z 07004KT 030V100 CAVOK 13/02 Q1025 NOSIG

LJLJ Flight Activity (Flightaware)

Listeners: 1 out of 1246 total

Ljubljana Approach: 135.275

LJLJ Tower (Archives)
Ljubljana, Slovenia

Feed Status: UP
Listen in your browser - HTML5 player(in browser, HTML5)
Click here to listen with your own player(launches your MP3 player)

LJLJ 211400Z 07004KT 030V100 CAVOK 13/02 Q1025 NOSIG

LJLJ Flight Activity (Flightaware)

Listeners: 3 out of 1246 total

Ljubljana Tower: 118.000

LJMB Info/FSS/FIC (Archives)
Maribor, Slovenia

Feed Status: UP
Listen in your browser - HTML5 player(in browser, HTML5)
Click here to listen with your own player(launches your MP3 player)

LJMB 211400Z 18008KT 160V220 CAVOK 14/02 Q1025

LJMB Flight Activity (Flightaware)

Listeners: 0 out of 1246 total

Ljubljana Information FSS/FIC (Maribor Area): 118.475

LJMB Tower/Approach (Archives)
Maribor, Slovenia

Feed Status: UP
Listen in your browser - HTML5 player(in browser, HTML5)
Click here to listen with your own player(launches your MP3 player)

LJMB 211400Z 18008KT 160V220 CAVOK 14/02 Q1025

LJMB Flight Activity (Flightaware)

Listeners: 0 out of 1246 total

Maribor Tower/Approach: 119.200

LJPZ Tower
Secovlje, Slovenia

Feed Status: DOWN
Offline since: 2019-02-21 05:02:02 UTC

LJPZ 211400Z 34005KT 290V010 4000 HZ NSC 12/06 Q1027

Portoroz Tower: 124.875

LKPM Tower (Archives)
Pribram, Czech Republic

Feed Status: UP
Listen in your browser - HTML5 player(in browser, HTML5)
Click here to listen with your own player(launches your MP3 player)

METAR NOT AVAILABLE

LKPM Flight Activity (Flightaware)

Listeners: 0 out of 1246 total

Pribram Tower: 118.750

LKAA FIR (High) (Archives)
Prague, Czech Republic

Feed Status: UP
Listen in your browser - HTML5 player(in browser, HTML5)
Click here to listen with your own player(launches your MP3 player)

LKAA Flight Activity (Flightaware)

Listeners: 0 out of 1246 total

LKAA FIR Sector West High / Praha Radar : 132.065

LKAA FIR (Low) (Archives)
Prague, Czech Republic

Feed Status: UP
Listen in your browser - HTML5 player(in browser, HTML5)
Click here to listen with your own player(launches your MP3 player)

LKAA Flight Activity (Flightaware)

Listeners: 1 out of 1246 total

LKAA FIR Sector West Low / Praha Radar: 120.275

LKPR Approach (Archives)
Prague, Czech Republic

Feed Status: UP
Listen in your browser - HTML5 player(in browser, HTML5)
Click here to listen with your own player(launches your MP3 player)

LKPR 211400Z 24008KT 9999 SCT028 09/03 Q1024 NOSIG

LKPR Flight Activity (Flightaware)

Listeners: 2 out of 1246 total

Prague Approach/Radar: 127.580

LKPR Clearance Del (Archives)
Prague, Czech Republic

Feed Status: UP
Listen in your browser - HTML5 player(in browser, HTML5)
Click here to listen with your own player(launches your MP3 player)

LKPR 211400Z 24008KT 9999 SCT028 09/03 Q1024 NOSIG

LKPR Flight Activity (Flightaware)

Listeners: 0 out of 1246 total


LKPR Director/Ruzyne Radar (Archives)
Prague, Czech Republic

Feed Status: UP
Listen in your browser - HTML5 player(in browser, HTML5)
Click here to listen with your own player(launches your MP3 player)

LKPR 211400Z 24008KT 9999 SCT028 09/03 Q1024 NOSIG

LKPR Flight Activity (Flightaware)

Listeners: 0 out of 1246 total

Prague Director/Ruzyne Radar: 119.010

NOTE: Only active during peak times, typically 2-6PM local time (CET)

LKPR Ground (Archives)
Prague, Czech Republic

Feed Status: UP
Listen in your browser - HTML5 player(in browser, HTML5)
Click here to listen with your own player(launches your MP3 player)

LKPR 211400Z 24008KT 9999 SCT028 09/03 Q1024 NOSIG

LKPR Flight Activity (Flightaware)

Listeners: 2 out of 1246 total

Prague/Ruzyne Clearance Delivery: 120.060
Prague/Ruzyne Ground: 121.910

LKPR Tower (Archives)
Prague, Czech Republic

Feed Status: UP
Listen in your browser - HTML5 player(in browser, HTML5)
Click here to listen with your own player(launches your MP3 player)

LKPR 211400Z 24008KT 9999 SCT028 09/03 Q1024 NOSIG

LKPR Flight Activity (Flightaware)

Listeners: 4 out of 1246 total

Prague/Ruzyne Tower: 134.560

LKTB Gnd/Twr/Radar (Archives)
Brno, Czech Republic

Feed Status: UP
Listen in your browser - HTML5 player(in browser, HTML5)
Click here to listen with your own player(launches your MP3 player)

LKTB 211400Z VRB01KT 9999 FEW040 11/01 Q1024 NOSIG

LKTB Flight Activity (Flightaware)

Listeners: 1 out of 1246 total

Brno Ground: 125.425
Brno Handling: 131.800
Brno Radar (Approach): 127.350
Brno Tower: 119.600

LOWG Approach (Archives)
Graz, Austria

Feed Status: UP
Listen in your browser - HTML5 player(in browser, HTML5)
Click here to listen with your own player(launches your MP3 player)

LOWG 211420Z 19004KT 120V230 9999 FEW060 14/03 Q1025 NOSIG

LOWG Flight Activity (Flightaware)

Listeners: 0 out of 1246 total

Graz Approach: 119.300

LOWG Tower (Archives)
Graz, Austria

Feed Status: UP
Listen in your browser - HTML5 player(in browser, HTML5)
Click here to listen with your own player(launches your MP3 player)

LOWG 211420Z 19004KT 120V230 9999 FEW060 14/03 Q1025 NOSIG

LOWG Flight Activity (Flightaware)

Listeners: 0 out of 1246 total

Graz Tower: 118.200

LOWG Twr/App (Archives)
Graz, Austria

Feed Status: UP
Listen in your browser - HTML5 player(in browser, HTML5)
Click here to listen with your own player(launches your MP3 player)

LOWG 211420Z 19004KT 120V230 9999 FEW060 14/03 Q1025 NOSIG

LOWG Flight Activity (Flightaware)

Listeners: 6 out of 1246 total

Graz Approach: 119.300
Graz Tower: 118.200

LOWL Radar (Archives)
Linz, Austria

Feed Status: UP
Listen in your browser - HTML5 player(in browser, HTML5)
Click here to listen with your own player(launches your MP3 player)

LOWL 211420Z 30011KT 9999 FEW026 SCT040 BKN090 10/04 Q1027 NOSIG

LOWL Flight Activity (Flightaware)

Listeners: 0 out of 1246 total


LOWL Tower (Archives)
Linz, Austria

Feed Status: UP
Listen in your browser - HTML5 player(in browser, HTML5)
Click here to listen with your own player(launches your MP3 player)

LOWL 211420Z 30011KT 9999 FEW026 SCT040 BKN090 10/04 Q1027 NOSIG

LOWL Flight Activity (Flightaware)

Listeners: 0 out of 1246 total


LOWL Tower/Radar (Archives)
Linz, Austria

Feed Status: UP
Listen in your browser - HTML5 player(in browser, HTML5)
Click here to listen with your own player(launches your MP3 player)

LOWL 211420Z 30011KT 9999 FEW026 SCT040 BKN090 10/04 Q1027 NOSIG

LOWL Flight Activity (Flightaware)

Listeners: 0 out of 1246 total


LOWW ACC 118.730 (Archives)
Vienna, Austria

Feed Status: UP
Listen in your browser - HTML5 player(in browser, HTML5)
Click here to listen with your own player(launches your MP3 player)

LOWW 211420Z 32005KT 270V040 9999 FEW050 BKN120 BKN300 14/03 Q1025 NOSIG

LOWW Flight Activity (Flightaware)

Listeners: 0 out of 1246 total

Vienna ACC: 118.730

LOWW ACC 119.880 (Archives)
Vienna, Austria

Feed Status: UP
Listen in your browser - HTML5 player(in browser, HTML5)
Click here to listen with your own player(launches your MP3 player)

LOWW 211420Z 32005KT 270V040 9999 FEW050 BKN120 BKN300 14/03 Q1025 NOSIG

LOWW Flight Activity (Flightaware)

Listeners: 0 out of 1246 total

Vienna ACC: 119.880

LOWW ACC 132.600 (Archives)
Vienna, Austria

Feed Status: UP
Listen in your browser - HTML5 player(in browser, HTML5)
Click here to listen with your own player(launches your MP3 player)

LOWW 211420Z 32005KT 270V040 9999 FEW050 BKN120 BKN300 14/03 Q1025 NOSIG

LOWW Flight Activity (Flightaware)

Listeners: 0 out of 1246 total

Vienna ACC: 132.600

LOWW ACC 134.350 (Archives)
Vienna, Austria

Feed Status: UP
Listen in your browser - HTML5 player(in browser, HTML5)
Click here to listen with your own player(launches your MP3 player)

LOWW 211420Z 32005KT 270V040 9999 FEW050 BKN120 BKN300 14/03 Q1025 NOSIG

LOWW Flight Activity (Flightaware)

Listeners: 0 out of 1246 total

Vienna ACC: 134.350

LOWW ATIS (Arrival) (Archives)
Vienna, Austria

Feed Status: UP
Listen in your browser - HTML5 player(in browser, HTML5)
Click here to listen with your own player(launches your MP3 player)

LOWW 211420Z 32005KT 270V040 9999 FEW050 BKN120 BKN300 14/03 Q1025 NOSIG

LOWW Flight Activity (Flightaware)

Listeners: 0 out of 1246 total

Vienna Arrival ATIS: 122.955

LOWW ATIS (Departure) (Archives)
Vienna, Austria

Feed Status: UP
Listen in your browser - HTML5 player(in browser, HTML5)
Click here to listen with your own player(launches your MP3 player)

LOWW 211420Z 32005KT 270V040 9999 FEW050 BKN120 BKN300 14/03 Q1025 NOSIG

LOWW Flight Activity (Flightaware)

Listeners: 0 out of 1246 total

Vienna Departure ATIS: 121.730

LOWW Balloon (Archives)
Vienna, Austria

Feed Status: UP
Listen in your browser - HTML5 player(in browser, HTML5)
Click here to listen with your own player(launches your MP3 player)

LOWW 211420Z 32005KT 270V040 9999 FEW050 BKN120 BKN300 14/03 Q1025 NOSIG

LOWW Flight Activity (Flightaware)

Listeners: 0 out of 1246 total

Vienna Balloon: 122.255

LOWW Clearance Delivery (Archives)
Vienna, Austria

Feed Status: UP
Listen in your browser - HTML5 player(in browser, HTML5)
Click here to listen with your own player(launches your MP3 player)

LOWW 211420Z 32005KT 270V040 9999 FEW050 BKN120 BKN300 14/03 Q1025 NOSIG

LOWW Flight Activity (Flightaware)

Listeners: 0 out of 1246 total

Vienna Clearance Delivery: 121.125

LOWW Director 119.800 (Archives)
Vienna, Austria

Feed Status: UP
Listen in your browser - HTML5 player(in browser, HTML5)
Click here to listen with your own player(launches your MP3 player)

LOWW 211420Z 32005KT 270V040 9999 FEW050 BKN120 BKN300 14/03 Q1025 NOSIG

LOWW Flight Activity (Flightaware)

Listeners: 0 out of 1246 total

Vienna Director: 119.800

LOWW Director 134.125 (Archives)
Vienna, Austria

Feed Status: UP
Listen in your browser - HTML5 player(in browser, HTML5)
Click here to listen with your own player(launches your MP3 player)

LOWW 211420Z 32005KT 270V040 9999 FEW050 BKN120 BKN300 14/03 Q1025 NOSIG

LOWW Flight Activity (Flightaware)

Listeners: 0 out of 1246 total

Vienna Director: 134.125

LOWW FIS (North) (Archives)
Vienna, Austria

Feed Status: UP
Listen in your browser - HTML5 player(in browser, HTML5)
Click here to listen with your own player(launches your MP3 player)

LOWW 211420Z 32005KT 270V040 9999 FEW050 BKN120 BKN300 14/03 Q1025 NOSIG

LOWW Flight Activity (Flightaware)

Listeners: 0 out of 1246 total

Vienna Flight Information Service North (via Linz): 134.625

LOWW FIS (South) (Archives)
Vienna, Austria

Feed Status: UP
Listen in your browser - HTML5 player(in browser, HTML5)
Click here to listen with your own player(launches your MP3 player)

LOWW 211420Z 32005KT 270V040 9999 FEW050 BKN120 BKN300 14/03 Q1025 NOSIG

LOWW Flight Activity (Flightaware)

Listeners: 0 out of 1246 total

Vienna Flight Information Service South: 124.400

LOWW FIS East (Archives)
Vienna, Austria

Feed Status: UP
Listen in your browser - HTML5 player(in browser, HTML5)
Click here to listen with your own player(launches your MP3 player)

LOWW 211420Z 32005KT 270V040 9999 FEW050 BKN120 BKN300 14/03 Q1025 NOSIG

LOWW Flight Activity (Flightaware)

Listeners: 0 out of 1246 total

Vienna Flight Information Service East: 118.525

LOWW Ground 121.600 (Archives)
Vienna, Austria

Feed Status: UP
Listen in your browser - HTML5 player(in browser, HTML5)
Click here to listen with your own player(launches your MP3 player)

LOWW 211420Z 32005KT 270V040 9999 FEW050 BKN120 BKN300 14/03 Q1025 NOSIG

LOWW Flight Activity (Flightaware)

Listeners: 0 out of 1246 total

Vienna Ground: 121.600

LOWW Ground 121.775 (Archives)
Vienna, Austria

Feed Status: UP
Listen in your browser - HTML5 player(in browser, HTML5)
Click here to listen with your own player(launches your MP3 player)

LOWW 211420Z 32005KT 270V040 9999 FEW050 BKN120 BKN300 14/03 Q1025 NOSIG

LOWW Flight Activity (Flightaware)

Listeners: 0 out of 1246 total

Vienna Ground: 121.775

LOWW Radar 118.675 (Archives)
Vienna, Austria

Feed Status: UP
Listen in your browser - HTML5 player(in browser, HTML5)
Click here to listen with your own player(launches your MP3 player)

LOWW 211420Z 32005KT 270V040 9999 FEW050 BKN120 BKN300 14/03 Q1025 NOSIG

LOWW Flight Activity (Flightaware)

Listeners: 1 out of 1246 total

Vienna Radar: 118.775

LOWW Radar 125.175 (Archives)
Vienna, Austria

Feed Status: UP
Listen in your browser - HTML5 player(in browser, HTML5)
Click here to listen with your own player(launches your MP3 player)

LOWW 211420Z 32005KT 270V040 9999 FEW050 BKN120 BKN300 14/03 Q1025 NOSIG

LOWW Flight Activity (Flightaware)

Listeners: 0 out of 1246 total

Vienna Radar: 125.175

LOWW Radar 134.675 (Archives)
Vienna, Austria

Feed Status: UP
Listen in your browser - HTML5 player(in browser, HTML5)
Click here to listen with your own player(launches your MP3 player)

LOWW 211420Z 32005KT 270V040 9999 FEW050 BKN120 BKN300 14/03 Q1025 NOSIG

LOWW Flight Activity (Flightaware)

Listeners: 1 out of 1246 total

Vienna Radar: 134.675

LOWW Tower 119.400 (Archives)
Vienna, Austria

Feed Status: UP
Listen in your browser - HTML5 player(in browser, HTML5)
Click here to listen with your own player(launches your MP3 player)

LOWW 211420Z 32005KT 270V040 9999 FEW050 BKN120 BKN300 14/03 Q1025 NOSIG

LOWW Flight Activity (Flightaware)

Listeners: 2 out of 1246 total

Vienna Tower: 119.400

LOWW Tower 123.800 (Archives)
Vienna, Austria

Feed Status: UP
Listen in your browser - HTML5 player(in browser, HTML5)
Click here to listen with your own player(launches your MP3 player)

LOWW 211420Z 32005KT 270V040 9999 FEW050 BKN120 BKN300 14/03 Q1025 NOSIG

LOWW Flight Activity (Flightaware)

Listeners: 1 out of 1246 total

Vienna Tower: 123.800

LOWW Tower 124.475 (Archives)
Vienna, Austria

Feed Status: UP
Listen in your browser - HTML5 player(in browser, HTML5)
Click here to listen with your own player(launches your MP3 player)

LOWW 211420Z 32005KT 270V040 9999 FEW050 BKN120 BKN300 14/03 Q1025 NOSIG

LOWW Flight Activity (Flightaware)

Listeners: 0 out of 1246 total

Vienna Tower: 124.475

Santa Maria Control (Oceanic) (Archives)
Santa Maria Island (Azores), Portugal

Feed Status: UP
Listen in your browser - HTML5 player(in browser, HTML5)
Click here to listen with your own player(launches your MP3 player)

LPAZ 211400Z 22023KT 9999 FEW025 SCT030 17/11 Q1002

LPAZ Flight Activity (Flightaware)

Listeners: 0 out of 1246 total

Emergency/Guard: 121.500
LPHR (Horta) Approach: 120.600
LPLA (Terceira) Approach: 135.000
LPLA (Terceira) Tower: 122.100
LPPD (Ponta Delgada) Approach: 119.400
Ponta Delgada Ground: 131.600
Santa Maria Approach: 119.100
Santa Maria Control: 132.150

LPCS Ground (Archives)
Cascais, Portugal

Feed Status: UP
Listen in your browser - HTML5 player(in browser, HTML5)
Click here to listen with your own player(launches your MP3 player)

LPCS 211400Z 14016KT 9999 FEW030 16/10 Q1023

LPCS Flight Activity (Flightaware)

Listeners: 0 out of 1246 total

Cascais Ground: 121.850

LPCS Tower (Archives)
Cascais, Portugal

Feed Status: UP
Listen in your browser - HTML5 player(in browser, HTML5)
Click here to listen with your own player(launches your MP3 player)

LPCS 211400Z 14016KT 9999 FEW030 16/10 Q1023

LPCS Flight Activity (Flightaware)

Listeners: 1 out of 1246 total

Cascais Tower: 120.300

LPLA Gnd/Twr/App (Archives)
Lajes, Portugal

Feed Status: UP
Listen in your browser - HTML5 player(in browser, HTML5)
Click here to listen with your own player(launches your MP3 player)

LPLA 211424Z /////KT 5000 -RA FEW018CB SCT022 13/10 Q0996

LPLA Flight Activity (Flightaware)

Listeners: 0 out of 1246 total

Lajes Approach: 135.000
Lajes Ground: 121.900
Lajes Tower: 122.100

LPPR Approach (Archives)
Porto, Portugal

Feed Status: UP
Listen in your browser - HTML5 player(in browser, HTML5)
Click here to listen with your own player(launches your MP3 player)

LPPR 211400Z 21006KT 170V230 CAVOK 17/10 Q1023

LPPR Flight Activity (Flightaware)

Listeners: 1 out of 1246 total

Porto Approach: 121.100

LPPT Approach (Archives)
Lisbon, Portugal

Feed Status: UP
Listen in your browser - HTML5 player(in browser, HTML5)
Click here to listen with your own player(launches your MP3 player)

LPPT 211400Z 14010KT 100V190 9999 FEW030 16/10 Q1024

LPPT Flight Activity (Flightaware)

Listeners: 5 out of 1246 total

Lisbon Approach: 119.100

LRCL Twr/App #1 (Archives)
Cluj-Napoca, Romania

Feed Status: UP
Listen in your browser - HTML5 player(in browser, HTML5)
Click here to listen with your own player(launches your MP3 player)

LRCL 211400Z 29008KT 9999 FEW063 09/M07 Q1024

LRCL Flight Activity (Flightaware)

Listeners: 0 out of 1246 total

Cluj Approach: 126.425
Cluj Tower: 134.400

LRCL Twr/App #2 (Archives)
Cluj-Napoca, Romania

Feed Status: UP
Listen in your browser - HTML5 player(in browser, HTML5)
Click here to listen with your own player(launches your MP3 player)

LRCL 211400Z 29008KT 9999 FEW063 09/M07 Q1024

LRCL Flight Activity (Flightaware)

Listeners: 0 out of 1246 total

Cluj Approach: 126.425
Cluj Tower: 134.400

LRCL Twr/App/ACC (Archives)
Cluj-Napoca, Romania

Feed Status: UP
Listen in your browser - HTML5 player(in browser, HTML5)
Click here to listen with your own player(launches your MP3 player)

LRCL 211400Z 29008KT 9999 FEW063 09/M07 Q1024

LRCL Flight Activity (Flightaware)

Listeners: 0 out of 1246 total

Cluj Approach: 126.425
Cluj Tower: 134.400
Napoc ACC: 127.075

LROP Ground (Archives)
Bucharest, Romania

Feed Status: UP
Listen in your browser - HTML5 player(in browser, HTML5)
Click here to listen with your own player(launches your MP3 player)

LROP 211400Z 24010KT CAVOK 13/M01 Q1022 NOSIG

LROP Flight Activity (Flightaware)

Listeners: 0 out of 1246 total

Bucharest Ground: 121.855

LROP Radar (Archives)
Bucharest, Romania

Feed Status: UP
Listen in your browser - HTML5 player(in browser, HTML5)
Click here to listen with your own player(launches your MP3 player)

LROP 211400Z 24010KT CAVOK 13/M01 Q1022 NOSIG

LROP Flight Activity (Flightaware)

Listeners: 1 out of 1246 total

Bucharest Radar (Arges Mid sector): 121.175
Bucharest Radar (Arges Top Sector): 123.265
Bucharest Radar (Lomos Top Sector): 132.865

LROP Tower/Approach (Archives)
Bucharest, Romania

Feed Status: UP
Listen in your browser - HTML5 player(in browser, HTML5)
Click here to listen with your own player(launches your MP3 player)

LROP 211400Z 24010KT CAVOK 13/M01 Q1022 NOSIG

LROP Flight Activity (Flightaware)

Listeners: 1 out of 1246 total

Bucharest Approach: 119.415
Bucharest Director: 127.155
Bucharest Tower: 118.805

LROP Twr/App/Radar (Archives)
Bucharest, Romania

Feed Status: UP
Listen in your browser - HTML5 player(in browser, HTML5)
Click here to listen with your own player(launches your MP3 player)

LROP 211400Z 24010KT CAVOK 13/M01 Q1022 NOSIG

LROP Flight Activity (Flightaware)

Listeners: 5 out of 1246 total

Bucharest Approach: 119.415
Bucharest Director: 127.155
Bucharest Radar (Arges Mid sector): 121.175
Bucharest Radar (Arges Top Sector): 123.265
Bucharest Radar (Lomos Top Sector): 132.865
Bucharest Tower: 118.805

Note: Bucharest Radar on right stereo channel and Bucharest Tower/Approach on left stereo channel.

LRSB Tower/CTAF (Archives)
Sibiu, Romania

Feed Status: UP
Listen in your browser - HTML5 player(in browser, HTML5)
Click here to listen with your own player(launches your MP3 player)

LRSB 211330Z VRB02KT 9999 SCT057 08/M06 Q1024 NOSIG

LRSB Flight Activity (Flightaware)

Listeners: 0 out of 1246 total

Sibiu Tower: 121.305

LRTR Tower (Archives)
Timisoara, Romania

Feed Status: UP
Listen in your browser - HTML5 player(in browser, HTML5)
Click here to listen with your own player(launches your MP3 player)

LRTR 211400Z 35003KT 270V060 CAVOK 11/M02 Q1025 NOSIG

LRTR Flight Activity (Flightaware)

Listeners: 1 out of 1246 total

ARAD Approach: 127.250
Timisoara Tower: 120.100

LSGG App/Radar (Archives)
Geneva, Switzerland

Feed Status: UP
Listen in your browser - HTML5 player(in browser, HTML5)
Click here to listen with your own player(launches your MP3 player)

LSGG 211420Z 08005KT CAVOK 12/M00 Q1028 NOSIG

LSGG Flight Activity (Flightaware)

Listeners: 0 out of 1246 total

Geneva Arrival: 136.250
Swiss Radar (L2 - FL290-FL310): 126.050

LSGG Approach (Archives)
Geneva, Switzerland

Feed Status: UP
Listen in your browser - HTML5 player(in browser, HTML5)
Click here to listen with your own player(launches your MP3 player)

LSGG 211420Z 08005KT CAVOK 12/M00 Q1028 NOSIG

LSGG Flight Activity (Flightaware)

Listeners: 1 out of 1246 total

Geneva Arrival: 136.250

LSGG Radar (Archives)
Geneva, Switzerland

Feed Status: UP
Listen in your browser - HTML5 player(in browser, HTML5)
Click here to listen with your own player(launches your MP3 player)

LSGG 211420Z 08005KT CAVOK 12/M00 Q1028 NOSIG

LSGG Flight Activity (Flightaware)

Listeners: 0 out of 1246 total

Swiss Radar (L2 - FL290-FL310): 126.050

LSGG Tower (Archives)
Geneva, Switzerland

Feed Status: UP
Listen in your browser - HTML5 player(in browser, HTML5)
Click here to listen with your own player(launches your MP3 player)

LSGG 211420Z 08005KT CAVOK 12/M00 Q1028 NOSIG

LSGG Flight Activity (Flightaware)

Listeners: 0 out of 1246 total

Geneva Tower: 118.700

LSGS Gnd/Twr/App (Archives)
Sion, Switzerland

Feed Status: UP
Listen in your browser - HTML5 player(in browser, HTML5)
Click here to listen with your own player(launches your MP3 player)

LSGS 211420Z 23004KT 200V290 CAVOK 15/M04 Q1027

LSGS Flight Activity (Flightaware)

Listeners: 2 out of 1246 total

Alpine Jet Service Handling: 131.675
Sion Airport Handling: 131.475
Sion Approach (IFR ARR MIL OFF): 126.825
Sion Ground: 121.700
Sion Tower: 118.275

LiveATC LSGS - About us

LSMD Tower (Archives)
Dubendorf, Switzerland

Feed Status: UP
Listen in your browser - HTML5 player(in browser, HTML5)
Click here to listen with your own player(launches your MP3 player)

LSZH 211420Z 22004KT 200V280 CAVOK 15/00 Q1028 NOSIG

LSZH Flight Activity (Flightaware)

Listeners: 0 out of 1246 total

Dubendorf Tower: 118.975

LSPM AFIS (Archives)
Ambri, Switzerland

Feed Status: UP
Listen in your browser - HTML5 player(in browser, HTML5)
Click here to listen with your own player(launches your MP3 player)

METAR NOT AVAILABLE

LSPM Flight Activity (Flightaware)

Listeners: 0 out of 1246 total

Ambri AFIS: 118.525

LSZA Tower (Archives)
Agno, Switzerland

Feed Status: UP
Listen in your browser - HTML5 player(in browser, HTML5)
Click here to listen with your own player(launches your MP3 player)

LSZA 211420Z 17004KT 140V220 CAVOK 16/02 Q1025 NOSIG

LSZA Flight Activity (Flightaware)

Listeners: 0 out of 1246 total

Lugano Tower: 120.250

LSZB Tower/App/Dep (Archives)
Bern, Switzerland

Feed Status: UP
Listen in your browser - HTML5 player(in browser, HTML5)
Click here to listen with your own player(launches your MP3 player)

LSZB 211420Z VRB03KT CAVOK 15/00 Q1028 NOSIG

LSZB Flight Activity (Flightaware)

Listeners: 3 out of 1246 total

LSZB Arrival/Departure (left channel): 127.325
LSZB Tower (right channel): 121.025

LSZG Tower (Archives)
Grenchen, Switzerland

Feed Status: UP
Listen in your browser - HTML5 player(in browser, HTML5)
Click here to listen with your own player(launches your MP3 player)

LSZG 211420Z VRB03KT CAVOK 13/02 Q1028 NOSIG

LSZG Flight Activity (Flightaware)

Listeners: 0 out of 1246 total

Grenchen Tower: 120.100

LSZH Approach (East) (Archives)
Zurich, Switzerland

Feed Status: UP
Listen in your browser - HTML5 player(in browser, HTML5)
Click here to listen with your own player(launches your MP3 player)

LSZH 211420Z 22004KT 200V280 CAVOK 15/00 Q1028 NOSIG

LSZH Flight Activity (Flightaware)

Listeners: 3 out of 1246 total

Zurich Approach (East): 135.225

LSZH Approach (West) (Archives)
Zurich, Switzerland

Feed Status: UP
Listen in your browser - HTML5 player(in browser, HTML5)
Click here to listen with your own player(launches your MP3 player)

LSZH 211420Z 22004KT 200V280 CAVOK 15/00 Q1028 NOSIG

LSZH Flight Activity (Flightaware)

Listeners: 1 out of 1246 total

Zurich Approach (West): 118.000

LSZH Apron (South) (Archives)
Zurich, Switzerland

Feed Status: UP
Listen in your browser - HTML5 player(in browser, HTML5)
Click here to listen with your own player(launches your MP3 player)

LSZH 211420Z 22004KT 200V280 CAVOK 15/00 Q1028 NOSIG

LSZH Flight Activity (Flightaware)

Listeners: 0 out of 1246 total

Zurich Apron (South): 121.755

LSZH Apron (West) (Archives)
Zurich, Switzerland

Feed Status: UP
Listen in your browser - HTML5 player(in browser, HTML5)
Click here to listen with your own player(launches your MP3 player)

LSZH 211420Z 22004KT 200V280 CAVOK 15/00 Q1028 NOSIG

LSZH Flight Activity (Flightaware)

Listeners: 0 out of 1246 total

Zurich Apron (West): 121.855

LSZH Clearance Delivery (Archives)
Zurich, Switzerland

Feed Status: UP
Listen in your browser - HTML5 player(in browser, HTML5)
Click here to listen with your own player(launches your MP3 player)

LSZH 211420Z 22004KT 200V280 CAVOK 15/00 Q1028 NOSIG

LSZH Flight Activity (Flightaware)

Listeners: 1 out of 1246 total

Zurich Clearance Delivery: 121.925

LSZH Ground (Archives)
Zurich, Switzerland

Feed Status: UP
Listen in your browser - HTML5 player(in browser, HTML5)
Click here to listen with your own player(launches your MP3 player)

LSZH 211420Z 22004KT 200V280 CAVOK 15/00 Q1028 NOSIG

LSZH Flight Activity (Flightaware)

Listeners: 0 out of 1246 total

Zurich Ground: 121.905

LSZH Radar (Archives)
Zurich, Switzerland

Feed Status: UP
Listen in your browser - HTML5 player(in browser, HTML5)
Click here to listen with your own player(launches your MP3 player)

LSZH 211420Z 22004KT 200V280 CAVOK 15/00 Q1028 NOSIG

LSZH Flight Activity (Flightaware)

Listeners: 3 out of 1246 total

Zurich Radar ACC (-FL240 East): 133.900
Zurich Radar ACC (-FL240 North): 136.150
Zurich Radar ACC (-FL240 South): 128.050
Zurich Radar ACC (-FL240 West): 135.675
Zurich Radar ACC (FL250-280): 133.050
Zurich Radar ACC (FL290-320): 132.815
Zurich Radar ACC (FL330-350): 134.600
Zurich Radar ACC (FL360+): 133.400

LSZH Radar 132.815 (Archives)
Zurich, Switzerland

Feed Status: UP
Listen in your browser - HTML5 player(in browser, HTML5)
Click here to listen with your own player(launches your MP3 player)

LSZH 211420Z 22004KT 200V280 CAVOK 15/00 Q1028 NOSIG

LSZH Flight Activity (Flightaware)

Listeners: 0 out of 1246 total

Zurich Radar: 132.815

LSZH Radar 133.050 (Archives)
Zurich, Switzerland

Feed Status: UP
Listen in your browser - HTML5 player(in browser, HTML5)
Click here to listen with your own player(launches your MP3 player)

LSZH 211420Z 22004KT 200V280 CAVOK 15/00 Q1028 NOSIG

LSZH Flight Activity (Flightaware)

Listeners: 0 out of 1246 total

Zurich Radar: 133.050

LSZH Radar 133.400 (Archives)
Zurich, Switzerland

Feed Status: UP
Listen in your browser - HTML5 player(in browser, HTML5)
Click here to listen with your own player(launches your MP3 player)

LSZH 211420Z 22004KT 200V280 CAVOK 15/00 Q1028 NOSIG

LSZH Flight Activity (Flightaware)

Listeners: 0 out of 1246 total

Zurich Radar: 133.400

LSZH Radar 133.690 (Archives)
Zurich, Switzerland

Feed Status: UP
Listen in your browser - HTML5 player(in browser, HTML5)
Click here to listen with your own player(launches your MP3 player)

LSZH 211420Z 22004KT 200V280 CAVOK 15/00 Q1028 NOSIG

LSZH Flight Activity (Flightaware)

Listeners: 0 out of 1246 total

Zurich Radar: 133.690

LSZH Radar 133.900 (Archives)
Zurich, Switzerland

Feed Status: UP
Listen in your browser - HTML5 player(in browser, HTML5)
Click here to listen with your own player(launches your MP3 player)

LSZH 211420Z 22004KT 200V280 CAVOK 15/00 Q1028 NOSIG

LSZH Flight Activity (Flightaware)

Listeners: 0 out of 1246 total

Zurich Radar (Below FL240 East): 133.900

LSZH Radar 134.600 (Archives)
Zurich, Switzerland

Feed Status: UP
Listen in your browser - HTML5 player(in browser, HTML5)
Click here to listen with your own player(launches your MP3 player)

LSZH 211420Z 22004KT 200V280 CAVOK 15/00 Q1028 NOSIG

LSZH Flight Activity (Flightaware)

Listeners: 1 out of 1246 total

Zurich Radar (FL330-350): 134.600

LSZH Radar 135.675 (Archives)
Zurich, Switzerland

Feed Status: UP
Listen in your browser - HTML5 player(in browser, HTML5)
Click here to listen with your own player(launches your MP3 player)

LSZH 211420Z 22004KT 200V280 CAVOK 15/00 Q1028 NOSIG

LSZH Flight Activity (Flightaware)

Listeners: 0 out of 1246 total


LSZH Radar 136.150 (Archives)
Zurich, Switzerland

Feed Status: UP
Listen in your browser - HTML5 player(in browser, HTML5)
Click here to listen with your own player(launches your MP3 player)

LSZH 211420Z 22004KT 200V280 CAVOK 15/00 Q1028 NOSIG

LSZH Flight Activity (Flightaware)

Listeners: 0 out of 1246 total

Zurich Radar (Below FL240 North): 136.150

LSZH Tower (Archives)
Zurich, Switzerland

Feed Status: UP
Listen in your browser - HTML5 player(in browser, HTML5)
Click here to listen with your own player(launches your MP3 player)

LSZH 211420Z 22004KT 200V280 CAVOK 15/00 Q1028 NOSIG

LSZH Flight Activity (Flightaware)

Listeners: 8 out of 1246 total

Zurich Tower: 118.100

LSZH Tower #3 (Archives)
Zurich, Switzerland

Feed Status: UP
Listen in your browser - HTML5 player(in browser, HTML5)
Click here to listen with your own player(launches your MP3 player)

LSZH 211420Z 22004KT 200V280 CAVOK 15/00 Q1028 NOSIG

LSZH Flight Activity (Flightaware)

Listeners: 1 out of 1246 total

Zurich Tower: 118.100

LSZH Tower (14/32) (Archives)
Zurich, Switzerland

Feed Status: UP
Listen in your browser - HTML5 player(in browser, HTML5)
Click here to listen with your own player(launches your MP3 player)

LSZH 211420Z 22004KT 200V280 CAVOK 15/00 Q1028 NOSIG

LSZH Flight Activity (Flightaware)

Listeners: 0 out of 1246 total

Zurich Tower (Rwy 14 App/32 Takeoff): 120.225

LSZH Twr/Gnd (backup) (Archives)
Zurich, Switzerland

Feed Status: UP
Listen in your browser - HTML5 player(in browser, HTML5)
Click here to listen with your own player(launches your MP3 player)

LSZH 211420Z 22004KT 200V280 CAVOK 15/00 Q1028 NOSIG

LSZH Flight Activity (Flightaware)

Listeners: 0 out of 1246 total

Zurich Twr/Gnd (backup): 119.700

LSZL Tower (Archives)
Locarno, Switzerland

Feed Status: UP
Listen in your browser - HTML5 player(in browser, HTML5)
Click here to listen with your own player(launches your MP3 player)

LSZL Flight Activity (Flightaware)

Listeners: 3 out of 1246 total


LSZR Tower (Archives)
Altenrhein, Switzerland

Feed Status: UP
Listen in your browser - HTML5 player(in browser, HTML5)
Click here to listen with your own player(launches your MP3 player)

LSZR 211420Z VRB02KT CAVOK 11/02 Q1028 NOSIG RMK J

LSZR Flight Activity (Flightaware)

Listeners: 1 out of 1246 total

Altenrhein Tower: 135.425

LSZW CTAF (Archives)
Thun, Switzerland

Feed Status: UP
Listen in your browser - HTML5 player(in browser, HTML5)
Click here to listen with your own player(launches your MP3 player)

LSZW Flight Activity (Flightaware)

Listeners: 0 out of 1246 total

Thun CTAF/Info: 123.250

LTAF Tower/Approach (Archives)
Adana, Turkey

Feed Status: UP
Listen in your browser - HTML5 player(in browser, HTML5)
Click here to listen with your own player(launches your MP3 player)

LTAF 211420Z 25011KT 9999 SCT035 17/09 Q1019 NOSIG

LTAF Flight Activity (Flightaware)

Listeners: 1 out of 1246 total

Adana Approach: 118.300
Adana Tower: 131.100
Adana Tower: 121.100

LTFJ Del/Gnd/Twr #1 (Archives)
Istanbul, Turkey

Feed Status: UP
Listen in your browser - HTML5 player(in browser, HTML5)
Click here to listen with your own player(launches your MP3 player)

LTFJ 211420Z 02014KT 6000 SCT011 BKN090 09/05 Q1023 NOSIG

LTFJ Flight Activity (Flightaware)

Listeners: 1 out of 1246 total

Gokcen Clearance Delivery: 122.625
Gokcen Ground: 121.750
Gokcen Tower: 118.800

LTFJ Del/Gnd/Twr #2 (Archives)
Istanbul, Turkey

Feed Status: UP
Listen in your browser - HTML5 player(in browser, HTML5)
Click here to listen with your own player(launches your MP3 player)

LTFJ 211420Z 02014KT 6000 SCT011 BKN090 09/05 Q1023 NOSIG

LTFJ Flight Activity (Flightaware)

Listeners: 3 out of 1246 total

Gokcen Clearance Delivery: 122.625
Gokcen Ground: 121.750
Gokcen Tower: 118.800

LUKK ACC #1 (Archives)
Chisinau, Moldova

Feed Status: UP
Listen in your browser - HTML5 player(in browser, HTML5)
Click here to listen with your own player(launches your MP3 player)

LUKK 211430Z 33014KT 9999 BKN045 09/M02 Q1020 R26/CLRD// NOSIG

LUKK Flight Activity (Flightaware)

Listeners: 0 out of 1246 total

Chisinau ACC: 130.975

Runway 08 Blog

LUKK ACC #2 (Archives)
Chisinau, Moldova

Feed Status: UP
Listen in your browser - HTML5 player(in browser, HTML5)
Click here to listen with your own player(launches your MP3 player)

LUKK 211430Z 33014KT 9999 BKN045 09/M02 Q1020 R26/CLRD// NOSIG

LUKK Flight Activity (Flightaware)

Listeners: 0 out of 1246 total

Chisinau ACC: 128.975

Runway 08 Blog

LUKK Air to Air (Archives)
Chisinau, Moldova

Feed Status: UP
Listen in your browser - HTML5 player(in browser, HTML5)
Click here to listen with your own player(launches your MP3 player)

LUKK 211430Z 33014KT 9999 BKN045 09/M02 Q1020 R26/CLRD// NOSIG

LUKK Flight Activity (Flightaware)

Listeners: 0 out of 1246 total

Chisinau Air to Air: 123.450

Runway 08 Blog

LUKK Alternate (Archives)
Chisinau, Moldova

Feed Status: UP
Listen in your browser - HTML5 player(in browser, HTML5)
Click here to listen with your own player(launches your MP3 player)

LUKK 211430Z 33014KT 9999 BKN045 09/M02 Q1020 R26/CLRD// NOSIG

LUKK Flight Activity (Flightaware)

Listeners: 0 out of 1246 total

Chisinau Alternate: 129.725

LUKK Approach #1 (Archives)
Chisinau, Moldova

Feed Status: UP
Listen in your browser - HTML5 player(in browser, HTML5)
Click here to listen with your own player(launches your MP3 player)

LUKK 211430Z 33014KT 9999 BKN045 09/M02 Q1020 R26/CLRD// NOSIG

LUKK Flight Activity (Flightaware)

Listeners: 0 out of 1246 total

Chisinau Approach: 133.300

LUKK Approach #2 (Archives)
Chisinau, Moldova

Feed Status: UP
Listen in your browser - HTML5 player(in browser, HTML5)
Click here to listen with your own player(launches your MP3 player)

LUKK 211430Z 33014KT 9999 BKN045 09/M02 Q1020 R26/CLRD// NOSIG

LUKK Flight Activity (Flightaware)

Listeners: 0 out of 1246 total

Chisinau Approach: 133.300

Runway 08 Blog

LUKK Control
Chisinau, Moldova

Feed Status: DOWN
Offline since: 2019-01-22 21:58:03 UTC

LUKK 211430Z 33014KT 9999 BKN045 09/M02 Q1020 R26/CLRD// NOSIG

Chisinau ACC: 128.975
Chisinau ACC: 130.975

LUKK Emergency/Guard (Archives)
Chisinau, Moldova

Feed Status: UP
Listen in your browser - HTML5 player(in browser, HTML5)
Click here to listen with your own player(launches your MP3 player)

LUKK 211430Z 33014KT 9999 BKN045 09/M02 Q1020 R26/CLRD// NOSIG

LUKK Flight Activity (Flightaware)

Listeners: 0 out of 1246 total

Emergency/Guard: 121.500

Runway 08 Blog

LUKK Ground #1
Chisinau, Moldova

Feed Status: DOWN
Offline since: 2019-01-22 21:58:03 UTC

LUKK 211430Z 33014KT 9999 BKN045 09/M02 Q1020 R26/CLRD// NOSIG

Chisinau Ground: 121.800

LUKK Ground #2 (Archives)
Chisinau, Moldova

Feed Status: UP
Listen in your browser - HTML5 player(in browser, HTML5)
Click here to listen with your own player(launches your MP3 player)

LUKK 211430Z 33014KT 9999 BKN045 09/M02 Q1020 R26/CLRD// NOSIG

LUKK Flight Activity (Flightaware)

Listeners: 0 out of 1246 total

Chisinau Ground: 121.800

Runway 08 Blog

LUKK Handling (Archives)
Chisinau, Moldova

Feed Status: UP
Listen in your browser - HTML5 player(in browser, HTML5)
Click here to listen with your own player(launches your MP3 player)

LUKK 211430Z 33014KT 9999 BKN045 09/M02 Q1020 R26/CLRD// NOSIG

LUKK Flight Activity (Flightaware)

Listeners: 0 out of 1246 total

Chisinau Handling: 131.700

Runway 08 Blog

LUKK Tower #1 (Archives)
Chisinau, Moldova

Feed Status: UP
Listen in your browser - HTML5 player(in browser, HTML5)
Click here to listen with your own player(launches your MP3 player)

LUKK 211430Z 33014KT 9999 BKN045 09/M02 Q1020 R26/CLRD// NOSIG

LUKK Flight Activity (Flightaware)

Listeners: 0 out of 1246 total

Chisinau Tower: 118.100

LUKK Tower #2 (Archives)
Chisinau, Moldova

Feed Status: UP
Listen in your browser - HTML5 player(in browser, HTML5)
Click here to listen with your own player(launches your MP3 player)

LUKK 211430Z 33014KT 9999 BKN045 09/M02 Q1020 R26/CLRD// NOSIG

LUKK Flight Activity (Flightaware)

Listeners: 0 out of 1246 total

Chisinau Tower: 118.100

Runway 08 Blog

LWSK ACC (Lower) (Archives)
Petrovec, Macedonia, Republic of

Feed Status: UP
Listen in your browser - HTML5 player(in browser, HTML5)
Click here to listen with your own player(launches your MP3 player)

LWSK 211430Z VRB03KT CAVOK 15/M05 Q1024 NOSIG

LWSK Flight Activity (Flightaware)

Listeners: 0 out of 1246 total

Skopje Control (Lower): 119.375

LWSK ACC (Upper) (Archives)
Petrovec, Macedonia, Republic of

Feed Status: UP
Listen in your browser - HTML5 player(in browser, HTML5)
Click here to listen with your own player(launches your MP3 player)

LWSK 211430Z VRB03KT CAVOK 15/M05 Q1024 NOSIG

LWSK Flight Activity (Flightaware)

Listeners: 0 out of 1246 total

Skopje Control (Upper): 120.015

LWSK Approach (Archives)
Petrovec, Macedonia, Republic of

Feed Status: UP
Listen in your browser - HTML5 player(in browser, HTML5)
Click here to listen with your own player(launches your MP3 player)

LWSK 211430Z VRB03KT CAVOK 15/M05 Q1024 NOSIG

LWSK Flight Activity (Flightaware)

Listeners: 0 out of 1246 total

Skopje Approach/Departure: 120.300

LWSK ATIS (Archives)
Petrovec, Macedonia, Republic of

Feed Status: UP
Listen in your browser - HTML5 player(in browser, HTML5)
Click here to listen with your own player(launches your MP3 player)

LWSK 211430Z VRB03KT CAVOK 15/M05 Q1024 NOSIG

LWSK Flight Activity (Flightaware)

Listeners: 0 out of 1246 total

Skopje ATIS: 130.125

LWSK Tower (Archives)
Petrovec, Macedonia, Republic of

Feed Status: UP
Listen in your browser - HTML5 player(in browser, HTML5)
Click here to listen with your own player(launches your MP3 player)

LWSK 211430Z VRB03KT CAVOK 15/M05 Q1024 NOSIG

LWSK Flight Activity (Flightaware)

Listeners: 0 out of 1246 total

Skopje Tower: 118.500

LZIB Del/Twr/App (Archives)
Bratislava, Slovakia

Feed Status: UP
Listen in your browser - HTML5 player(in browser, HTML5)
Click here to listen with your own player(launches your MP3 player)

LZIB 211430Z 28010KT CAVOK 13/01 Q1025 NOSIG

LZIB Flight Activity (Flightaware)

Listeners: 2 out of 1246 total

Stefanik Approach: 120.900
Stefanik Clearance Delivery: 118.975
Stefanik Tower: 118.300
Stefanik Tower (backup): 118.700

(c) LPS

LZKZ Gnd/Twr/App (Archives)
Kosice, Slovakia

Feed Status: UP
Listen in your browser - HTML5 player(in browser, HTML5)
Click here to listen with your own player(launches your MP3 player)

LZKZ 211430Z 21005KT 160V260 CAVOK 10/M01 Q1023 NOSIG

LZKZ Flight Activity (Flightaware)

Listeners: 0 out of 1246 total

Kosice Approach: 119.850
Kosice Ground: 121.700
Kosice Handling: 131.850
Kosice Tower: 120.400

LZPE CTAF/UNICOM (Archives)
Prievidza, Slovakia

Feed Status: UP
Listen in your browser - HTML5 player(in browser, HTML5)
Click here to listen with your own player(launches your MP3 player)

LZPE Flight Activity (Flightaware)

Listeners: 0 out of 1246 total

Prievidza CTAF/UNICOM: 123.055

LZPP Ground/Tower (Archives)
Piestany, Slovakia

Feed Status: UP
Listen in your browser - HTML5 player(in browser, HTML5)
Click here to listen with your own player(launches your MP3 player)

LZPP 211400Z 28012KT CAVOK 11/01 Q1025

LZPP Flight Activity (Flightaware)

Listeners: 0 out of 1246 total

Piestany Ground: 121.700
Piestany Tower: 118.575

LZPT CTAF (Archives)
Partizanske, Slovakia

Feed Status: UP
Listen in your browser - HTML5 player(in browser, HTML5)
Click here to listen with your own player(launches your MP3 player)

LZPT Flight Activity (Flightaware)

Listeners: 0 out of 1246 total

Male Bielice CTAF: 123.500

MGGT Gnd/Twr (Archives)
Guatemala City, Guatemala

Feed Status: UP
Listen in your browser - HTML5 player(in browser, HTML5)
Click here to listen with your own player(launches your MP3 player)

MGGT 211400Z 00000KT 800 FEW017 BKN080 18/15 Q1025 A3027 BR

MGGT Flight Activity (Flightaware)

Listeners: 2 out of 1246 total

Guatemala City Ground: 121.900
Guatemala City Tower: 118.100

MGGT Ground (Archives)
Guatemala City, Guatemala

Feed Status: UP
Listen in your browser - HTML5 player(in browser, HTML5)
Click here to listen with your own player(launches your MP3 player)

MGGT 211400Z 00000KT 800 FEW017 BKN080 18/15 Q1025 A3027 BR

MGGT Flight Activity (Flightaware)

Listeners: 0 out of 1246 total

Guatemala City Ground: 121.900

MGGT Tower (Archives)
Guatemala City, Guatemala

Feed Status: UP
Listen in your browser - HTML5 player(in browser, HTML5)
Click here to listen with your own player(launches your MP3 player)

MGGT 211400Z 00000KT 800 FEW017 BKN080 18/15 Q1025 A3027 BR

MGGT Flight Activity (Flightaware)

Listeners: 0 out of 1246 total

Guatemala City Tower: 118.100

MHLC Gnd/Twr/Center (Archives)
La Ceiba, Honduras

Feed Status: UP
Listen in your browser - HTML5 player(in browser, HTML5)
Click here to listen with your own player(launches your MP3 player)

MHLC 211400Z 08003KT 9999 FEW028 26/22 Q1012 A2989 NOSIG

MHLC Flight Activity (Flightaware)

Listeners: 0 out of 1246 total

CENAMER: 123.900
CENAMER: 124.300
Goloson Ground: 121.900
Goloson Tower: 118.500
La Ceiba Radio: 128.900

MHRO Gnd/Twr/App/Center (Archives)
Roatan, Honduras

Feed Status: UP
Listen in your browser - HTML5 player(in browser, HTML5)
Click here to listen with your own player(launches your MP3 player)

MHRO 211400Z 10010KT 9999 FEW024 27/23 Q1012 A2989 NOSIG

MHRO Flight Activity (Flightaware)

Listeners: 0 out of 1246 total

CENAMER (Center): 124.300
La Ceiba Radio: 128.900
Roatan Ground: 121.600
Roatan Tower: 118.100

MHTG ATIS
Tegucigalpa, Honduras

Feed Status: DOWN
Offline since: 2019-02-21 14:04:02 UTC

MHTG 211400Z 33003KT 9999 FEW028 20/14 Q1019 A3009 NOSIG

Toncontin ATIS: 127.750

MHTG Gnd/Twr/App/Ctr/Ops (Archives)
Tegucigalpa, Honduras

Feed Status: UP
Listen in your browser - HTML5 player(in browser, HTML5)
Click here to listen with your own player(launches your MP3 player)

MHTG 211400Z 33003KT 9999 FEW028 20/14 Q1019 A3009 NOSIG

MHTG Flight Activity (Flightaware)

Listeners: 1 out of 1246 total

American Airlines Ops: 130.700
ARINC ACARS: 131.550
Cenamer Center: 123.900
Cenamer Center: 124.300
Cenamer Center: 124.100
CMP Ops: 129.925
Continental Airlines Ops: 129.925
FAH Ground: 122.900
Taca Ops: 131.300
Taca Ops Sal: 130.300
Tecnologias Unidas: 133.000
Tegucigalpa RDO: 126.700
Toncontin Approach: 119.100
Toncontin Ground: 121.900
Toncontin Tower: 118.700

MMAN Tower
Monterrey, Mexico

Feed Status: DOWN
Offline since: 2019-02-01 19:59:02 UTC

MMAN 211340Z 29006KT 12SM SCT090 BKN200 06/02 A2991 RMK 8/023

Monterrey Tower: 118.600

MMCU Twr/App (Archives)
Chihuahua, Mexico

Feed Status: UP
Listen in your browser - HTML5 player(in browser, HTML5)
Click here to listen with your own player(launches your MP3 player)

MMCU 211346Z 18005KT 10SM SCT080 08/M03 A2984 RMK 8/070

MMCU Flight Activity (Flightaware)

Listeners: 0 out of 1246 total

Chihuahua Approach: 121.000
Chihuahua Tower: 118.400

MMGL Twr/App (Archives)
Guadalajara, Mexico

Feed Status: UP
Listen in your browser - HTML5 player(in browser, HTML5)
Click here to listen with your own player(launches your MP3 player)

MMGL 211349Z 19004KT 10SM FEW300 13/03 A3006 RMK 8/001

MMGL Flight Activity (Flightaware)

Listeners: 0 out of 1246 total

Guadalajara Approach: 120.800
Guadalajara Tower: 118.100

MMHO App/Dep (Archives)
Hermosillo, Mexico

Feed Status: UP
Listen in your browser - HTML5 player(in browser, HTML5)
Click here to listen with your own player(launches your MP3 player)

MMHO 211343Z 09006KT 10SM SKC 09/00 A2987 RMK ISOL AC HZY

MMHO Flight Activity (Flightaware)

Listeners: 0 out of 1246 total

Hermosillo Approach/Departure: 121.400

MMHO Tower (Archives)
Hermosillo, Mexico

Feed Status: UP
Listen in your browser - HTML5 player(in browser, HTML5)
Click here to listen with your own player(launches your MP3 player)

MMHO 211343Z 09006KT 10SM SKC 09/00 A2987 RMK ISOL AC HZY

MMHO Flight Activity (Flightaware)

Listeners: 0 out of 1246 total

Hermosillo Tower: 118.700

MMLP Twr/App/Center (Archives)
La Paz, Mexico

Feed Status: UP
Listen in your browser - HTML5 player(in browser, HTML5)
Click here to listen with your own player(launches your MP3 player)

MMLP 211342Z 16003KT 10SM FEW100 FEW220 10/03 A2997 RMK 8/038 HZY

MMLP Flight Activity (Flightaware)

Listeners: 2 out of 1246 total

La Paz Approach: 120.600
La Paz Tower: 118.100
Mazatlan Center: 128.000
Mazatlan Center: 124.400
Mazatlan Center: 128.300
Mazatlan Center: 124.200
Mazatlan Center: 126.300
Mazatlan Center: 126.500
San Jose Approach: 120.900

Merida Center (West 123.75) (Archives)
Merida, Mexico

Feed Status: UP
Listen in your browser - HTML5 player(in browser, HTML5)
Click here to listen with your own player(launches your MP3 player)

MMID Flight Activity (Flightaware)

Listeners: 0 out of 1246 total

Merida Center (West): 123.750

Merida Center (West 125.8) (Archives)
Merida, Mexico

Feed Status: UP
Listen in your browser - HTML5 player(in browser, HTML5)
Click here to listen with your own player(launches your MP3 player)

MMID Flight Activity (Flightaware)

Listeners: 0 out of 1246 total

Merida Center (West): 125.800

MMMD Tower/Approach (Archives)
Merida, Mexico

Feed Status: UP
Listen in your browser - HTML5 player(in browser, HTML5)
Click here to listen with your own player(launches your MP3 player)

MMMD 211345Z 10011KT 7SM SKC 24/21 A2994 RMK HZY CU

MMMD Flight Activity (Flightaware)

Listeners: 4 out of 1246 total

Merida Approach: 121.200
Merida Tower: 118.300

MMMM Tower (Archives)
Morelia, Mexico

Feed Status: UP
Listen in your browser - HTML5 player(in browser, HTML5)
Click here to listen with your own player(launches your MP3 player)

MMMM 211414Z 22004KT 8SM SKC 14/03 A3014

MMMM Flight Activity (Flightaware)

Listeners: 1 out of 1246 total

Morelia Tower: 118.500

MMMX Approach (Archives)
Mexico City, Mexico

Feed Status: UP
Listen in your browser - HTML5 player(in browser, HTML5)
Click here to listen with your own player(launches your MP3 player)

MMMX 211345Z 17008KT 15SM SKC 17/M03 A3022 NOSIG

MMMX Flight Activity (Flightaware)

Listeners: 1 out of 1246 total

Mexico City Approach: 121.200

MMMX Twr/App (Archives)
Mexico City, Mexico

Feed Status: UP
Listen in your browser - HTML5 player(in browser, HTML5)
Click here to listen with your own player(launches your MP3 player)

MMMX 211345Z 17008KT 15SM SKC 17/M03 A3022 NOSIG

MMMX Flight Activity (Flightaware)

Listeners: 4 out of 1246 total

Mexico City Approach: 121.200
Mexico City Final Approach: 119.750
Mexico City Helicopters: 118.150
Mexico City Terminal: 129.600
Mexico City Tower: 118.550

MMMY Tower/Approach (Archives)
Monterrey, Mexico

Feed Status: UP
Listen in your browser - HTML5 player(in browser, HTML5)
Click here to listen with your own player(launches your MP3 player)

MMMY 211426Z 28005KT 15SM BKN100 BKN200 11/04 A2987 RMK 8/072

MMMY Flight Activity (Flightaware)

Listeners: 4 out of 1246 total

Monterrey Approach/Departure: 119.750
Monterrey Tower: 118.100

MMPC CTAF (Archives)
Pachuca, Mexico

Feed Status: UP
Listen in your browser - HTML5 player(in browser, HTML5)
Click here to listen with your own player(launches your MP3 player)

MMPC Flight Activity (Flightaware)

Listeners: 0 out of 1246 total

Pachuca CTAF/AFIS: 122.900

MMQT Tower/App (Archives)
Queretaro, Mexico

Feed Status: UP
Listen in your browser - HTML5 player(in browser, HTML5)
Click here to listen with your own player(launches your MP3 player)

MMQT 211346Z 29004KT 10SM SKC 05/00 A3019

MMQT Flight Activity (Flightaware)

Listeners: 0 out of 1246 total

Queretaro Approach: 127.200
Queretaro Tower: 118.950

MMSP Gnd/Twr/App/Center (Archives)
San Luis Potosi, Mexico

Feed Status: UP
Listen in your browser - HTML5 player(in browser, HTML5)
Click here to listen with your own player(launches your MP3 player)

MMSP 211341Z 00000KT 8SM SKC 09/M01 A3008 RMK ISOL CI

MMSP Flight Activity (Flightaware)

Listeners: 0 out of 1246 total

AMX Ground Ops: 131.000
Mexico Center (North, Sector 6): 126.000
Mexico Center (Northwest, Sector 7): 123.900
Mexico Center (West, Sector 5): 125.100
Potosi Approach: 127.500
Potosi Tower: 118.900
TAO Ground Ops: 133.600

MMTC Twr/App/Center (Archives)
Torreon, Mexico

Feed Status: UP
Listen in your browser - HTML5 player(in browser, HTML5)
Click here to listen with your own player(launches your MP3 player)

MMTC 211340Z 00000KT 10SM BKN100 11/01 A2988 RMK 8/070

MMTC Flight Activity (Flightaware)

Listeners: 1 out of 1246 total

Mazatlan Center: 124.200
Mazatlan Center: 124.400
Mazatlan Center: 128.000
Mexico Center: 123.900
Monterrey Center: 125.600
Monterrey Center: 125.425
Monterrey Center: 127.400
Torreon Approach: 119.500
Torreon Tower: 118.500

MMTJ Approach (Archives)
Tijuana, Mexico

Feed Status: UP
Listen in your browser - HTML5 player(in browser, HTML5)
Click here to listen with your own player(launches your MP3 player)

MMTJ 211349Z 27008KT 7SM BKN030 OVC050 09/06 A2971 RMK 60055 8/7// RA OCNL BINOVC

MMTJ Flight Activity (Flightaware)

Listeners: 0 out of 1246 total

Tijuana Approach: 120.300

MMTJ Twr/Ramp (Archives)
Tijuana, Mexico

Feed Status: UP
Listen in your browser - HTML5 player(in browser, HTML5)
Click here to listen with your own player(launches your MP3 player)

MMTJ 211349Z 27008KT 7SM BKN030 OVC050 09/06 A2971 RMK 60055 8/7// RA OCNL BINOVC

MMTJ Flight Activity (Flightaware)

Listeners: 1 out of 1246 total

Tijuana Ramp: 126.100
Tijuana Tower: 118.100

MROC Del/Gnd/Twr
San Jose, Costa Rica

Feed Status: DOWN
Offline since: 2019-02-21 14:54:02 UTC

MROC 211400Z 08009KT CAVOK 24/14 A3001 NOSIG

Coco Clearance Delivery/Ground: 121.900
Coco Tower: 118.600

MROC Del/Gnd/Twr/App/Center/Misc (Archives)
San Jose, Costa Rica

Feed Status: UP
Listen in your browser - HTML5 player(in browser, HTML5)
Click here to listen with your own player(launches your MP3 player)

MROC 211400Z 08009KT CAVOK 24/14 A3001 NOSIG

MROC Flight Activity (Flightaware)

Listeners: 7 out of 1246 total

Central American Center (CENAMER Control): 124.100
Coco Center (Control over CR Airspace): 119.600
Coco Clearance Delivery: 121.300
Coco Ground: 121.900
Coco Terminal Control: 120.500
Coco Tower: 118.600
Coco UNICOM: 126.800
SYQ Ground: 121.700
SYQ Tower: 118.300

MSLP Gnd/Twr/App/Center (Archives)
San Salvador, El Salvador

Feed Status: UP
Listen in your browser - HTML5 player(in browser, HTML5)
Click here to listen with your own player(launches your MP3 player)

MSLP 211417Z 02005KT CAVOK 30/18 Q1012 NOSIG

MSLP Flight Activity (Flightaware)

Listeners: 0 out of 1246 total

Avianca Ops: 123.500
CCA: 119.300
CENAMER: 124.100
Comalapa Authorizations: 121.250
Comalapa Departure: 123.900
Comalapa Ground: 121.700
Comalapa Tower: 118.000
Compalapa Approach: 119.900
Ilopango Tower: 118.300
TACA Ops: 130.500

MUFH Havana FIR (App/Center) (Archives)
Havana, Cuba

Feed Status: UP
Listen in your browser - HTML5 player(in browser, HTML5)
Click here to listen with your own player(launches your MP3 player)

MUFH Flight Activity (Flightaware)

Listeners: 0 out of 1246 total

Hava Approach: 120.300
Havana Center: 120.250
Havana Center: 123.700
Havana Center: 124.550
Havana Center: 133.700
Havana Center: 135.100

OBBI Gnd/Twr/App (Archives)
Muharraq, Bahrain

Feed Status: UP
Listen in your browser - HTML5 player(in browser, HTML5)
Click here to listen with your own player(launches your MP3 player)

OBBI 211430Z 36006KT CAVOK 19/07 Q1020 NOSIG


Listeners: 0 out of 1246 total

Bahrain Arrival: 127.850
Bahrain Departure: 119.100
Bahrain Ground: 121.850
Bahrain Tower: 118.500

OKBK Gnd/Twr/App/Radar (Archives)
Kuwait City, Kuwait

Feed Status: UP
Listen in your browser - HTML5 player(in browser, HTML5)
Click here to listen with your own player(launches your MP3 player)

OKBK 211400Z 12008KT CAVOK 19/05 Q1019 NOSIG


Listeners: 6 out of 1246 total

Kuwait Approach: 121.300
Kuwait Approach: 124.800
Kuwait Ground: 121.700
Kuwait Radar (Center): 125.300
Kuwait Tower: 118.300

OPKC Gnd/Twr/Radar (Archives)
Karachi, Pakistan

Feed Status: UP
Listen in your browser - HTML5 player(in browser, HTML5)
Click here to listen with your own player(launches your MP3 player)

OPKC 211355Z 24010KT 5000 HZ SCT020 23/13 Q1017 NOSIG


Listeners: 0 out of 1246 total

Karachi Ground: 121.600
Karachi Radar: 125.500
Karachi Tower: 118.300

OPLA ATIS (Archives)
Lahore, Pakistan

Feed Status: UP
Listen in your browser - HTML5 player(in browser, HTML5)
Click here to listen with your own player(launches your MP3 player)

OPLA 211355Z 33007KT 4000 FU SCT040 BKN100 16/12 Q1017 TEMPO 34015G30KT 2000 -TSRA FEW030CB RMK QFE991 RMK A30.02


Listeners: 0 out of 1246 total

Lahore ATIS: 126.300

OPLA/OPLH Gnd/Twr/App (Archives)
Lahore, Pakistan

Feed Status: UP
Listen in your browser - HTML5 player(in browser, HTML5)
Click here to listen with your own player(launches your MP3 player)

OPLA 211355Z 33007KT 4000 FU SCT040 BKN100 16/12 Q1017 TEMPO 34015G30KT 2000 -TSRA FEW030CB RMK QFE991 RMK A30.02


Listeners: 1 out of 1246 total

Lahore Approach: 121.300
Lahore Approach: 125.300
Lahore Control: 127.500
Lahore Ground: 118.400
Lahore Tower: 118.100
Lahore Tower: 121.800
Walton (OPLH) Tower: 119.400

OPLA/OPLH Gnd/Twr/App (Archives)
Lahore, Pakistan

Feed Status: UP
Listen in your browser - HTML5 player(in browser, HTML5)
Click here to listen with your own player(launches your MP3 player)

OPLA 211355Z 33007KT 4000 FU SCT040 BKN100 16/12 Q1017 TEMPO 34015G30KT 2000 -TSRA FEW030CB RMK QFE991 RMK A30.02


Listeners: 1 out of 1246 total

Lahore Approach: 121.300
Lahore Approach: 125.300
Lahore Control: 127.500
Lahore Ground: 118.400
Lahore Tower: 118.100
Lahore Tower: 121.800
Walton (OPLH) Tower: 119.400

RCTP Approach (Archives)
Taipei, Taiwan

Feed Status: UP
Listen in your browser - HTML5 player(in browser, HTML5)
Click here to listen with your own player(launches your MP3 player)

RCTP 211400Z 05014KT 9999 SCT007 BKN009 BKN015 19/18 Q1018 NOSIG RMK A3006

RCTP Flight Activity (Flightaware)

Listeners: 2 out of 1246 total

Emergency/Guard: 121.500
Taipei Approach: 125.100
Taipei Approach: 125.600
Taipei Approach: 128.500

RCTP Tower (Archives)
Taipei, Taiwan

Feed Status: UP
Listen in your browser - HTML5 player(in browser, HTML5)
Click here to listen with your own player(launches your MP3 player)

RCTP 211400Z 05014KT 9999 SCT007 BKN009 BKN015 19/18 Q1018 NOSIG RMK A3006

RCTP Flight Activity (Flightaware)

Listeners: 1 out of 1246 total

Taipei Tower: 118.700

RJAA Approach (Archives)
Tokyo, Japan

Feed Status: UP
Listen in your browser - HTML5 player(in browser, HTML5)
Click here to listen with your own player(launches your MP3 player)

RJAA 211400Z 36007KT 9999 FEW030 BKN060 08/M00 Q1020 NOSIG

RJAA Flight Activity (Flightaware)

Listeners: 5 out of 1246 total

Tokyo Approach: 124.400
Tokyo Approach: 127.700

RJAA Clearance Delivery (Archives)
Tokyo, Japan

Feed Status: UP
Listen in your browser - HTML5 player(in browser, HTML5)
Click here to listen with your own player(launches your MP3 player)

RJAA 211400Z 36007KT 9999 FEW030 BKN060 08/M00 Q1020 NOSIG

RJAA Flight Activity (Flightaware)

Listeners: 0 out of 1246 total

Narita Clearance Delivery (Asia/Pacific): 121.650
Narita Clearance Delivery (US/Europe): 121.900

RJAA Clearance Delivery #1 (Archives)
Tokyo, Japan

Feed Status: UP
Listen in your browser - HTML5 player(in browser, HTML5)
Click here to listen with your own player(launches your MP3 player)

RJAA 211400Z 36007KT 9999 FEW030 BKN060 08/M00 Q1020 NOSIG

RJAA Flight Activity (Flightaware)

Listeners: 0 out of 1246 total

Narita Clearance Delivery (Asia/Pacific): 121.650

RJAA Clearance Delivery #2 (Archives)
Tokyo, Japan

Feed Status: UP
Listen in your browser - HTML5 player(in browser, HTML5)
Click here to listen with your own player(launches your MP3 player)

RJAA 211400Z 36007KT 9999 FEW030 BKN060 08/M00 Q1020 NOSIG

RJAA Flight Activity (Flightaware)

Listeners: 0 out of 1246 total

Narita Clearance Delivery (US/Europe): 121.900

RJAA Company Channels (Archives)
Tokyo, Japan

Feed Status: UP
Listen in your browser - HTML5 player(in browser, HTML5)
Click here to listen with your own player(launches your MP3 player)

RJAA 211400Z 36007KT 9999 FEW030 BKN060 08/M00 Q1020 NOSIG

RJAA Flight Activity (Flightaware)

Listeners: 2 out of 1246 total

Ops: 130.450
Ops: 130.550
Ops: 130.900
Ops: 131.025
Ops: 131.100
Ops: 131.200
Ops: 131.700
Ops: 131.750

RJAA Departure (Archives)
Tokyo, Japan

Feed Status: UP
Listen in your browser - HTML5 player(in browser, HTML5)
Click here to listen with your own player(launches your MP3 player)

RJAA 211400Z 36007KT 9999 FEW030 BKN060 08/M00 Q1020 NOSIG

RJAA Flight Activity (Flightaware)

Listeners: 2 out of 1246 total

Tokyo Departure: 119.600
Tokyo Departure: 124.200

RJAA Departure #1 (Archives)
Tokyo, Japan

Feed Status: UP
Listen in your browser - HTML5 player(in browser, HTML5)
Click here to listen with your own player(launches your MP3 player)

RJAA 211400Z 36007KT 9999 FEW030 BKN060 08/M00 Q1020 NOSIG

RJAA Flight Activity (Flightaware)

Listeners: 1 out of 1246 total

Tokyo Departure: 124.200

RJAA Departure #2 (Archives)
Tokyo, Japan

Feed Status: UP
Listen in your browser - HTML5 player(in browser, HTML5)
Click here to listen with your own player(launches your MP3 player)

RJAA 211400Z 36007KT 9999 FEW030 BKN060 08/M00 Q1020 NOSIG

RJAA Flight Activity (Flightaware)

Listeners: 0 out of 1246 total

Tokyo Departure: 119.600

RJAA Emergency/Guard (Archives)
Tokyo, Japan

Feed Status: UP
Listen in your browser - HTML5 player(in browser, HTML5)
Click here to listen with your own player(launches your MP3 player)

RJAA 211400Z 36007KT 9999 FEW030 BKN060 08/M00 Q1020 NOSIG

RJAA Flight Activity (Flightaware)

Listeners: 1 out of 1246 total

Emergency/Guard: 121.500

RJAA Ground #1 (Archives)
Tokyo, Japan

Feed Status: UP
Listen in your browser - HTML5 player(in browser, HTML5)
Click here to listen with your own player(launches your MP3 player)

RJAA 211400Z 36007KT 9999 FEW030 BKN060 08/M00 Q1020 NOSIG

RJAA Flight Activity (Flightaware)

Listeners: 1 out of 1246 total

Narita Ground: 121.850

RJAA Ground #2 (Archives)
Tokyo, Japan

Feed Status: UP
Listen in your browser - HTML5 player(in browser, HTML5)
Click here to listen with your own player(launches your MP3 player)

RJAA 211400Z 36007KT 9999 FEW030 BKN060 08/M00 Q1020 NOSIG

RJAA Flight Activity (Flightaware)

Listeners: 1 out of 1246 total

Narita Ground: 121.950

RJAA Radar (Archives)
Tokyo, Japan

Feed Status: UP
Listen in your browser - HTML5 player(in browser, HTML5)
Click here to listen with your own player(launches your MP3 player)

RJAA 211400Z 36007KT 9999 FEW030 BKN060 08/M00 Q1020 NOSIG

RJAA Flight Activity (Flightaware)

Listeners: 2 out of 1246 total

Tokyo Radar: 120.200

RJAA Ramp #1 (Archives)
Tokyo, Japan

Feed Status: UP
Listen in your browser - HTML5 player(in browser, HTML5)
Click here to listen with your own player(launches your MP3 player)

RJAA 211400Z 36007KT 9999 FEW030 BKN060 08/M00 Q1020 NOSIG

RJAA Flight Activity (Flightaware)

Listeners: 0 out of 1246 total

Narita Ramp: 121.600

RJAA Ramp #2 (Archives)
Tokyo, Japan

Feed Status: UP
Listen in your browser - HTML5 player(in browser, HTML5)
Click here to listen with your own player(launches your MP3 player)

RJAA 211400Z 36007KT 9999 FEW030 BKN060 08/M00 Q1020 NOSIG

RJAA Flight Activity (Flightaware)

Listeners: 0 out of 1246 total

Narita Ramp: 121.750

RJAA TCA (Archives)
Tokyo, Japan

Feed Status: UP
Listen in your browser - HTML5 player(in browser, HTML5)
Click here to listen with your own player(launches your MP3 player)

RJAA 211400Z 36007KT 9999 FEW030 BKN060 08/M00 Q1020 NOSIG

RJAA Flight Activity (Flightaware)

Listeners: 1 out of 1246 total

Tokyo TCA (Terminal Control Area): 119.450

RJAA Tokyo Control (Archives)
Tokyo, Japan

Feed Status: UP
Listen in your browser - HTML5 player(in browser, HTML5)
Click here to listen with your own player(launches your MP3 player)

RJAA 211400Z 36007KT 9999 FEW030 BKN060 08/M00 Q1020 NOSIG

RJAA Flight Activity (Flightaware)

Listeners: 0 out of 1246 total

Tokyo Control: 125.900

RJAA Tower #1 (Archives)
Tokyo, Japan

Feed Status: UP
Listen in your browser - HTML5 player(in browser, HTML5)
Click here to listen with your own player(launches your MP3 player)

RJAA 211400Z 36007KT 9999 FEW030 BKN060 08/M00 Q1020 NOSIG

RJAA Flight Activity (Flightaware)

Listeners: 2 out of 1246 total

Narita Tower (Rwy 16R/34L): 118.200

RJAA Tower #2 (Archives)
Tokyo, Japan

Feed Status: UP
Listen in your browser - HTML5 player(in browser, HTML5)
Click here to listen with your own player(launches your MP3 player)

RJAA 211400Z 36007KT 9999 FEW030 BKN060 08/M00 Q1020 NOSIG

RJAA Flight Activity (Flightaware)

Listeners: 2 out of 1246 total

Narita Tower (Rwy 16L/34R): 118.350

RJOO Tower (Archives)
Osaka, Japan

Feed Status: UP
Listen in your browser - HTML5 player(in browser, HTML5)
Click here to listen with your own player(launches your MP3 player)

RJOO 211100Z 33005KT 300V360 9999 FEW025 BKN050 08/M01 Q1023

RJOO Flight Activity (Flightaware)

Listeners: 0 out of 1246 total

Osaka Tower: 118.100

RJSF RDO (Archives)
Sukagawa, Japan

Feed Status: UP
Listen in your browser - HTML5 player(in browser, HTML5)
Click here to listen with your own player(launches your MP3 player)

RJSF 211100Z 36010KT 9999 FEW030 02/M02 Q1019

RJSF Flight Activity (Flightaware)

Listeners: 0 out of 1246 total

Fukushima Radio: 118.050

RJTT App/Dep (Archives)
Tokyo, Japan

Feed Status: UP
Listen in your browser - HTML5 player(in browser, HTML5)
Click here to listen with your own player(launches your MP3 player)

RJTT 211400Z 34010KT 9999 FEW030 BKN080 09/M01 Q1020 NOSIG

RJTT Flight Activity (Flightaware)

Listeners: 19 out of 1246 total

Tokyo Approach: 119.100
Tokyo Approach: 119.400
Tokyo Departure: 120.800
Tokyo Departure: 126.000

RJTT Approach (Archives)
Tokyo, Japan

Feed Status: UP
Listen in your browser - HTML5 player(in browser, HTML5)
Click here to listen with your own player(launches your MP3 player)

RJTT 211400Z 34010KT 9999 FEW030 BKN080 09/M01 Q1020 NOSIG

RJTT Flight Activity (Flightaware)

Listeners: 3 out of 1246 total

Tokyo Approach: 119.100
Tokyo Approach: 119.400

RJTT ATIS (Archives)
Tokyo, Japan

Feed Status: UP
Listen in your browser - HTML5 player(in browser, HTML5)
Click here to listen with your own player(launches your MP3 player)

RJTT 211400Z 34010KT 9999 FEW030 BKN080 09/M01 Q1020 NOSIG

RJTT Flight Activity (Flightaware)

Listeners: 1 out of 1246 total

Tokyo ATIS: 128.800

RJTT Company Channels (Archives)
Tokyo, Japan

Feed Status: UP
Listen in your browser - HTML5 player(in browser, HTML5)
Click here to listen with your own player(launches your MP3 player)

RJTT 211400Z 34010KT 9999 FEW030 BKN080 09/M01 Q1020 NOSIG

RJTT Flight Activity (Flightaware)

Listeners: 26 out of 1246 total

Company TBD: 128.500
Company TBD: 131.850
Company TBD: 129.725
Company TBD: 129.700
Company TBD: 131.900
Company TBD: 129.850
Company TBD: 128.975
Company TBD: 123.675
Company TBD: 132.075

RJTT Del/Ground (Archives)
Tokyo, Japan

Feed Status: UP
Listen in your browser - HTML5 player(in browser, HTML5)
Click here to listen with your own player(launches your MP3 player)

RJTT 211400Z 34010KT 9999 FEW030 BKN080 09/M01 Q1020 NOSIG

RJTT Flight Activity (Flightaware)

Listeners: 2 out of 1246 total

Tokyo Clearance Delivery: 121.825
Tokyo Ground: 121.700
Tokyo Ground: 118.225
Tokyo Ground: 121.625
Tokyo Ground: 121.975

RJTT Del/Twr/TCA/Gnd (Archives)
Tokyo, Japan

Feed Status: UP
Listen in your browser - HTML5 player(in browser, HTML5)
Click here to listen with your own player(launches your MP3 player)

RJTT 211400Z 34010KT 9999 FEW030 BKN080 09/M01 Q1020 NOSIG

RJTT Flight Activity (Flightaware)

Listeners: 14 out of 1246 total

Tokyo Clearance Delivery: 121.825
Tokyo Ground: 121.975
Tokyo Ground: 121.625
Tokyo Ground: 121.700
Tokyo Ground: 118.225
Tokyo TCA: 124.750
Tokyo Tower: 118.100
Tokyo Tower: 118.575
Tokyo Tower: 118.725
Tokyo Tower: 124.350

RJTT Departure (Archives)
Tokyo, Japan

Feed Status: UP
Listen in your browser - HTML5 player(in browser, HTML5)
Click here to listen with your own player(launches your MP3 player)

RJTT 211400Z 34010KT 9999 FEW030 BKN080 09/M01 Q1020 NOSIG

RJTT Flight Activity (Flightaware)

Listeners: 1 out of 1246 total

Tokyo Departure: 120.800
Tokyo Departure: 126.000

RJTT Tokyo Control (Archives)
Tokyo, Japan

Feed Status: UP
Listen in your browser - HTML5 player(in browser, HTML5)
Click here to listen with your own player(launches your MP3 player)

RJTT 211400Z 34010KT 9999 FEW030 BKN080 09/M01 Q1020 NOSIG

RJTT Flight Activity (Flightaware)

Listeners: 22 out of 1246 total

Tokyo Control: 133.700
Tokyo Control: 125.900
Tokyo Control: 120.500

RJTT Twr/TCA (Archives)
Tokyo, Japan

Feed Status: UP
Listen in your browser - HTML5 player(in browser, HTML5)
Click here to listen with your own player(launches your MP3 player)

RJTT 211400Z 34010KT 9999 FEW030 BKN080 09/M01 Q1020 NOSIG

RJTT Flight Activity (Flightaware)

Listeners: 3 out of 1246 total

Tokyo TCA: 124.750
Tokyo Tower: 118.100
Tokyo Tower: 118.575
Tokyo Tower: 118.725
Tokyo Tower: 124.350

RJTY Approach (Archives)
Tokyo, Japan

Feed Status: UP
Listen in your browser - HTML5 player(in browser, HTML5)
Click here to listen with your own player(launches your MP3 player)

RJTY 211356Z AUTO 00000KT 10SM OVC075 06/M04 A3017 RMK AO2 SLP224 T00631036 FZRANO $

RJTY Flight Activity (Flightaware)

Listeners: 5 out of 1246 total

Yokota Approach: 118.300
Yokota APproach: 123.800
Yokota Approach: 120.700

RJTY ATIS (Archives)
Tokyo, Japan

Feed Status: UP
Listen in your browser - HTML5 player(in browser, HTML5)
Click here to listen with your own player(launches your MP3 player)

RJTY 211356Z AUTO 00000KT 10SM OVC075 06/M04 A3017 RMK AO2 SLP224 T00631036 FZRANO $

RJTY Flight Activity (Flightaware)

Listeners: 0 out of 1246 total

Yokota ATIS: 126.400

RJTY Ground (Archives)
Tokyo, Japan

Feed Status: UP
Listen in your browser - HTML5 player(in browser, HTML5)
Click here to listen with your own player(launches your MP3 player)

RJTY 211356Z AUTO 00000KT 10SM OVC075 06/M04 A3017 RMK AO2 SLP224 T00631036 FZRANO $

RJTY Flight Activity (Flightaware)

Listeners: 0 out of 1246 total

Yokota Ground: 133.200

RJTY Ground/Tower (Archives)
Tokyo, Japan

Feed Status: UP
Listen in your browser - HTML5 player(in browser, HTML5)
Click here to listen with your own player(launches your MP3 player)

RJTY 211356Z AUTO 00000KT 10SM OVC075 06/M04 A3017 RMK AO2 SLP224 T00631036 FZRANO $

RJTY Flight Activity (Flightaware)

Listeners: 1 out of 1246 total

Yokota Ground: 133.200
Yokota Tower: 134.300

RJTY Tower (Archives)
Tokyo, Japan

Feed Status: UP
Listen in your browser - HTML5 player(in browser, HTML5)
Click here to listen with your own player(launches your MP3 player)

RJTY 211356Z AUTO 00000KT 10SM OVC075 06/M04 A3017 RMK AO2 SLP224 T00631036 FZRANO $

RJTY Flight Activity (Flightaware)

Listeners: 0 out of 1246 total

Yokota Tower: 134.300

RKSG Gnd/Twr/App (Archives)
Pyeongtaek, Korea, Republic of

Feed Status: UP
Listen in your browser - HTML5 player(in browser, HTML5)
Click here to listen with your own player(launches your MP3 player)

RKSG 211356Z VRB03KT 4SM BR CLR 00/00 A3028 RMK AO2A SLP258 T10031003 $

RKSG Flight Activity (Flightaware)

Listeners: 0 out of 1246 total

Desiderio Final: 255.800
Desiderio GCA: 226.800
Desiderio GCA: 127.000
Desiderio Ground (Camp Humphreys A-511 AAF): 119.500
Desiderio Ground UHF: 229.700
Desiderio Ops: 294.100
Desiderio Tower (Camp Humphreys A-511 AAF): 122.500
Desiderio Tower UHF: 257.800

RKRR Incheon Control (Archives)
Incheon, Korea, Republic of

Feed Status: UP
Listen in your browser - HTML5 player(in browser, HTML5)
Click here to listen with your own player(launches your MP3 player)

RKSI 211400Z 32002KT 6000 NSC 02/M02 Q1025 NOSIG

RKSI Flight Activity (Flightaware)

Listeners: 4 out of 1246 total

Incheon Control North Sector (Primary): 128.700
Incheon Control North Sector (Secondary): 132.800
Incheon Control Northwest Sector (Primary): 126.175
Incheon Control Northwest Sector (Secondary): 123.725

RKSO Gnd/Twr/App (Archives)
Pyeongtaek, Korea, Republic of

Feed Status: UP
Listen in your browser - HTML5 player(in browser, HTML5)
Click here to listen with your own player(launches your MP3 player)

RKSO 211358Z 09003KT 6SM BR CLR M02/M04 A3028 RMK AO2A SLP258 T10241039 $

RKSO Flight Activity (Flightaware)

Listeners: 1 out of 1246 total

25 FS Ops: 229.000
36FS Ops: 371.300
Osan Air Base Approach/Departure: 127.900
Osan Air Base Approach/Departure: 133.650
Osan Air Base Ground: 132.450
Osan Air Base Tower: 122.100
Osan App/Dep UHF: 306.600
Osan App/Dep UHF: 234.300
Osan App/Dep UHF (possibly inactive): 306.300
Osan App/Dep UHF (possibly inactive): 363.100
Osan Ground UHF: 253.700
Osan SAR: 282.800
Osan SAR: 381.000
Osan SOF: 299.800
Osan Tower UHF: 308.800
Stallion Ops: 276.200

RPLL Approach/Departure #1 (Archives)
Manila, Philippines

Feed Status: UP
Listen in your browser - HTML5 player(in browser, HTML5)
Click here to listen with your own player(launches your MP3 player)

RPLL 211400Z 14004KT 9999 FEW025 26/18 Q1016 NOSIG RMK A3000

RPLL Flight Activity (Flightaware)

Listeners: 0 out of 1246 total

Manila Approach/Departure: 121.100

RPLL Approach/Departure #2 (Archives)
Manila, Philippines

Feed Status: UP
Listen in your browser - HTML5 player(in browser, HTML5)
Click here to listen with your own player(launches your MP3 player)

RPLL 211400Z 14004KT 9999 FEW025 26/18 Q1016 NOSIG RMK A3000

RPLL Flight Activity (Flightaware)

Listeners: 1 out of 1246 total

Manila Approach/Departure: 119.700

RPLL ATIS (Archives)
Manila, Philippines

Feed Status: UP
Listen in your browser - HTML5 player(in browser, HTML5)
Click here to listen with your own player(launches your MP3 player)

RPLL 211400Z 14004KT 9999 FEW025 26/18 Q1016 NOSIG RMK A3000

RPLL Flight Activity (Flightaware)

Listeners: 0 out of 1246 total

Manila ATIS: 126.400

RPLL Clearance Delivery (Archives)
Manila, Philippines

Feed Status: UP
Listen in your browser - HTML5 player(in browser, HTML5)
Click here to listen with your own player(launches your MP3 player)

RPLL 211400Z 14004KT 9999 FEW025 26/18 Q1016 NOSIG RMK A3000

RPLL Flight Activity (Flightaware)

Listeners: 0 out of 1246 total

Manila Clearance Delivery (Primary): 125.100
Manila Clearance Delivery (Secondary): 125.500

RPLL Ground (Archives)
Manila, Philippines

Feed Status: UP
Listen in your browser - HTML5 player(in browser, HTML5)
Click here to listen with your own player(launches your MP3 player)

RPLL 211400Z 14004KT 9999 FEW025 26/18 Q1016 NOSIG RMK A3000

RPLL Flight Activity (Flightaware)

Listeners: 0 out of 1246 total

Manila Ground: 121.800

RPLL Ramp/Taxi (Archives)
Manila, Philippines

Feed Status: UP
Listen in your browser - HTML5 player(in browser, HTML5)
Click here to listen with your own player(launches your MP3 player)

RPLL 211400Z 14004KT 9999 FEW025 26/18 Q1016 NOSIG RMK A3000

RPLL Flight Activity (Flightaware)

Listeners: 0 out of 1246 total

Manila Ramp/Taxi: 121.350
Manila Ramp/Taxi: 121.700

RPLL Tower (Archives)
Manila, Philippines

Feed Status: UP
Listen in your browser - HTML5 player(in browser, HTML5)
Click here to listen with your own player(launches your MP3 player)

RPLL 211400Z 14004KT 9999 FEW025 26/18 Q1016 NOSIG RMK A3000

RPLL Flight Activity (Flightaware)

Listeners: 0 out of 1246 total

Manila Tower: 118.100

SABE Gnd/Twr/App (Archives)
Buenos Aires, Argentina

Feed Status: UP
Listen in your browser - HTML5 player(in browser, HTML5)
Click here to listen with your own player(launches your MP3 player)

SABE 211400Z 08012KT 050V120 CAVOK 29/21 Q1013 NOSIG

SABE Flight Activity (Flightaware)

Listeners: 17 out of 1246 total

Aerolineas Argentinas Ops: 131.950
Aerolineas Argentinas Ops: 131.100
Aeroparque Ground: 121.900
Aeroparque Tower: 120.600
Aeroparque Tower: 118.250
Aeroparque Tower: 128.850
Aeroparque Tower: 118.850
Aeroparque Tower: 129.300
Air to Air: 123.450
Baires: 125.900
Baires: 125.300
Baires: 124.900
Cordoba South: 126.500
Ezeiza Ground: 121.750
Ezeiza North: 133.350
Ezeiza North: 124.500
Ezeiza North: 125.600
Ezeiza North: 135.500
Ezeiza South: 124.100
Ezeiza South: 125.200
LAN Ops: 131.700

Powered by aeropuertotucuman.blogspot.com

SAEZ Del/Gnd/Twr/App/Radar/Misc
Buenos Aires, Argentina

Feed Status: DOWN
Offline since: 2019-02-21 01:53:03 UTC

SAEZ 211400Z 05015KT CAVOK 29/21 Q1013 NOSIG

Air to Air: 123.450
Baires TMA Radar: 125.800
Baires TMA Radar: 125.300
Baires TMA Radar: 125.900
Baires TMA Radar: 124.900
Baires TMA Radar: 133.350
Canuelas (CNA) CTAF: 123.000
Emergency/Guard: 121.500
Ezeiza Clearance Delivery: 127.100
Ezeiza CTA Radar North: 134.500
Ezeiza CTA Radar North: 135.500
Ezeiza CTA Radar North: 125.600
Ezeiza CTA Radar South: 125.200
Ezeiza Ground: 126.950
Ezeiza Ground: 121.750
Ezeiza Tower: 118.600
Ezeiza Tower: 118.050
Ezeiza Tower: 120.450
Moron (SADM) Tower: 119.900
Moron (SADM) Tower: 118.500
UNICOM: 123.500

"Only for educational purposes - www.prevacc.org

SANT Tower/Apps
Tucuman, Argentina

Feed Status: DOWN
Offline since: 2019-02-21 00:43:02 UTC

SANT 211400Z 06005KT 350V130 CAVOK 31/21 Q1009

Aeroclub Tucuman: 119.000
Aerolineas Argentinas SOC Salta: 131.100
Aerolineas Argentinas SOC Tucuman: 131.950
Air To Air: 123.450
Andes Lineas Aereas: 132.000
Campo Arenal: 130.950
Catamarca Tower: 118.150
Copa Airlines: 129.400
Cordoba Centro Norte: 125.100
Cordoba Centro Sur: 126.500
Emergency/Guard: 121.500
Lan Argentina Operaciones: 131.700
Lan Peru: 131.300
Salta Tower: 128.850
Santiago del Estero Tower: 118.700
Taca Peru: 126.450
Termas de Rio Hondo: 118.200
Termas de Rio Hondo: 119.850
Tucuman Ground: 121.750
Tucuman Ground: 121.750
Tucuman Tower: 118.350
Tucuman Tower: 119.500

Powered by:

aeropuertotucuman.blogspot.com

SASA Twr/App (Archives)
Salta, Argentina

Feed Status: UP
Listen in your browser - HTML5 player(in browser, HTML5)
Click here to listen with your own player(launches your MP3 player)

SASA 211400Z 09004KT 9999 FEW022 26/19 Q1016

SASA Flight Activity (Flightaware)

Listeners: 1 out of 1246 total

Cordoba Approach (North): 125.100
Salta Approach: 124.600
Salta Tower: 126.000
Salta Tower/Ground: 128.850

SAZS Tower/Approach (Archives)
Rio Negro, Argentina

Feed Status: UP
Listen in your browser - HTML5 player(in browser, HTML5)
Click here to listen with your own player(launches your MP3 player)

SAZS 211400Z 29017KT 9999 SCT045 SCT100 16/05 Q1013

SAZS Flight Activity (Flightaware)

Listeners: 0 out of 1246 total

Bariloche Twr/App: 119.100
Bariloche Twr/App (Aux): 118.650
Chapelco Tower/Approach: 119.600
Comodoro Rivadavia Control: 125.500
Emergency: 121.500
Ezeiza South: 125.200
Puerto Mont Radar North: 121.300
Puerto Mont Radar South: 128.300
Puerto Mont Radio: 126.900


Feed courtesy of: Juan Jose Porta - Bariloche

SBBH ACC-BS 127.0 (Archives)
Belo Horizonte, Brazil

Feed Status: UP
Listen in your browser - HTML5 player(in browser, HTML5)
Click here to listen with your own player(launches your MP3 player)

SBBH 211300Z 17005KT 6000 -RA SCT030 SCT080 20/18 Q1021 RETS

SBBH Flight Activity (Flightaware)

Listeners: 0 out of 1246 total

Brasilia ACC-BS (Air Control Center): 127.000

SBBH ACC-BS 127.3 (Archives)
Belo Horizonte, Brazil

Feed Status: UP
Listen in your browser - HTML5 player(in browser, HTML5)
Click here to listen with your own player(launches your MP3 player)

SBBH 211300Z 17005KT 6000 -RA SCT030 SCT080 20/18 Q1021 RETS

SBBH Flight Activity (Flightaware)

Listeners: 0 out of 1246 total

Brasilia ACC-BS (Air Control Center): 127.300

SBBH App (Sector 1) (Archives)
Belo Horizonte, Brazil

Feed Status: UP
Listen in your browser - HTML5 player(in browser, HTML5)
Click here to listen with your own player(launches your MP3 player)

SBBH 211300Z 17005KT 6000 -RA SCT030 SCT080 20/18 Q1021 RETS

SBBH Flight Activity (Flightaware)

Listeners: 0 out of 1246 total

Belo Horizonte Approach (Sector 1): 129.100

SBBH App (Sector 2) (Archives)
Belo Horizonte, Brazil

Feed Status: UP
Listen in your browser - HTML5 player(in browser, HTML5)
Click here to listen with your own player(launches your MP3 player)

SBBH 211300Z 17005KT 6000 -RA SCT030 SCT080 20/18 Q1021 RETS

SBBH Flight Activity (Flightaware)

Listeners: 0 out of 1246 total

Belo Horizonte Approach (Sector 2): 129.400

SBBH App/Dep (Archives)
Belo Horizonte, Brazil

Feed Status: UP
Listen in your browser - HTML5 player(in browser, HTML5)
Click here to listen with your own player(launches your MP3 player)

SBBH 211300Z 17005KT 6000 -RA SCT030 SCT080 20/18 Q1021 RETS

SBBH Flight Activity (Flightaware)

Listeners: 0 out of 1246 total

Belo Horizonte Approach: 128.550

SBBI Gnd/Twr (Archives)
Curitiba, Brazil

Feed Status: UP
Listen in your browser - HTML5 player(in browser, HTML5)
Click here to listen with your own player(launches your MP3 player)

SBBI 211400Z 36004KT 9999 FEW011 BKN015 BKN020 22/18 Q1020

SBBI Flight Activity (Flightaware)

Listeners: 1 out of 1246 total

Bacacheri Ground: 121.800
Bacacheri Tower: 118.900

SBBV Approach (Archives)
Boa Vista, Brazil

Feed Status: UP
Listen in your browser - HTML5 player(in browser, HTML5)
Click here to listen with your own player(launches your MP3 player)

SBBV 211400Z 08016KT 9999 BKN035 SCT090 29/20 Q1015

SBBV Flight Activity (Flightaware)

Listeners: 1 out of 1246 total

Boa Vista Approach: 120.100

SBBV Tower (Archives)
Boa Vista, Brazil

Feed Status: UP
Listen in your browser - HTML5 player(in browser, HTML5)
Click here to listen with your own player(launches your MP3 player)

SBBV 211400Z 08016KT 9999 BKN035 SCT090 29/20 Q1015

SBBV Flight Activity (Flightaware)

Listeners: 1 out of 1246 total

Boa Vista Tower: 118.100

SBCT Twr/App (Archives)
Curitiba, Brazil

Feed Status: UP
Listen in your browser - HTML5 player(in browser, HTML5)
Click here to listen with your own player(launches your MP3 player)

SBCT 211400Z 02003KT 9999 BKN013 BKN025 22/18 Q1020

SBCT Flight Activity (Flightaware)

Listeners: 1 out of 1246 total

Curitiba Approach: 119.950
Curitiba Tower: 118.150

SBDN Twr/App (Archives)
Presidente Prudente/Sao Paulo, Brazil

Feed Status: UP
Listen in your browser - HTML5 player(in browser, HTML5)
Click here to listen with your own player(launches your MP3 player)

SBDN 211400Z 00000KT 9999 BKN020 26/20 Q1015

SBDN Flight Activity (Flightaware)

Listeners: 1 out of 1246 total

Air-to-Air: 123.450
Curitiba Sector 13: 133.595
Prudente Approach: 118.450
Prudente Tower: 125.450

SBEG Tower/App (Archives)
Manaus, Brazil

Feed Status: UP
Listen in your browser - HTML5 player(in browser, HTML5)
Click here to listen with your own player(launches your MP3 player)

SBEG 211400Z 15005KT 9999 BKN009 26/25 Q1014

SBEG Flight Activity (Flightaware)

Listeners: 1 out of 1246 total

Emergency/Guard: 121.500
Manaus Approach : 119.250
Manaus Approach: 120.400
Manaus Approach: 119.700
Manaus Tower: 118.300

SBFI Twr/App/Ctr/Misc (Archives)
Foz do Iguacu, Brazil

Feed Status: UP
Listen in your browser - HTML5 player(in browser, HTML5)
Click here to listen with your own player(launches your MP3 player)

SBFI 211400Z 04007KT CAVOK 28/20 Q1014

SBFI Flight Activity (Flightaware)

Listeners: 2 out of 1246 total

Asuncion Center (Paraguay): 126.900
Asuncion Center (Paraguay): 128.400
Curitiba Center: 127.200
Curitiba Center: 125.800
Emergency/Guard: 121.500
Foz do Iguacu Approach/Departure: 120.300
Foz do Iguacu Approach/Departure: 119.150
Foz do Iguacu Tower: 118.800
Guarani Approach (Paraguay): 119.300
Puerto Iguazu - Cataratas Tower (Argentina) : 120.700
Resistencia Center (Argentina): 124.300
UNICOM: 123.450

SBFZ Twr/App/Center
Fortaleza, Brazil

Feed Status: DOWN
Offline since: 2019-02-12 22:44:02 UTC

SBFZ 211400Z 18003KT 140V240 9999 SCT020 FEW025TCU BKN100 27/24 Q1013

ACC-RE (Fortaleza Sector): 125.150
ACC-RE (Fortaleza Sector): 126.350
ACC-RE (Fortaleza Sector): 135.250
Fortaleza Approach: 133.000
Fortaleza Tower: 129.000

SBGO Gnd/Twr/App (Archives)
Goiania, Brazil

Feed Status: UP
Listen in your browser - HTML5 player(in browser, HTML5)
Click here to listen with your own player(launches your MP3 player)

SBGO 211400Z 31003KT 9999 FEW020 25/21 Q1018

SBGO Flight Activity (Flightaware)

Listeners: 2 out of 1246 total

Anapolis Approach: 119.150
Anapolis Approach: 120.550
Anapolis Approach: 133.000
Anapolis Approach: 129.450
Emergency/Guard: 121.500
Goiania Ground: 121.700
Goiania Tower: 118.700
Goiania Tower: 121.050

SBGR Twr/App/ACC
Sao Paulo, Brazil

Feed Status: DOWN
Offline since: 2019-02-17 22:31:03 UTC

SBGR 211415Z 07005KT 8000 2500E RA BKN015 25/20 Q1019

Brasilia Center: 126.150
Brasilia Center: 134.000
Curitiba Center: 126.500
Guarulhos Tower: 135.200
Marte Tower (SBMT): 118.700
Sao Paulo Departure: 120.450
Sao Paulo Final Approach (Guarulhos): 129.750

Sponsored by: aerocus.com

SBJP Twr/Control/Airlines (Archives)
Joao Pessoa, Brazil

Feed Status: UP
Listen in your browser - HTML5 player(in browser, HTML5)
Click here to listen with your own player(launches your MP3 player)

SBJP 211400Z 06007KT 030V090 9999 BKN030 BKN070 30/23 Q1014

SBJP Flight Activity (Flightaware)

Listeners: 0 out of 1246 total

AZUL: 130.900
GOL: 131.225
Joao Pessoa Tower: 118.300
Recife Control: 119.500
TAM: 130.500

SBJU Tower/Center (Archives)
Juazeiro do Norte, Brazil

Feed Status: UP
Listen in your browser - HTML5 player(in browser, HTML5)
Click here to listen with your own player(launches your MP3 player)

SBJU 211400Z 05006KT 9999 BKN020 30/22 Q1017

SBJU Flight Activity (Flightaware)

Listeners: 0 out of 1246 total

Pilot-to-Pilot: 123.450
Radio Juazeiro: 131.750
Recife Center: 135.250
Recife Center: 125.150

Sponsored by:

SBLO Twr/App/Center (Archives)
Londrina, Brazil

Feed Status: UP
Listen in your browser - HTML5 player(in browser, HTML5)
Click here to listen with your own player(launches your MP3 player)

SBLO 211400Z 10004KT 9999 BKN018 BKN090 26/21 Q1017

SBLO Flight Activity (Flightaware)

Listeners: 2 out of 1246 total

Curitiba Center: 128.350
Curitiba Center: 135.100
Curitiba Center: 125.800
Curitiba Center: 126.950
Emergency/Guard: 121.500
Londrina Approach: 129.700
Londrina Tower: 118.400
UNICOM: 123.450

TMA Londrina Blog

SBMG Twr/App/Misc (Archives)
Maringa, Brazil

Feed Status: UP
Listen in your browser - HTML5 player(in browser, HTML5)
Click here to listen with your own player(launches your MP3 player)

SBMG 211300Z 02007KT 340V070 9999 BKN025 27/21 Q1015

SBMG Flight Activity (Flightaware)

Listeners: 2 out of 1246 total

Air to Air: 123.450
Londrina Approach: 129.700
Maringa Tower: 118.750

SBMK RDO/Center (Archives)
Montes Claros, Brazil

Feed Status: UP
Listen in your browser - HTML5 player(in browser, HTML5)
Click here to listen with your own player(launches your MP3 player)

SBMK Flight Activity (Flightaware)

Listeners: 0 out of 1246 total

Brasilia Center (Sector 15): 127.300
Montes Claros RDO: 131.700

SBMQ Tower/App/Center (Archives)
Macapa, Brazil

Feed Status: UP
Listen in your browser - HTML5 player(in browser, HTML5)
Click here to listen with your own player(launches your MP3 player)

SBMQ 211400Z 33008KT 9999 BKN017 BKN080 30/25 Q1014

SBMQ Flight Activity (Flightaware)

Listeners: 2 out of 1246 total

Amazonico Center: 123.950
Amazonico Center: 128.000
Macapa Approach: 119.000
Macapa Tower: 118.000

SBNF Tower (Archives)
Navegantes, Brazil

Feed Status: UP
Listen in your browser - HTML5 player(in browser, HTML5)
Click here to listen with your own player(launches your MP3 player)

SBNF 211400Z 12005KT 9999 FEW023 FEW025TCU 27/23 Q1015

SBNF Flight Activity (Flightaware)

Listeners: 0 out of 1246 total

Navegantes Tower: 118.200

SBPA Gnd/Twr/App (Archives)
Porto Alegre, Brazil

Feed Status: UP
Listen in your browser - HTML5 player(in browser, HTML5)
Click here to listen with your own player(launches your MP3 player)

SBPA 211400Z 22003KT 150V290 CAVOK 29/21 Q1016

SBPA Flight Activity (Flightaware)

Listeners: 9 out of 1246 total

BACO (Canoas) Ground: 121.700
BACO (Canoas) Tower: 122.800
BACO (Canoas) Tower: 118.500
Emergency/Guard: 121.500
Porto Alegre Approach Sector 2: 119.000
Porto Alegre Approach Sector 1: 120.100
Porto Alegre Approach Sector 3: 120.550
Porto Alegre Approach Sector 4: 128.900
Porto Alegre Center: 126.750
Porto Alegre Center: 127.400
Porto Alegre Center: 135.850
Porto Alegre Center: 128.450
Salgado Filho Ground: 121.900
Salgado Filho Tower: 118.100

NOTE: Feed site maintenance Nov 13-30, 2016

SBPL RDO (Archives)
Petrolina, Brazil

Feed Status: UP
Listen in your browser - HTML5 player(in browser, HTML5)
Click here to listen with your own player(launches your MP3 player)

SBPL 211400Z 16008KT 9999 SCT025 31/20 Q1015

SBPL Flight Activity (Flightaware)

Listeners: 3 out of 1246 total

Petrolina RDO: 125.700

Sponsored by PNZSpotter

SBQV AFIS/App
Vitoria da Conquista, Brazil

Feed Status: DOWN
Offline since: 2019-02-21 14:23:03 UTC

SBQV 211400Z 14011KT 9999 FEW040 29/17 Q1019

Conquista AFIS: 130.300
Despacho Azul: 131.875
Despacho Passaredo: 132.000

SBRF App 129.60 (Archives)
Recife, Brazil

Feed Status: UP
Listen in your browser - HTML5 player(in browser, HTML5)
Click here to listen with your own player(launches your MP3 player)

SBRF 211400Z 09008KT 060V150 9999 SCT023 FEW025TCU 30/23 Q1013

SBRF Flight Activity (Flightaware)

Listeners: 6 out of 1246 total

Recife Approach: 129.600

SBRF Ground
Recife, Brazil

Feed Status: DOWN
Offline since: 2019-02-20 23:58:03 UTC

SBRF 211400Z 09008KT 060V150 9999 SCT023 FEW025TCU 30/23 Q1013

Recife Ground: 121.850

SBRF Recife ACC (Archives)
Recife, Brazil

Feed Status: UP
Listen in your browser - HTML5 player(in browser, HTML5)
Click here to listen with your own player(launches your MP3 player)

SBRF 211400Z 09008KT 060V150 9999 SCT023 FEW025TCU 30/23 Q1013

SBRF Flight Activity (Flightaware)

Listeners: 2 out of 1246 total

Recife Center: 128.700
Recife Center: 133.650
Recife Center: 134.800

SBRF Tower (Archives)
Recife, Brazil

Feed Status: UP
Listen in your browser - HTML5 player(in browser, HTML5)
Click here to listen with your own player(launches your MP3 player)

SBRF 211400Z 09008KT 060V150 9999 SCT023 FEW025TCU 30/23 Q1013

SBRF Flight Activity (Flightaware)

Listeners: 3 out of 1246 total

Recife Tower: 125.250
Recife Tower: 118.350
Recife Tower: 118.900

SBRP Tower/Center
Ribeirao Preto, Brazil

Feed Status: DOWN
Offline since: 2019-02-21 14:20:03 UTC

SBRP 211400Z 12005KT 5000 -RA BR SCT004 BKN040 OVC070 22/21 Q10 17

Leite Lopes Tower: 118.000
Pirassununga Center (North): 119.550

SBSN Twr/App/ACC
Santarem, Brazil

Feed Status: DOWN
Offline since: 2019-02-21 12:42:03 UTC

SBSN 211400Z 06006KT 9999 SCT017 FEW020TCU BKN100 28/26 Q1014

Brasilia Center/ACC: 123.650
Brasilia Center/ACC: 125.050
Santarem Approach: 119.300
Santarem Tower: 118.100

SBTE Twr/App (Archives)
Teresina, Brazil

Feed Status: UP
Listen in your browser - HTML5 player(in browser, HTML5)
Click here to listen with your own player(launches your MP3 player)

SBTE 211400Z 31003KT 9999 BKN017 30/25 Q1013

SBTE Flight Activity (Flightaware)

Listeners: 3 out of 1246 total

Teresina Approach: 119.600
Teresina Tower: 118.800

SBRE Recife ACC (Archives)
Paulo Afonso, Brazil

Feed Status: UP
Listen in your browser - HTML5 player(in browser, HTML5)
Click here to listen with your own player(launches your MP3 player)

SBRE Flight Activity (Flightaware)

Listeners: 2 out of 1246 total

Recife Center (ACC): 125.400
Recife Center (ACC): 125.450
Recife Center (ACC): 126.850
Recife Center (ACC): 133.650
Recife Center (ACC): 134.500
Recife Center (ACC): 134.900

SBUF AFIS/Center (Archives)
Paulo Afonso, Brazil

Feed Status: UP
Listen in your browser - HTML5 player(in browser, HTML5)
Click here to listen with your own player(launches your MP3 player)

SBUF 211400Z 11009KT 9999 SCT022 33/17 Q1014

SBUF Flight Activity (Flightaware)

Listeners: 2 out of 1246 total

Paulo Afonso Radio: 125.850
Recife Center: 133.650
Recife Center: 134.500
Recife Center: 125.450

SBVT Center/Misc (Archives)
Vitoria, Brazil

Feed Status: UP
Listen in your browser - HTML5 player(in browser, HTML5)
Click here to listen with your own player(launches your MP3 player)

SBVT 211400Z 03006KT 9999 FEW030 33/25 Q1014

SBVT Flight Activity (Flightaware)

Listeners: 1 out of 1246 total

AZUL Coordination: 130.900
Brasilia Center (Sector S-10): 126.750
Brasilia Center (Sector S-10): 127.300
CHAT Coordination: 123.400
Curitiba Center (Sector S-11): 133.600
Curitiba Center (Sector S-11): 133.400
Emergency/Guard: 121.500
GOL Coordination: 131.225
LIDER Coordination: 130.400
Recife Center (Sector S-14): 124.250
Recife Center (Sector S-14): 126.550
Recife Center (Sector S-15): 134.750
Recife Center (Sector S-15): 126.550
TAM Coordination: 130.500
TRIP Coordination: 131.375

Visit Vitoria Airport Web Site

SBVT Gnd/Twr/App (Archives)
Vitoria, Brazil

Feed Status: UP
Listen in your browser - HTML5 player(in browser, HTML5)
Click here to listen with your own player(launches your MP3 player)

SBVT 211400Z 03006KT 9999 FEW030 33/25 Q1014

SBVT Flight Activity (Flightaware)

Listeners: 2 out of 1246 total

SBVT Approach: 119.850
SBVT Ground: 121.950
SBVT Tower: 118.100

Visit Vitoria Airport Web Site

SCEL Gnd/Twr/Radar (Archives)
Santiago, Chile

Feed Status: UP
Listen in your browser - HTML5 player(in browser, HTML5)
Click here to listen with your own player(launches your MP3 player)

SCEL 211400Z 15008KT 8000 NSC 20/15 Q1016 NOSIG

SCEL Flight Activity (Flightaware)

Listeners: 1 out of 1246 total

Santiago Authorizations: 121.700
Santiago Control (Lat 3323S North): 128.100
Santiago Control (Lat 3323S South): 126.300
Santiago Ground (Primary): 122.200
Santiago Ground (Secondary): 122.500
Santiago Radar (Arrival, Primary): 129.700
Santiago Radar (Arrival, Secondary): 119.700
Santiago Radar (Arrival, Secondary): 123.800
Santiago Radar (Departure, Primary): 121.100
Santiago Radar (Departure, Secondary): 123.800
Santiago Radar (Information, Primary): 122.400
Santiago Radar (Information, Secondary): 120.800
Santiago Radar (Information, Secondary): 123.800
Santiago Tower (Primary): 118.100
Santiago Tower (Secondary): 118.350
SCTB Tobalaba Tower: 118.700

SCJO Gnd/Twr (Archives)
Osorno, Chile

Feed Status: UP
Listen in your browser - HTML5 player(in browser, HTML5)
Click here to listen with your own player(launches your MP3 player)

SCJO 211400Z 17005KT 9999 OVC010 13/11 Q1015

SCJO Flight Activity (Flightaware)

Listeners: 0 out of 1246 total

Osorno Ground: 121.700
Osorno Tower: 118.900

Sponsored by: Serticom

SEGU App/Dep (Archives)
Guayaquil, Ecuador

Feed Status: UP
Listen in your browser - HTML5 player(in browser, HTML5)
Click here to listen with your own player(launches your MP3 player)

SEGU 211400Z 20002KT 9999 FEW020 BKN030 BKN100 27/25 Q1011 NOSIG RMK A2985

SEGU Flight Activity (Flightaware)

Listeners: 0 out of 1246 total

Guayaquil Approach: 120.700

SEGU Gnd/Twr (Archives)
Guayaquil, Ecuador

Feed Status: UP
Listen in your browser - HTML5 player(in browser, HTML5)
Click here to listen with your own player(launches your MP3 player)

SEGU 211400Z 20002KT 9999 FEW020 BKN030 BKN100 27/25 Q1011 NOSIG RMK A2985

SEGU Flight Activity (Flightaware)

Listeners: 0 out of 1246 total

Guayaquil Ground: 121.900
Guayaquil Tower: 118.300

SEGU Gnd/Twr/App (Archives)
Guayaquil, Ecuador

Feed Status: UP
Listen in your browser - HTML5 player(in browser, HTML5)
Click here to listen with your own player(launches your MP3 player)

SEGU 211400Z 20002KT 9999 FEW020 BKN030 BKN100 27/25 Q1011 NOSIG RMK A2985

SEGU Flight Activity (Flightaware)

Listeners: 1 out of 1246 total

Guayaquil Approach: 120.700
Guayaquil Ground: 121.900
Guayaquil Tower: 118.300

SEGU Guayaquil Center (Archives)
Guayaquil, Ecuador

Feed Status: UP
Listen in your browser - HTML5 player(in browser, HTML5)
Click here to listen with your own player(launches your MP3 player)

SEGU 211400Z 20002KT 9999 FEW020 BKN030 BKN100 27/25 Q1011 NOSIG RMK A2985

SEGU Flight Activity (Flightaware)

Listeners: 0 out of 1246 total

Guayaquil Center: 127.950
Guayaquil Center: 128.300

SEQM ATIS (Archives)
Quito, Ecuador

Feed Status: UP
Listen in your browser - HTML5 player(in browser, HTML5)
Click here to listen with your own player(launches your MP3 player)

SEQM 211400Z 31003KT 9999 FEW023 BKN080 16/13 Q1027 NOSIG RMK A3035

SEQM Flight Activity (Flightaware)

Listeners: 0 out of 1246 total

Quito ATIS: 118.700

SEQM Gnd/Twr/App (Archives)
Quito, Ecuador

Feed Status: UP
Listen in your browser - HTML5 player(in browser, HTML5)
Click here to listen with your own player(launches your MP3 player)

SEQM 211400Z 31003KT 9999 FEW023 BKN080 16/13 Q1027 NOSIG RMK A3035

SEQM Flight Activity (Flightaware)

Listeners: 1 out of 1246 total

Quito Approach/Departure: 119.700
Quito Approach/Departure: 121.200
Quito Ground: 121.900
Quito Tower: 118.100
Quito Tower (Secondary): 118.350

SEQM Tower (Archives)
Quito, Ecuador

Feed Status: UP
Listen in your browser - HTML5 player(in browser, HTML5)
Click here to listen with your own player(launches your MP3 player)

SEQM 211400Z 31003KT 9999 FEW023 BKN080 16/13 Q1027 NOSIG RMK A3035

SEQM Flight Activity (Flightaware)

Listeners: 0 out of 1246 total

Quito Tower: 118.100
Quito Tower (Secondary): 118.350

SGAS Gnd/Twr/App/Center (Archives)
Asuncion, Paraguay

Feed Status: UP
Listen in your browser - HTML5 player(in browser, HTML5)
Click here to listen with your own player(launches your MP3 player)

SGAS 211400Z 04006KT CAVOK 31/21 Q1012

SGAS Flight Activity (Flightaware)

Listeners: 1 out of 1246 total

Asuncion Approach: 119.700
Asuncion Control: 126.900
Asuncion Ground: 121.900
Asuncion Tower: 118.100

SKBO Del/Gnd/Twr/App
Bogota, Colombia

Feed Status: DOWN
Offline since: 2019-02-17 23:33:02 UTC

SKBO 211400Z 13010KT 9999 FEW018 18/07 A3037

Bogota Approach: 119.500
Bogota Clearance Delivery: 121.600
Bogota Departure (North): 121.300
Bogota Departure (South): 119.650
Bogota Ground (North): 121.800
Bogota Ground (South): 122.750
Bogota Information: 126.900
Bogota Tower (North): 118.100
Bogota Tower (South): 118.250
Guaymaral Ground: 121.700
Guaymaral Tower: 118.800

SKBQ Approach (Archives)
Barranquilla, Colombia

Feed Status: UP
Listen in your browser - HTML5 player(in browser, HTML5)
Click here to listen with your own player(launches your MP3 player)

SKBQ 211400Z 02009KT CAVOK 28/22 A2988

SKBQ Flight Activity (Flightaware)

Listeners: 1 out of 1246 total

Barranquilla Approach/Departure: 119.100

SKBQ Gnd/Twr (Archives)
Barranquilla, Colombia

Feed Status: UP
Listen in your browser - HTML5 player(in browser, HTML5)
Click here to listen with your own player(launches your MP3 player)

SKBQ 211400Z 02009KT CAVOK 28/22 A2988

SKBQ Flight Activity (Flightaware)

Listeners: 1 out of 1246 total

Barranquilla Ground: 121.900
Barranquilla Tower: 118.450
Barranquilla Tower: 118.100

HF CWP/SEA (Archives)
Pyeongtaek, Korea, Republic of

Feed Status: UP
Listen in your browser - HTML5 player(in browser, HTML5)
Click here to listen with your own player(launches your MP3 player)


Listeners: 0 out of 1246 total

CWP 1 (Tokyo): 11.384
CWP 1/2 (Tokyo): 13.300
CWP-1/2 (San Francisco): 17.904
CWP-1/2 (Tokyo/Manila): 8.903
CWP-1/2 (Tokyo/San Francisco): 21.985
SEA-2 (Manila): 8.942

Receiver location: Seoul, Korea

SPJC Approach (Archives)
Lima, Peru

Feed Status: UP
Listen in your browser - HTML5 player(in browser, HTML5)
Click here to listen with your own player(launches your MP3 player)

SPJC 211400Z VRB03KT CAVOK 28/20 Q1011 NOSIG RMK PP000

SPJC Flight Activity (Flightaware)

Listeners: 1 out of 1246 total

Lima Approach: 119.700

SPJC Ground (Archives)
Lima, Peru

Feed Status: UP
Listen in your browser - HTML5 player(in browser, HTML5)
Click here to listen with your own player(launches your MP3 player)

SPJC 211400Z VRB03KT CAVOK 28/20 Q1011 NOSIG RMK PP000

SPJC Flight Activity (Flightaware)

Listeners: 1 out of 1246 total

Lima Ground: 121.900

SPJC Tower (Archives)
Lima, Peru

Feed Status: UP
Listen in your browser - HTML5 player(in browser, HTML5)
Click here to listen with your own player(launches your MP3 player)

SPJC 211400Z VRB03KT CAVOK 28/20 Q1011 NOSIG RMK PP000

SPJC Flight Activity (Flightaware)

Listeners: 0 out of 1246 total

Lima Tower: 118.100

SSBL Air to Air (Archives)
Blumenau, Brazil

Feed Status: UP
Listen in your browser - HTML5 player(in browser, HTML5)
Click here to listen with your own player(launches your MP3 player)

METAR NOT AVAILABLE

SSBL Flight Activity (Flightaware)

Listeners: 0 out of 1246 total

Air to Air: 123.450

SUMU Twr/App (Archives)
Montevideo, Uruguay

Feed Status: UP
Listen in your browser - HTML5 player(in browser, HTML5)
Click here to listen with your own player(launches your MP3 player)

SUMU 211400Z 11012KT CAVOK 28/20 Q1014 NOSIG

SUMU Flight Activity (Flightaware)

Listeners: 2 out of 1246 total

SUMU Approach: 119.200
SUMU Tower: 118.100

Sponsored by Aeroclub Aerosur - Escuela de Vuelo

SUMU Twr/App/Radar (Archives)
Montevideo, Uruguay

Feed Status: UP
Listen in your browser - HTML5 player(in browser, HTML5)
Click here to listen with your own player(launches your MP3 player)

SUMU 211400Z 11012KT CAVOK 28/20 Q1014 NOSIG

SUMU Flight Activity (Flightaware)

Listeners: 1 out of 1246 total

SUMU Approach: 120.200
SUMU Approach: 119.200
SUMU Info: 121.800
SUMU Informacion: 121.800
SUMU Radar Control: 128.500
SUMU Radar Control: 126.300
SUMU Radar Control: 128.000
SUMU Tower: 118.100

Feed provided by:

Volemos.com.uy

Aviación Uruguaya - Volemos.com.uy

SUPU/SUPC Misc (Archives)
Paysandu, Uruguay

Feed Status: UP
Listen in your browser - HTML5 player(in browser, HTML5)
Click here to listen with your own player(launches your MP3 player)

SUPU 040900Z 10005KT 9999 FEW020TCU BKN070 FEW200 23/23 Q1010

SUPU Flight Activity (Flightaware)

Listeners: 0 out of 1246 total

Chalkling Tower: 118.700
Paysandu Tower: 118.200

Courtesy of: Aeroclub Paysandu

SVZM FIR #1
Maiquetia, Venezuela

Feed Status: DOWN
Offline since: 2019-02-20 23:41:02 UTC

SVMI 211400Z 09003KT 9999 FEW016 26/20 Q1013

Maiquetia Center (North/Centra/Coastal): 128.500
Maiquetia Center (South/Central): 127.950
Maiquetia Center (Southeast): 128.700

SVZM FIR #2
Maiquetia, Venezuela

Feed Status: DOWN
Offline since: 2019-02-20 23:41:02 UTC

SVMI 211400Z 09003KT 9999 FEW016 26/20 Q1013

Maiquetia Center (Northeast): 125.200
Maiquetia Center (Northeast): 126.600
Maiquetia Center (Southeast): 126.000

SVPR Twr/App/FIR (Archives)
Ciudad Guayana, Venezuela

Feed Status: UP
Listen in your browser - HTML5 player(in browser, HTML5)
Click here to listen with your own player(launches your MP3 player)

SVPR Flight Activity (Flightaware)

Listeners: 0 out of 1246 total

Emergency/Guard: 121.500
FIR 6: 126.000
Guayana Approach (Primary): 119.500
Guayana Approach (Secondary): 120.300
Guayana Tower (Primary): 118.000
Guayana Tower (Secondary): 123.500
SMC: 121.900

SVVA Gnd/Twr/App (Archives)
Valencia, Venezuela

Feed Status: UP
Listen in your browser - HTML5 player(in browser, HTML5)
Click here to listen with your own player(launches your MP3 player)

SVVA 171503Z ///// 9999 FEW020 29/20 Q1018

SVVA Flight Activity (Flightaware)

Listeners: 2 out of 1246 total

Libertador Approach: 119.300
Valencia Ground: 121.900
Valencia Tower: 121.200

TBPB Gnd/Twr/Radar/Center (Archives)
Bridgetown, Barbados

Feed Status: UP
Listen in your browser - HTML5 player(in browser, HTML5)
Click here to listen with your own player(launches your MP3 player)

TBPB 211400Z 10022KT 7000 -SHRA FEW016 BKN036 27/20 Q1018 NOSIG

TBPB Flight Activity (Flightaware)

Listeners: 0 out of 1246 total

Adams Approach/Departure: 129.350
Adams Approach/Departure: 128.850
Adams Ground: 121.900
Adams Tower: 118.700
Piarco Center: 123.700

TNCA Twr/Apron/FIR (Archives)
Oranjestad, Aruba

Feed Status: UP
Listen in your browser - HTML5 player(in browser, HTML5)
Click here to listen with your own player(launches your MP3 player)

TNCA 211400Z 09023KT 9999 SCT022 28/21 Q1015 NOSIG

TNCA Flight Activity (Flightaware)

Listeners: 0 out of 1246 total

Beatrix Ground (Apron): 121.600
Beatrix Tower: 120.900
Beatrix Tower (secondary): 118.000
Curacao Control: 127.100
Emergency/Guard: 121.500
Search/Rescue: 123.100

NOTES: OurAirports.com

TNCB Tower (Archives)
Kralendijk, Bonaire

Feed Status: UP
Listen in your browser - HTML5 player(in browser, HTML5)
Click here to listen with your own player(launches your MP3 player)

TNCB 211355Z 10015KT 060V140 9999 FEW018 BKN021 BKN027 28/21 Q1016

TNCB Flight Activity (Flightaware)

Listeners: 1 out of 1246 total

Bonaire Tower: 118.700

TNCC Curacao Control (Archives)
Willemstad, Curacao

Feed Status: UP
Listen in your browser - HTML5 player(in browser, HTML5)
Click here to listen with your own player(launches your MP3 player)

TNCC 211400Z AUTO 10014KT 9999 NCD 28/21 Q1016 NOSIG

TNCC Flight Activity (Flightaware)

Listeners: 3 out of 1246 total

Curacao Control: 124.100
Curacao Control: 127.100

TNCC Tower/Radar (Archives)
Willemstad, Curacao

Feed Status: UP
Listen in your browser - HTML5 player(in browser, HTML5)
Click here to listen with your own player(launches your MP3 player)

TNCC 211400Z AUTO 10014KT 9999 NCD 28/21 Q1016 NOSIG

TNCC Flight Activity (Flightaware)

Listeners: 2 out of 1246 total

Hato Radar: 119.600
Hato Tower: 118.300

TNCC Twr/Radar/Control (Archives)
Willemstad, Curacao

Feed Status: UP
Listen in your browser - HTML5 player(in browser, HTML5)
Click here to listen with your own player(launches your MP3 player)

TNCC 211400Z AUTO 10014KT 9999 NCD 28/21 Q1016 NOSIG

TNCC Flight Activity (Flightaware)

Listeners: 0 out of 1246 total

Curacao Control: 127.100
Hato Radar: 119.600
Hato Tower: 118.300

TNCE Info (Archives)
Oranjestad, Sint Eustatius

Feed Status: UP
Listen in your browser - HTML5 player(in browser, HTML5)
Click here to listen with your own player(launches your MP3 player)

TNCE 211355Z AUTO 06019KT 030V090 //// // ///////// 28/18 Q1021 RE//

TNCE Flight Activity (Flightaware)

Listeners: 1 out of 1246 total

Statia Info: 118.100

TTCP Gnd/Twr/App (Archives)
Scarborough, Trinidad and Tobago

Feed Status: UP
Listen in your browser - HTML5 player(in browser, HTML5)
Click here to listen with your own player(launches your MP3 player)

TTCP 211400Z 10012KT 9999 SCT018 30/19 Q1017 NOSIG

TTCP Flight Activity (Flightaware)

Listeners: 0 out of 1246 total

Piarco Approach: 119.000
Robinson Ground: 121.700
Robinson Tower: 118.400

TTPP Apron/Gnd/Twr (Archives)
Port of Spain, Trinidad and Tobago

Feed Status: UP
Listen in your browser - HTML5 player(in browser, HTML5)
Click here to listen with your own player(launches your MP3 player)

TTPP 211400Z 11015KT 9999 VCSH SCT018 29/22 Q1017 NOSIG RMK VCSH NE N

TTPP Flight Activity (Flightaware)

Listeners: 1 out of 1246 total

Piarco Apron: 121.750
Piarco Ground: 121.900
Piarco Tower: 118.100

TTPP Piarco Approach (Archives)
Port of Spain, Trinidad and Tobago

Feed Status: UP
Listen in your browser - HTML5 player(in browser, HTML5)
Click here to listen with your own player(launches your MP3 player)

TTPP 211400Z 11015KT 9999 VCSH SCT018 29/22 Q1017 NOSIG RMK VCSH NE N

TTPP Flight Activity (Flightaware)

Listeners: 2 out of 1246 total

Piarco Approach: 119.550
Piarco Approach: 119.000
Piarco Approach (backup): 124.000

TTPP Piarco Center (Archives)
Port of Spain, Trinidad and Tobago

Feed Status: UP
Listen in your browser - HTML5 player(in browser, HTML5)
Click here to listen with your own player(launches your MP3 player)

TTPP 211400Z 11015KT 9999 VCSH SCT018 29/22 Q1017 NOSIG RMK VCSH NE N

TTPP Flight Activity (Flightaware)

Listeners: 1 out of 1246 total

Piarco Center: 123.700
Piarco Center (Oceanic): 126.500
Piarco Center (South Sector): 125.400
Piarco Center Oceanic (Backup): 133.100

TXKF Tower/Ground (Archives)
Hamilton, Bermuda

Feed Status: UP
Listen in your browser - HTML5 player(in browser, HTML5)
Click here to listen with your own player(launches your MP3 player)

TXKF 211355Z 21010KT 170V230 9999 SCT032 SCT300 18/11 Q1026

TXKF Flight Activity (Flightaware)

Listeners: 0 out of 1246 total

Bermuda CTAF: 122.800
Bermuda Ground/Clearance: 124.500
Bermuda Tower: 118.100

ZNY Bermuda Sector (Archives)
Hamilton, Bermuda

Feed Status: UP
Listen in your browser - HTML5 player(in browser, HTML5)
Click here to listen with your own player(launches your MP3 player)

TXKF 211355Z 21010KT 170V230 9999 SCT032 SCT300 18/11 Q1026

TXKF Flight Activity (Flightaware)

Listeners: 0 out of 1246 total

New York Approach (Bermuda Sector) : 119.100
New York Center (Bermuda Sector): 128.500

UAAA Approach (Archives)
Almaty, Kazakhstan

Feed Status: UP
Listen in your browser - HTML5 player(in browser, HTML5)
Click here to listen with your own player(launches your MP3 player)

UAAA 211400Z 08003MPS 040V100 9999 SCT050CB BKN100 M02/M06 Q1034 R88/2/0150 NOSIG

UAAA Flight Activity (Flightaware)

Listeners: 0 out of 1246 total

Almaty Approach: 124.800

UAAA Tower (Archives)
Almaty, Kazakhstan

Feed Status: UP
Listen in your browser - HTML5 player(in browser, HTML5)
Click here to listen with your own player(launches your MP3 player)

UAAA 211400Z 08003MPS 040V100 9999 SCT050CB BKN100 M02/M06 Q1034 R88/2/0150 NOSIG

UAAA Flight Activity (Flightaware)

Listeners: 0 out of 1246 total

Almaty Tower: 119.400

UAAA Tower/Approach (Archives)
Almaty, Kazakhstan

Feed Status: UP
Listen in your browser - HTML5 player(in browser, HTML5)
Click here to listen with your own player(launches your MP3 player)

UAAA 211400Z 08003MPS 040V100 9999 SCT050CB BKN100 M02/M06 Q1034 R88/2/0150 NOSIG

UAAA Flight Activity (Flightaware)

Listeners: 1 out of 1246 total

Almaty Approach: 124.800
Almaty Tower: 119.400

UNNT Gnd/Twr/App/Radar/Misc (Archives)
Novosibirsk, Russia

Feed Status: UP
Listen in your browser - HTML5 player(in browser, HTML5)
Click here to listen with your own player(launches your MP3 player)

UNNT 211400Z 23007MPS 9999 DRSN BKN033 M06/M11 Q1027 R25/490144 R16/490144 NOSIG RMK QFE760/1013

UNNT Flight Activity (Flightaware)

Listeners: 6 out of 1246 total

ACC_Novosibirsk-Control [5th military channel]: 128.500
ACC_Novosibirsk-Control [Southeast]: 126.100
ACC_Novosibirsk-Control [West]: 127.000
GPA_Kristallik [Severniy airfield]: 123.425
GPA_Sernisiy [Chkalovskiy airfield]: 124.750
GPA_Tomsk Information 1: 134.500
MIL_3 [3rd military channel]: 130.750
MIL_Larek [Shilovo facility]: 123.750
MIL_Maneken [Chkalovskiy airfield]: 123.550
MIL_Novosibirsk-1 [1st military channel]: 124.000
MIL_Noyabr' 31: 124.900
MIL_Trimaran: 124.500
SP_Air-to-Air: 123.450
SP_Air-to-Air 2: 123.400
SP_Common backup frequency: 129.000
SP_Emergency: 121.500
SP_Emergency 2: 123.100
SP_Flyoff: 124.375
SURF_Boarding: 163.425
SURF_Duty chart: 163.800
SURF_O&D Service: 163.325
SURF_Search & Rescue: 164.000
SURF_Security: 163.750
SURF_Tower surf: 163.650
SURF_Vehicles: 163.850
UNNT_Backup frequency: 127.100
UNNT_Novosibirsk-Approach: 127.500
UNNT_Novosibirsk-Ground: 121.700
UNNT_Novosibirsk-Radar: 122.000
UNNT_Novosibirsk-Tower: 118.500
UNNT_Novosibirsk-Transit: 131.600
UNNT_S7 FOCC: 131.925

UNOO Gnd/Tower/App (Archives)
Omsk, Russia

Feed Status: UP
Listen in your browser - HTML5 player(in browser, HTML5)
Click here to listen with your own player(launches your MP3 player)

UNOO 211400Z 19004MPS 9999 3700SE FU NSC M14/M16 Q1023 R25/810555 NOSIG RMK QFE759

UNOO Flight Activity (Flightaware)

Listeners: 1 out of 1246 total

Aerodrom Kalachevo: 123.300
Aerodrom Marianovka: 123.000
Emergency/Guard: 121.500
Novosibirsk Control (Sector 7): 132.500
Novosibirsk Control (Sector 8): 132.900
Omsk Approach (FL060-FL265): 131.200
Omsk Apron: 118.800
Omsk Start/Radar: 119.000
Omsk Taxiing: 121.700
Omsk Transit: 131.700
UNOS/OMSK-Severny: 124.000

UNTT Gnd/Info/Radar/Control (Archives)
Tomsk, Russia

Feed Status: UP
Listen in your browser - HTML5 player(in browser, HTML5)
Click here to listen with your own player(launches your MP3 player)

UNTT Flight Activity (Flightaware)

Listeners: 0 out of 1246 total

Common Backup Frequency: 129.000
Emergency/Guard: 121.500
Novosibirsk Control (Sector 2): 126.100
Novosibirsk Control (Sector 3): 129.300
Novosibirsk Control (Sector 5): 132.300
Tomsk Ground: 118.800
Tomsk Information 1: 134.500
Tomsk Krug (Radar): 127.300
Tomsk Transit: 131.875
Troynik (Golovino): 122.400

URKK Gnd/Twr/App (Archives)
Krasnodar, Russia

Feed Status: UP
Listen in your browser - HTML5 player(in browser, HTML5)
Click here to listen with your own player(launches your MP3 player)

URKK 211400Z 26007MPS 9999 FEW050CB 09/00 Q1016 R23L/290060 NOSIG RMK QFE759

URKK Flight Activity (Flightaware)

Listeners: 1 out of 1246 total

Krasnodar Approach: 129.600
Krasnodar Ground: 119.000
Krasnodar Radar: 121.300
Krasnodar Tower: 118.200

URMT Twr/App/Control (Archives)
Stavropol, Russia

Feed Status: UP
Listen in your browser - HTML5 player(in browser, HTML5)
Click here to listen with your own player(launches your MP3 player)

URMT 211400Z 30006MPS 9999 FEW033 06/M00 Q1013 R25/010070 NOSIG RMK QFE721

URMT Flight Activity (Flightaware)

Listeners: 0 out of 1246 total

Stavropol Approach: 120.300
Stavropol Control: 118.250
Stavropol Tower: 120.900

URSS Gnd/Twr/App (Archives)
Sochi, Russia

Feed Status: UP
Listen in your browser - HTML5 player(in browser, HTML5)
Click here to listen with your own player(launches your MP3 player)

URSS 211400Z 15002MPS 9999 SCT100 10/03 Q1019 R02/090070 R06/////// NOSIG RMK R06/17002MPS QFE763

URSS Flight Activity (Flightaware)

Listeners: 0 out of 1246 total

Sochi Approach: 118.300
Sochi Approach: 119.700
Sochi District (Small Aircraft): 118.500
Sochi Start: 121.200
Sochi Taxi: 119.000
Sochi Tower: 124.600

USCC Twr/App/Control (Archives)
Chelyabinsk, Russia

Feed Status: UP
Listen in your browser - HTML5 player(in browser, HTML5)
Click here to listen with your own player(launches your MP3 player)

USCC 211400Z 20006MPS 9999 SCT040 M03/M11 Q1010 R27/000060 TEMPO 20010MPS 1200 SN BLSN VV003 RMK QFE738

USCC Flight Activity (Flightaware)

Listeners: 0 out of 1246 total

Airfield Services: 163.380
Airfield Services: 163.500
Airfield Services: 163.950
Airfield Services: 164.150
Chelyabinsk Approach: 124.700
Chelyabinsk Control (North): 125.400
Chelyabinsk Control (South): 125.500
Chelyabinsk Tower: 125.200
Chelyabinsk Transit: 131.600
Emergency/Guard: 121.500

USDD Gnd/Twr/App/Control (Archives)
Salekhard, Russia

Feed Status: UP
Listen in your browser - HTML5 player(in browser, HTML5)
Click here to listen with your own player(launches your MP3 player)

USDD 150530Z 05007MPS 9999 -SHRA BKN009CB 09/07 Q1002 R04/290060 NOSIG RMK QFE746/0994

USDD Flight Activity (Flightaware)

Listeners: 0 out of 1246 total

Salekhard Control: 132.300
Salekhard Ground: 118.800
Salekhard Info: 125.200
Salekhard Krug: 120.800
Salekhard Tower: 118.600
Salekhard Transit: 131.700

USTR Gnd/Twr/App (Archives)
Tyumen, Russia

Feed Status: UP
Listen in your browser - HTML5 player(in browser, HTML5)
Click here to listen with your own player(launches your MP3 player)

USTR 211400Z 21005MPS 9999 BKN046 M08/M12 Q1010 R21/CLRD65 NOSIG RMK QFE748/0998

USTR Flight Activity (Flightaware)

Listeners: 0 out of 1246 total

Tyumen Approach: 126.100
Tyumen Control: 132.600
Tyumen Control: 133.600
Tyumen Info (Regional): 133.400
Tyumen Start: 118.200
Tyumen Transit: 131.800

USUU Twr/App/Control (Archives)
Kurgan, Russia

Feed Status: UP
Listen in your browser - HTML5 player(in browser, HTML5)
Click here to listen with your own player(launches your MP3 player)

USUU Flight Activity (Flightaware)

Listeners: 0 out of 1246 total

Aerodromnaya 50: 164.100
Baggage Handling: 164.025
Kurgan Approach: 120.300
Kurgan Tower: 134.300
Kurgan/USUU Transit: 131.700
Kurtamysh: 122.450
Ural Control Sector 4: 119.700
USUL Tower: 129.600

UUDD Twr/App (Archives)
Moscow, Russia

Feed Status: UP
Listen in your browser - HTML5 player(in browser, HTML5)
Click here to listen with your own player(launches your MP3 player)

UUDD 211400Z 32010MPS 3000 -SHSN BKN017CB M04/M07 Q0998 R32L/590393 R32R/550293 NOSIG

UUDD Flight Activity (Flightaware)

Listeners: 1 out of 1246 total

Domodedovo Tower: 118.600
Moscow Approach: 125.300
Moscow Approach: 127.700

VCBI Director
Colombo, Sri Lanka

Feed Status: DOWN
Offline since: 2019-02-21 13:24:04 UTC

VCBI 211410Z 05014KT 9999 FEW018 29/20 Q1012 NOSIG

Colombo Director: 132.400

VHHH Approach 119.1 #1 (Archives)
Hong Kong, Hong Kong

Feed Status: UP
Listen in your browser - HTML5 player(in browser, HTML5)
Click here to listen with your own player(launches your MP3 player)

VHHH 211400Z 13010KT 110V190 9999 FEW020 24/20 Q1016 NOSIG

VHHH Flight Activity (Flightaware)

Listeners: 1 out of 1246 total

Hong Kong Approach: 119.100

VHHH Approach 119.1 #2 (Archives)
Hong Kong, Hong Kong

Feed Status: UP
Listen in your browser - HTML5 player(in browser, HTML5)
Click here to listen with your own player(launches your MP3 player)

VHHH 211400Z 13010KT 110V190 9999 FEW020 24/20 Q1016 NOSIG

VHHH Flight Activity (Flightaware)

Listeners: 0 out of 1246 total

Hong Kong Approach: 119.100

VHHH ATIS (Archives)
Hong Kong, Hong Kong

Feed Status: UP
Listen in your browser - HTML5 player(in browser, HTML5)
Click here to listen with your own player(launches your MP3 player)

VHHH 211400Z 13010KT 110V190 9999 FEW020 24/20 Q1016 NOSIG

VHHH Flight Activity (Flightaware)

Listeners: 0 out of 1246 total

Hong Kong Arrival ATIS: 128.200

VHHH Clearance Delivery (Archives)
Hong Kong, Hong Kong

Feed Status: UP
Listen in your browser - HTML5 player(in browser, HTML5)
Click here to listen with your own player(launches your MP3 player)

VHHH 211400Z 13010KT 110V190 9999 FEW020 24/20 Q1016 NOSIG

VHHH Flight Activity (Flightaware)

Listeners: 0 out of 1246 total

Hong Kong Clearance Delivery: 129.900

VHHH Departure (Primary) (Archives)
Hong Kong, Hong Kong

Feed Status: UP
Listen in your browser - HTML5 player(in browser, HTML5)
Click here to listen with your own player(launches your MP3 player)

VHHH 211400Z 13010KT 110V190 9999 FEW020 24/20 Q1016 NOSIG

VHHH Flight Activity (Flightaware)

Listeners: 1 out of 1246 total

Hong Kong Departure: 123.800

VHHH Director #1 (Archives)
Hong Kong, Hong Kong

Feed Status: UP
Listen in your browser - HTML5 player(in browser, HTML5)
Click here to listen with your own player(launches your MP3 player)

VHHH 211400Z 13010KT 110V190 9999 FEW020 24/20 Q1016 NOSIG

VHHH Flight Activity (Flightaware)

Listeners: 0 out of 1246 total

Hong Kong Director: 119.500

VHHH Director #2
Hong Kong, Hong Kong

Feed Status: DOWN
Offline since: 2019-02-21 14:54:02 UTC

VHHH 211400Z 13010KT 110V190 9999 FEW020 24/20 Q1016 NOSIG

Hong Kong Director: 119.500

VHHH Ground (Archives)
Hong Kong, Hong Kong

Feed Status: UP
Listen in your browser - HTML5 player(in browser, HTML5)
Click here to listen with your own player(launches your MP3 player)

VHHH 211400Z 13010KT 110V190 9999 FEW020 24/20 Q1016 NOSIG

VHHH Flight Activity (Flightaware)

Listeners: 0 out of 1246 total

Hong Kong Ground (North): 121.600
Hong Kong Ground (South): 122.550

VHHH Ground (North) (Archives)
Hong Kong, Hong Kong

Feed Status: UP
Listen in your browser - HTML5 player(in browser, HTML5)
Click here to listen with your own player(launches your MP3 player)

VHHH 211400Z 13010KT 110V190 9999 FEW020 24/20 Q1016 NOSIG

VHHH Flight Activity (Flightaware)

Listeners: 1 out of 1246 total

Hong Kong Ground (North): 121.600

VHHH Ground (South) (Archives)
Hong Kong, Hong Kong

Feed Status: UP
Listen in your browser - HTML5 player(in browser, HTML5)
Click here to listen with your own player(launches your MP3 player)

VHHH 211400Z 13010KT 110V190 9999 FEW020 24/20 Q1016 NOSIG

VHHH Flight Activity (Flightaware)

Listeners: 0 out of 1246 total

Hong Kong Ground (South): 122.550

VHHH Hong Kong Radar
Hong Kong, Hong Kong

Feed Status: DOWN
Offline since: 2019-02-18 09:54:03 UTC

VHHH 211400Z 13010KT 110V190 9999 FEW020 24/20 Q1016 NOSIG

Hong Kong Radar: 123.950

VHHH Tower (Archives)
Hong Kong, Hong Kong

Feed Status: UP
Listen in your browser - HTML5 player(in browser, HTML5)
Click here to listen with your own player(launches your MP3 player)

VHHH 211400Z 13010KT 110V190 9999 FEW020 24/20 Q1016 NOSIG

VHHH Flight Activity (Flightaware)

Listeners: 0 out of 1246 total

Hong Kong Tower (North): 118.200
Hong Kong Tower (South): 118.400

VHHH Tower (North) (Archives)
Hong Kong, Hong Kong

Feed Status: UP
Listen in your browser - HTML5 player(in browser, HTML5)
Click here to listen with your own player(launches your MP3 player)

VHHH 211400Z 13010KT 110V190 9999 FEW020 24/20 Q1016 NOSIG

VHHH Flight Activity (Flightaware)

Listeners: 0 out of 1246 total

Hong Kong Tower (North): 118.200

VHHH Tower (South) (Archives)
Hong Kong, Hong Kong

Feed Status: UP
Listen in your browser - HTML5 player(in browser, HTML5)
Click here to listen with your own player(launches your MP3 player)

VHHH 211400Z 13010KT 110V190 9999 FEW020 24/20 Q1016 NOSIG

VHHH Flight Activity (Flightaware)

Listeners: 1 out of 1246 total

Hong Kong Tower (South): 118.400

VHHH Zone (Archives)
Hong Kong, Hong Kong

Feed Status: UP
Listen in your browser - HTML5 player(in browser, HTML5)
Click here to listen with your own player(launches your MP3 player)

VHHH 211400Z 13010KT 110V190 9999 FEW020 24/20 Q1016 NOSIG

VHHH Flight Activity (Flightaware)

Listeners: 0 out of 1246 total

Hong Kong Zone: 120.600

VTBS Approach (East) (Archives)
Bangkok, Thailand

Feed Status: UP
Listen in your browser - HTML5 player(in browser, HTML5)
Click here to listen with your own player(launches your MP3 player)

VTBS 211400Z 20009KT 9999 FEW030 28/24 Q1013 NOSIG

VTBS Flight Activity (Flightaware)

Listeners: 0 out of 1246 total

Bangkok Approach (East): 122.350

VTBS Approach (North) (Archives)
Bangkok, Thailand

Feed Status: UP
Listen in your browser - HTML5 player(in browser, HTML5)
Click here to listen with your own player(launches your MP3 player)

VTBS 211400Z 20009KT 9999 FEW030 28/24 Q1013 NOSIG

VTBS Flight Activity (Flightaware)

Listeners: 0 out of 1246 total

Bangkok Approach (North): 121.700

VTBS Approach 119.1 (Archives)
Bangkok, Thailand

Feed Status: UP
Listen in your browser - HTML5 player(in browser, HTML5)
Click here to listen with your own player(launches your MP3 player)

VTBS 211400Z 20009KT 9999 FEW030 28/24 Q1013 NOSIG

VTBS Flight Activity (Flightaware)

Listeners: 0 out of 1246 total

Bangkok Approach: 119.100

VTBS Approach 119.4 (Archives)
Bangkok, Thailand

Feed Status: UP
Listen in your browser - HTML5 player(in browser, HTML5)
Click here to listen with your own player(launches your MP3 player)

VTBS 211400Z 20009KT 9999 FEW030 28/24 Q1013 NOSIG

VTBS Flight Activity (Flightaware)

Listeners: 0 out of 1246 total

Bangkok Approach: 119.400

VTBS Approach 120.3 (Archives)
Bangkok, Thailand

Feed Status: UP
Listen in your browser - HTML5 player(in browser, HTML5)
Click here to listen with your own player(launches your MP3 player)

VTBS 211400Z 20009KT 9999 FEW030 28/24 Q1013 NOSIG

VTBS Flight Activity (Flightaware)

Listeners: 0 out of 1246 total

Bangkok Approach: 120.300

VTBS Approach/Arrival (Archives)
Bangkok, Thailand

Feed Status: UP
Listen in your browser - HTML5 player(in browser, HTML5)
Click here to listen with your own player(launches your MP3 player)

VTBS 211400Z 20009KT 9999 FEW030 28/24 Q1013 NOSIG

VTBS Flight Activity (Flightaware)

Listeners: 0 out of 1246 total

Bangkok Approach: 124.350
Bangkok Approach: 125.200
Bangkok Approach: 124.700
Bangkok Approach: 126.300
Bangkok Approach: 133.400
Bangkok Arrival (VTBD): 125.500

VTBS Arrival 121.1 (Archives)
Bangkok, Thailand

Feed Status: UP
Listen in your browser - HTML5 player(in browser, HTML5)
Click here to listen with your own player(launches your MP3 player)

VTBS 211400Z 20009KT 9999 FEW030 28/24 Q1013 NOSIG

VTBS Flight Activity (Flightaware)

Listeners: 0 out of 1246 total

Bangkok Arrival: 121.100

VTBS ATIS (Archives)
Bangkok, Thailand

Feed Status: UP
Listen in your browser - HTML5 player(in browser, HTML5)
Click here to listen with your own player(launches your MP3 player)

VTBS 211400Z 20009KT 9999 FEW030 28/24 Q1013 NOSIG

VTBS Flight Activity (Flightaware)

Listeners: 0 out of 1246 total

Bangkok D-ATIS: 133.600

VTBS Control (FIR) (Archives)
Bangkok, Thailand

Feed Status: UP
Listen in your browser - HTML5 player(in browser, HTML5)
Click here to listen with your own player(launches your MP3 player)

VTBS 211400Z 20009KT 9999 FEW030 28/24 Q1013 NOSIG

VTBS Flight Activity (Flightaware)

Listeners: 0 out of 1246 total

Bangkok FIR (Sector 3): 135.500

VTBS Departure (Archives)
Bangkok, Thailand

Feed Status: UP
Listen in your browser - HTML5 player(in browser, HTML5)
Click here to listen with your own player(launches your MP3 player)

VTBS 211400Z 20009KT 9999 FEW030 28/24 Q1013 NOSIG

VTBS Flight Activity (Flightaware)

Listeners: 0 out of 1246 total

Bangkok Departure: 119.250

VTBS Ground (East) (Archives)
Bangkok, Thailand

Feed Status: UP
Listen in your browser - HTML5 player(in browser, HTML5)
Click here to listen with your own player(launches your MP3 player)

VTBS 211400Z 20009KT 9999 FEW030 28/24 Q1013 NOSIG

VTBS Flight Activity (Flightaware)

Listeners: 0 out of 1246 total

Bangkok Ground (East): 121.650

VTBS Ground (Main) (Archives)
Bangkok, Thailand

Feed Status: UP
Listen in your browser - HTML5 player(in browser, HTML5)
Click here to listen with your own player(launches your MP3 player)

VTBS 211400Z 20009KT 9999 FEW030 28/24 Q1013 NOSIG

VTBS Flight Activity (Flightaware)

Listeners: 0 out of 1246 total

Bangkok Ground (Main): 121.750

VTBS Ground (West) (Archives)
Bangkok, Thailand

Feed Status: UP
Listen in your browser - HTML5 player(in browser, HTML5)
Click here to listen with your own player(launches your MP3 player)

VTBS 211400Z 20009KT 9999 FEW030 28/24 Q1013 NOSIG

VTBS Flight Activity (Flightaware)

Listeners: 1 out of 1246 total

Bangkok Ground (West): 121.950

VTBS Tower (Archives)
Bangkok, Thailand

Feed Status: UP
Listen in your browser - HTML5 player(in browser, HTML5)
Click here to listen with your own player(launches your MP3 player)

VTBS 211400Z 20009KT 9999 FEW030 28/24 Q1013 NOSIG

VTBS Flight Activity (Flightaware)

Listeners: 1 out of 1246 total

Bangkok Tower (Rwy 01L/19R): 119.000
Bangkok Tower (Rwy 01R/19L): 118.200

VTBS Tower (Rwy 01L/19R) (Archives)
Bangkok, Thailand

Feed Status: UP
Listen in your browser - HTML5 player(in browser, HTML5)
Click here to listen with your own player(launches your MP3 player)

VTBS 211400Z 20009KT 9999 FEW030 28/24 Q1013 NOSIG

VTBS Flight Activity (Flightaware)

Listeners: 0 out of 1246 total

Bangkok Tower (Rwy 01L/19R): 119.000

VTBS Tower (Rwy 01R/19L) (Archives)
Bangkok, Thailand

Feed Status: UP
Listen in your browser - HTML5 player(in browser, HTML5)
Click here to listen with your own player(launches your MP3 player)

VTBS 211400Z 20009KT 9999 FEW030 28/24 Q1013 NOSIG

VTBS Flight Activity (Flightaware)

Listeners: 1 out of 1246 total

Bangkok Tower (Rwy 01R/19L): 118.200

VTSS Approach (Archives)
Songkhla, Thailand

Feed Status: UP
Listen in your browser - HTML5 player(in browser, HTML5)
Click here to listen with your own player(launches your MP3 player)

VTSS 211400Z 00000KT 9999 SCT020 SCT100 27/24 Q1013 NOSIG

VTSS Flight Activity (Flightaware)

Listeners: 0 out of 1246 total

Hat Yai Approach: 126.700

WAHH Approach
Yogyakarta, Indonesia

Feed Status: DOWN
Offline since: 2019-01-09 17:03:03 UTC

Adisutjipto Approach: 123.400

WARR Gnd/Twr/Radar (Archives)
Surabaya, Indonesia

Feed Status: UP
Listen in your browser - HTML5 player(in browser, HTML5)
Click here to listen with your own player(launches your MP3 player)

WARR 211400Z 10006KT 8000 SCT020 28/25 Q1013 NOSIG


Listeners: 2 out of 1246 total

Juanda Ground: 119.150
Juanda Tower: 118.300
Surabaya Director: 123.200
Surabaya East Control: 124.000
Surabaya West Control: 125.100

WBKK Gnd/Twr/App (Archives)
Kota Kinabalu, Malaysia

Feed Status: UP
Listen in your browser - HTML5 player(in browser, HTML5)
Click here to listen with your own player(launches your MP3 player)

WBKK 211400Z 12004KT 9999 FEW015 BKN280 27/24 Q1012 NOSIG


Listeners: 1 out of 1246 total

Kinabalu Director: 119.100
Kinabalu Ground: 121.600
Kinabalu Radar: 126.100
Kinabalu Radar: 132.450
Kinabalu Tower: 118.300

WBKK Gnd/Twr/Radar/Control (Archives)
Kota Kinabalu, Malaysia

Feed Status: UP
Listen in your browser - HTML5 player(in browser, HTML5)
Click here to listen with your own player(launches your MP3 player)

WBKK 211400Z 12004KT 9999 FEW015 BKN280 27/24 Q1012 NOSIG


Listeners: 0 out of 1246 total

Kinabalu Director: 119.100
Kinabalu Ground: 121.600
Kinabalu Radar: 126.100
Kinabalu Radar: 132.450
Kinabalu Radar: 128.300
Kinabalu Tower: 118.300

WMKB Radar (Archives)
Penang, Malaysia

Feed Status: UP
Listen in your browser - HTML5 player(in browser, HTML5)
Click here to listen with your own player(launches your MP3 player)

WMKB 211400Z 08004KT 8000 FEW017CB SCT140 BKN270 28/25 Q1012 NOSIG


Listeners: 2 out of 1246 total

Butterworth Radar: 125.800

YADG CTAF (Archives)
Sellicks Hill, South Australia, Australia

Feed Status: UP
Listen in your browser - HTML5 player(in browser, HTML5)
Click here to listen with your own player(launches your MP3 player)

YADG Flight Activity (Flightaware)

Listeners: 0 out of 1246 total

Aldinga CTAF: 127.150

YBAF Gnd/Twr #2 (Archives)
Brisbane, Queensland, Australia

Feed Status: UP
Listen in your browser - HTML5 player(in browser, HTML5)
Click here to listen with your own player(launches your MP3 player)

YBAF Flight Activity (Flightaware)

Listeners: 0 out of 1246 total

Brisbane Ground: 119.900
Brisbane Tower (North): 123.600
Brisbane Tower/CTAF (South): 118.100

YBAS Tower/Center (Archives)
Alice Springs, Northern Territory, Australia

Feed Status: UP
Listen in your browser - HTML5 player(in browser, HTML5)
Click here to listen with your own player(launches your MP3 player)

YBAS 211400Z AUTO 13005KT 9999 // NCD 23/M03 Q1016

YBAS Flight Activity (Flightaware)

Listeners: 0 out of 1246 total

Alice Tower/CTAF: 118.300
Melbourne Center (above FL280): 128.850
Melbourne Center (below FL280): 119.800

Alice Springs Aircraft Movements

YBBN Brisbane Center (Archives)
Brisbane, Queensland, Australia

Feed Status: UP
Listen in your browser - HTML5 player(in browser, HTML5)
Click here to listen with your own player(launches your MP3 player)

YBBN 211400Z 17009KT 9999 FEW025 26/20 Q1008

YBBN Flight Activity (Flightaware)

Listeners: 1 out of 1246 total

Brisbane Center (North): 123.000
Brisbane Center (Southwest): 128.150
Brisbane Centre (High): 134.300
Brisbane Centre (South): 130.400
Brisbane Oceanic Center: 132.850

YBBN Gnd/Twr/App/Dep (Archives)
Brisbane, Queensland, Australia

Feed Status: UP
Listen in your browser - HTML5 player(in browser, HTML5)
Click here to listen with your own player(launches your MP3 player)

YBBN 211400Z 17009KT 9999 FEW025 26/20 Q1008

YBBN Flight Activity (Flightaware)

Listeners: 2 out of 1246 total

Approach: 123.500
Brisbane Approach: 124.700
Brisbane Approach/Departure: 125.600
Brisbane Departure: 128.300
Brisbane Ground: 121.700
Brisbane Tower: 120.500

YBCG Approach (Archives)
Gold Coast City, Queensland, Australia

Feed Status: UP
Listen in your browser - HTML5 player(in browser, HTML5)
Click here to listen with your own player(launches your MP3 player)

YBCG 211430Z AUTO 19014G24KT //// // BKN013 BKN019 OVC033 23/22 Q1009

YBCG Flight Activity (Flightaware)

Listeners: 0 out of 1246 total

Brisbane Approach: 123.500

YBCG Area CTAF (Archives)
Gold Coast City, Queensland, Australia

Feed Status: UP
Listen in your browser - HTML5 player(in browser, HTML5)
Click here to listen with your own player(launches your MP3 player)

YBCG 211430Z AUTO 19014G24KT //// // BKN013 BKN019 OVC033 23/22 Q1009

YBCG Flight Activity (Flightaware)

Listeners: 0 out of 1246 total

Gold Coast Area CTAF: 126.700

YBCG Brisbane Centre (Archives)
Gold Coast City, Queensland, Australia

Feed Status: UP
Listen in your browser - HTML5 player(in browser, HTML5)
Click here to listen with your own player(launches your MP3 player)

YBCG 211430Z AUTO 19014G24KT //// // BKN013 BKN019 OVC033 23/22 Q1009

YBCG Flight Activity (Flightaware)

Listeners: 0 out of 1246 total

Brisbane Centre/Radar: 119.500

YBCG Ground (Archives)
Gold Coast City, Queensland, Australia

Feed Status: UP
Listen in your browser - HTML5 player(in browser, HTML5)
Click here to listen with your own player(launches your MP3 player)

YBCG 211430Z AUTO 19014G24KT //// // BKN013 BKN019 OVC033 23/22 Q1009

YBCG Flight Activity (Flightaware)

Listeners: 0 out of 1246 total

Gold Coast Ground: 121.800

YBCG Ground/Tower (Archives)
Gold Coast City, Queensland, Australia

Feed Status: UP
Listen in your browser - HTML5 player(in browser, HTML5)
Click here to listen with your own player(launches your MP3 player)

YBCG 211430Z AUTO 19014G24KT //// // BKN013 BKN019 OVC033 23/22 Q1009

YBCG Flight Activity (Flightaware)

Listeners: 0 out of 1246 total

Gold Coast Ground: 121.800
Gold Coast Tower: 118.700

YBCG Tower (Archives)
Gold Coast City, Queensland, Australia

Feed Status: UP
Listen in your browser - HTML5 player(in browser, HTML5)
Click here to listen with your own player(launches your MP3 player)

YBCG 211430Z AUTO 19014G24KT //// // BKN013 BKN019 OVC033 23/22 Q1009

YBCG Flight Activity (Flightaware)

Listeners: 0 out of 1246 total

Gold Coast Tower: 118.700

YBCS App/Dep #1 (Archives)
Cairns, Queensland, Australia

Feed Status: UP
Listen in your browser - HTML5 player(in browser, HTML5)
Click here to listen with your own player(launches your MP3 player)

YBCS 211400Z AUTO 08001KT 9999 // NCD 28/26 Q1005 NOSIG

YBCS Flight Activity (Flightaware)

Listeners: 0 out of 1246 total

Cairns Approach/Departure: 118.400

YBCS App/Dep #2 (Archives)
Cairns, Queensland, Australia

Feed Status: UP
Listen in your browser - HTML5 player(in browser, HTML5)
Click here to listen with your own player(launches your MP3 player)

YBCS 211400Z AUTO 08001KT 9999 // NCD 28/26 Q1005 NOSIG

YBCS Flight Activity (Flightaware)

Listeners: 0 out of 1246 total

Cairns Approach/Departure: 126.100

YBCS App/Dep (all) (Archives)
Cairns, Queensland, Australia

Feed Status: UP
Listen in your browser - HTML5 player(in browser, HTML5)
Click here to listen with your own player(launches your MP3 player)

YBCS 211400Z AUTO 08001KT 9999 // NCD 28/26 Q1005 NOSIG

YBCS Flight Activity (Flightaware)

Listeners: 0 out of 1246 total

Cairns Approach/Departure: 126.100
Cairns Approach/Departure: 118.400

YBCS Brisbane Centre (Archives)
Cairns, Queensland, Australia

Feed Status: UP
Listen in your browser - HTML5 player(in browser, HTML5)
Click here to listen with your own player(launches your MP3 player)

YBCS 211400Z AUTO 08001KT 9999 // NCD 28/26 Q1005 NOSIG

YBCS Flight Activity (Flightaware)

Listeners: 0 out of 1246 total

Brisbane Centre: 121.200

YBCS Emergency/Guard (Archives)
Cairns, Queensland, Australia

Feed Status: UP
Listen in your browser - HTML5 player(in browser, HTML5)
Click here to listen with your own player(launches your MP3 player)

YBCS 211400Z AUTO 08001KT 9999 // NCD 28/26 Q1005 NOSIG

YBCS Flight Activity (Flightaware)

Listeners: 0 out of 1246 total

Emergency/Guard: 121.500

YBCS Ground (Archives)
Cairns, Queensland, Australia

Feed Status: UP
Listen in your browser - HTML5 player(in browser, HTML5)
Click here to listen with your own player(launches your MP3 player)

YBCS 211400Z AUTO 08001KT 9999 // NCD 28/26 Q1005 NOSIG

YBCS Flight Activity (Flightaware)

Listeners: 0 out of 1246 total

Cairns Ground: 121.700

YBCS Ground/Tower (Archives)
Cairns, Queensland, Australia

Feed Status: UP
Listen in your browser - HTML5 player(in browser, HTML5)
Click here to listen with your own player(launches your MP3 player)

YBCS 211400Z AUTO 08001KT 9999 // NCD 28/26 Q1005 NOSIG

YBCS Flight Activity (Flightaware)

Listeners: 0 out of 1246 total

Cairns Ground: 121.700
Cairns Tower: 124.900

YBCS Tower (Archives)
Cairns, Queensland, Australia

Feed Status: UP
Listen in your browser - HTML5 player(in browser, HTML5)
Click here to listen with your own player(launches your MP3 player)

YBCS 211400Z AUTO 08001KT 9999 // NCD 28/26 Q1005 NOSIG

YBCS Flight Activity (Flightaware)

Listeners: 0 out of 1246 total

Cairns Tower: 124.900

YBCV CTAF/Brisbane Center (Archives)
Charleville, Queensland, Australia

Feed Status: UP
Listen in your browser - HTML5 player(in browser, HTML5)
Click here to listen with your own player(launches your MP3 player)

YBCV 211400Z AUTO 00000KT 9999 // NCD 24/02 Q1009

YBCV Flight Activity (Flightaware)

Listeners: 0 out of 1246 total

Brisbane Center: 124.800
Charleville CTAF/UNICOM: 126.700

YBOK Del/Gnd/Twr/App (Archives)
Oakey, Queensland, Australia

Feed Status: UP
Listen in your browser - HTML5 player(in browser, HTML5)
Click here to listen with your own player(launches your MP3 player)

YBOK Flight Activity (Flightaware)

Listeners: 0 out of 1246 total

Brisbane Center/FSS: 121.200
Oakey Approach: 125.400
Oakey Approach: 123.700
Oakey Approach (Final): 135.850
Oakey Clearance Delivery: 133.350
Oakey CTAF (+YTWB/YBWW): 127.650
Oakey Ground: 121.900
Oakey Tower: 120.100

YBSU Ground/Tower (Archives)
Marcoola, Queensland, Australia

Feed Status: UP
Listen in your browser - HTML5 player(in browser, HTML5)
Click here to listen with your own player(launches your MP3 player)

YBSU Flight Activity (Flightaware)

Listeners: 0 out of 1246 total

Sunshine Coast Ground: 121.100
Sunshine Coast Tower: 124.400

YBTL Approach/Departure (Archives)
Townsville, Queensland, Australia

Feed Status: UP
Listen in your browser - HTML5 player(in browser, HTML5)
Click here to listen with your own player(launches your MP3 player)

YBTL 211400Z AUTO 00000KT 9999 // NCD 26/24 Q1006

YBTL Flight Activity (Flightaware)

Listeners: 0 out of 1246 total

Townsville Approach/Departure: 126.800

YBTL ATIS (Archives)
Townsville, Queensland, Australia

Feed Status: UP
Listen in your browser - HTML5 player(in browser, HTML5)
Click here to listen with your own player(launches your MP3 player)

YBTL 211400Z AUTO 00000KT 9999 // NCD 26/24 Q1006

YBTL Flight Activity (Flightaware)

Listeners: 0 out of 1246 total

Townsville ATIS: 133.500

YBTL Brisbane Center (Archives)
Townsville, Queensland, Australia

Feed Status: UP
Listen in your browser - HTML5 player(in browser, HTML5)
Click here to listen with your own player(launches your MP3 player)

YBTL 211400Z AUTO 00000KT 9999 // NCD 26/24 Q1006

YBTL Flight Activity (Flightaware)

Listeners: 0 out of 1246 total

Brisbane Center: 120.550

YBTL Clearance Delivery (Archives)
Townsville, Queensland, Australia

Feed Status: UP
Listen in your browser - HTML5 player(in browser, HTML5)
Click here to listen with your own player(launches your MP3 player)

YBTL 211400Z AUTO 00000KT 9999 // NCD 26/24 Q1006

YBTL Flight Activity (Flightaware)

Listeners: 0 out of 1246 total

Townsville Clearance Delivery: 128.100

YBTL Ground (Archives)
Townsville, Queensland, Australia

Feed Status: UP
Listen in your browser - HTML5 player(in browser, HTML5)
Click here to listen with your own player(launches your MP3 player)

YBTL 211400Z AUTO 00000KT 9999 // NCD 26/24 Q1006

YBTL Flight Activity (Flightaware)

Listeners: 0 out of 1246 total

Townsville Ground: 119.450

YBTL Tower (Archives)
Townsville, Queensland, Australia

Feed Status: UP
Listen in your browser - HTML5 player(in browser, HTML5)
Click here to listen with your own player(launches your MP3 player)

YBTL 211400Z AUTO 00000KT 9999 // NCD 26/24 Q1006

YBTL Flight Activity (Flightaware)

Listeners: 0 out of 1246 total

Townsville Tower: 118.300

YGAW CTAF (Archives)
Gawler, South Australia, Australia

Feed Status: UP
Listen in your browser - HTML5 player(in browser, HTML5)
Click here to listen with your own player(launches your MP3 player)

METAR NOT AVAILABLE

YGAW Flight Activity (Flightaware)

Listeners: 0 out of 1246 total

Gawler CTAF: 126.550

YGLA CTAF (Archives)
Gladstone, Queensland, Australia

Feed Status: UP
Listen in your browser - HTML5 player(in browser, HTML5)
Click here to listen with your own player(launches your MP3 player)

YGLA 211400Z AUTO 18005KT 9999 // NCD 25/20 Q1006 RF00.0/001.6

YGLA Flight Activity (Flightaware)

Listeners: 0 out of 1246 total

Gladstone CTF/Multicom: 118.800

YGTH AWIS (Archives)
Griffith, New South Wales, Australia

Feed Status: UP
Listen in your browser - HTML5 player(in browser, HTML5)
Click here to listen with your own player(launches your MP3 player)

YGTH 211400Z AUTO 18010KT 9999 // NCD 21/08 Q1016

YGTH Flight Activity (Flightaware)

Listeners: 0 out of 1246 total

Griffith AWIS Weather: 132.950

YGTH CTAF (Archives)
Griffith, New South Wales, Australia

Feed Status: UP
Listen in your browser - HTML5 player(in browser, HTML5)
Click here to listen with your own player(launches your MP3 player)

YGTH 211400Z AUTO 18010KT 9999 // NCD 21/08 Q1016

YGTH Flight Activity (Flightaware)

Listeners: 0 out of 1246 total

Griffith CTAF: 126.550

YMML/YMMB/YMEN (Archives)
Essendon, Victoria, Australia

Feed Status: UP
Listen in your browser - HTML5 player(in browser, HTML5)
Click here to listen with your own player(launches your MP3 player)

YMML 211400Z 14011KT 9999 BKN029 16/10 Q1022

YMML Flight Activity (Flightaware)

Listeners: 1 out of 1246 total

Air Ambulance: 132.750
Air Ambulance: 122.075
DSE & Other Company: 119.100
Essendon Tower: 125.100
Inter-Pilot: 123.450
Jetstar Company: 130.925
Melbourne ACD: 127.200
Melbourne Approach: 132.000
Melbourne Centre: 125.200
Melbourne Centre: 125.800
Melbourne Centre: 130.300
Melbourne Centre: 128.500
Melbourne Centre: 125.700
Melbourne Centre: 122.400
Melbourne Centre: 126.800
Melbourne Centre: 123.750
Melbourne Departure: 129.400
Melbourne Departure: 118.900
Melbourne Radar: 135.700
Melbourne Tower: 120.500
Moorabbin Tower (East): 118.100
Moorabbin Tower (West): 123.000
Police Air Wing: 131.600
Qantas Company: 130.850
Qantas Company: 129.500
Rex Company: 126.450
Royal Victorian Aero Club Company: 128.700
Royal Victorian Aero Club Company: 133.400
Virgin Blue Company: 131.500
Yarra Bank Heliport CTAF: 132.100

YMIA CTAF/Melbourne Center (Archives)
Mildura, Victoria, Australia

Feed Status: UP
Listen in your browser - HTML5 player(in browser, HTML5)
Click here to listen with your own player(launches your MP3 player)

YMIA 211400Z AUTO 18005KT 9999 // NCD 20/04 Q1018

YMIA Flight Activity (Flightaware)

Listeners: 0 out of 1246 total

Melbourne Center: 112.100
Melbourne Center: 132.600
Mildura CTAF: 118.800

YMML/YMMB/YMEN (Archives)
Mentone, Victoria, Australia

Feed Status: UP
Listen in your browser - HTML5 player(in browser, HTML5)
Click here to listen with your own player(launches your MP3 player)

YMML 211400Z 14011KT 9999 BKN029 16/10 Q1022

YMML Flight Activity (Flightaware)

Listeners: 1 out of 1246 total

Air Ambulance: 132.750
Air Ambulance: 122.075
DSE & Other Company: 119.100
Essendon Tower: 125.100
Inter-Pilot: 123.450
Jetstar Company: 130.925
Melbourne ACD: 127.200
Melbourne Approach: 132.000
Melbourne Centre: 125.200
Melbourne Centre: 125.800
Melbourne Centre: 130.300
Melbourne Centre: 128.500
Melbourne Centre: 125.700
Melbourne Centre: 122.400
Melbourne Centre: 126.800
Melbourne Centre: 123.750
Melbourne Departure: 129.400
Melbourne Departure: 118.900
Melbourne Radar: 135.700
Melbourne Tower: 120.500
Moorabbin Tower (East): 118.100
Moorabbin Tower (West): 123.000
Police Air Wing: 131.600
Qantas Company: 130.850
Qantas Company: 129.500
Rex Company: 126.450
Royal Victorian Aero Club Company: 128.700
Royal Victorian Aero Club Company: 133.400
Virgin Blue Company: 131.500
Yarra Bank Heliport CTAF: 132.100

YMML/YMMB/YMEN (Archives)
Melbourne, Victoria, Australia

Feed Status: UP
Listen in your browser - HTML5 player(in browser, HTML5)
Click here to listen with your own player(launches your MP3 player)

YMML 211400Z 14011KT 9999 BKN029 16/10 Q1022

YMML Flight Activity (Flightaware)

Listeners: 1 out of 1246 total

Air Ambulance: 132.750
Air Ambulance: 122.075
DSE & Other Company: 119.100
Essendon Tower: 125.100
Inter-Pilot: 123.450
Jetstar Company: 130.925
Melbourne ACD: 127.200
Melbourne Approach: 132.000
Melbourne Centre: 125.200
Melbourne Centre: 125.800
Melbourne Centre: 130.300
Melbourne Centre: 128.500
Melbourne Centre: 125.700
Melbourne Centre: 122.400
Melbourne Centre: 126.800
Melbourne Centre: 123.750
Melbourne Departure: 129.400
Melbourne Departure: 118.900
Melbourne Radar: 135.700
Melbourne Tower: 120.500
Moorabbin Tower (East): 118.100
Moorabbin Tower (West): 123.000
Police Air Wing: 131.600
Qantas Company: 130.850
Qantas Company: 129.500
Rex Company: 126.450
Royal Victorian Aero Club Company: 128.700
Royal Victorian Aero Club Company: 133.400
Virgin Blue Company: 131.500
Yarra Bank Heliport CTAF: 132.100

YPAD Del/Gnd/Twr/App (Archives)
Adelaide, South Australia, Australia

Feed Status: UP
Listen in your browser - HTML5 player(in browser, HTML5)
Click here to listen with your own player(launches your MP3 player)

YPAD 211400Z 13009KT CAVOK 17/10 Q1020

YPAD Flight Activity (Flightaware)

Listeners: 0 out of 1246 total

Adelaide Approach (East of Adelaide): 118.200
Adelaide Approach (East of Adelaide): 130.450
Adelaide Approach (Kangaroo Island): 123.050
Adelaide Approach (North of Adelaide): 128.600
Adelaide Approach (West of Adelaide): 124.200
Adelaide Clearance Delivery: 126.100
Adelaide Ground: 121.700
Adelaide Tower: 120.500

YPAD Gnd/Twr/App/Center (Archives)
Adelaide, South Australia, Australia

Feed Status: UP
Listen in your browser - HTML5 player(in browser, HTML5)
Click here to listen with your own player(launches your MP3 player)

YPAD 211400Z 13009KT CAVOK 17/10 Q1020

YPAD Flight Activity (Flightaware)

Listeners: 2 out of 1246 total

Adelaide Approach (East of Adelaide): 118.200
Adelaide Approach (East of Adelaide): 130.450
Adelaide Approach (Kangaroo Island): 123.050
Adelaide Approach (North of Adelaide): 128.600
Adelaide Approach (West of Adelaide): 124.200
Adelaide Clearance Delivery: 126.100
Adelaide Ground: 121.700
Adelaide Tower: 120.500
Flight Watch: 135.750
Melbourne Centre: 124.300
Melbourne Centre ( East of Adelaide): 125.300
Melbourne Centre ( Pt Augusta, Pt Pirie, Whyalla): 123.900
Melbourne Centre (Mildura): 122.100
Melbourne Centre (North of Adelaide): 122.400
Melbourne Centre (Pt Lincoln): 125.900
Melbourne Centre (West of Adelaide ): 127.050

YPDN Gnd/Twr/App/Dep (Archives)
Darwin, Northern Territory, Australia

Feed Status: UP
Listen in your browser - HTML5 player(in browser, HTML5)
Click here to listen with your own player(launches your MP3 player)

YPDN 211400Z 27005KT 9999 FEW018 29/26 Q1010

YPDN Flight Activity (Flightaware)

Listeners: 1 out of 1246 total

Darwin Approach: 134.100
Darwin Arrival: 125.200
Darwin Departure: 119.550
Darwin Ground: 121.800
Darwin Tower: 133.100

YPJT Gnd/Twr/Radar (Archives)
Perth, Western Australia, Australia

Feed Status: UP
Listen in your browser - HTML5 player(in browser, HTML5)
Click here to listen with your own player(launches your MP3 player)

YPJT 211400Z AUTO 24008KT 9999 // OVC020 20/16 Q1014 RF00.0/000.0

YPJT Flight Activity (Flightaware)

Listeners: 0 out of 1246 total

Jandakot Ground: 124.300
Jandakot Tower: 119.400
Jandakot Tower/CTAF: 118.100
Perth Radar: 135.250

Jandakot Airport web page

YPPF Ground (Archives)
Parafield, South Australia, Australia

Feed Status: UP
Listen in your browser - HTML5 player(in browser, HTML5)
Click here to listen with your own player(launches your MP3 player)

YPPF Flight Activity (Flightaware)

Listeners: 0 out of 1246 total

Parafield Ground: 119.900

YPPF Tower #1 (Archives)
Parafield, South Australia, Australia

Feed Status: UP
Listen in your browser - HTML5 player(in browser, HTML5)
Click here to listen with your own player(launches your MP3 player)

YPPF Flight Activity (Flightaware)

Listeners: 0 out of 1246 total

Parafield Tower: 118.700

YPPF Tower #2 (Archives)
Parafield, South Australia, Australia

Feed Status: UP
Listen in your browser - HTML5 player(in browser, HTML5)
Click here to listen with your own player(launches your MP3 player)

YPPF Flight Activity (Flightaware)

Listeners: 0 out of 1246 total

Parafield Tower: 124.600

YPPH Approach (Archives)
Perth, Western Australia, Australia

Feed Status: UP
Listen in your browser - HTML5 player(in browser, HTML5)
Click here to listen with your own player(launches your MP3 player)

YPPH 211400Z 23008KT 9999 OVC024 21/15 Q1014

YPPH Flight Activity (Flightaware)

Listeners: 3 out of 1246 total

Perth Approach: 123.600

YPPH Departure (Archives)
Perth, Western Australia, Australia

Feed Status: UP
Listen in your browser - HTML5 player(in browser, HTML5)
Click here to listen with your own player(launches your MP3 player)

YPPH 211400Z 23008KT 9999 OVC024 21/15 Q1014

YPPH Flight Activity (Flightaware)

Listeners: 0 out of 1246 total

Perth Departure: 118.700

YPPH Ground (Archives)
Perth, Western Australia, Australia

Feed Status: UP
Listen in your browser - HTML5 player(in browser, HTML5)
Click here to listen with your own player(launches your MP3 player)

YPPH 211400Z 23008KT 9999 OVC024 21/15 Q1014

YPPH Flight Activity (Flightaware)

Listeners: 0 out of 1246 total

Perth Ground: 121.700

YPPH Tower (Archives)
Perth, Western Australia, Australia

Feed Status: UP
Listen in your browser - HTML5 player(in browser, HTML5)
Click here to listen with your own player(launches your MP3 player)

YPPH 211400Z 23008KT 9999 OVC024 21/15 Q1014

YPPH Flight Activity (Flightaware)

Listeners: 0 out of 1246 total

Perth Tower: 120.500

YRYW 122.5 (Archives)
Raywood, Victoria, Australia

Feed Status: UP
Listen in your browser - HTML5 player(in browser, HTML5)
Click here to listen with your own player(launches your MP3 player)

METAR NOT AVAILABLE

YRYW Flight Activity (Flightaware)

Listeners: 0 out of 1246 total


YRYW 122.7 (Archives)
Raywood, Victoria, Australia

Feed Status: UP
Listen in your browser - HTML5 player(in browser, HTML5)
Click here to listen with your own player(launches your MP3 player)

METAR NOT AVAILABLE

YRYW Flight Activity (Flightaware)

Listeners: 0 out of 1246 total


YRYW 122.9 (Archives)
Raywood, Victoria, Australia

Feed Status: UP
Listen in your browser - HTML5 player(in browser, HTML5)
Click here to listen with your own player(launches your MP3 player)

METAR NOT AVAILABLE

YRYW Flight Activity (Flightaware)

Listeners: 0 out of 1246 total


YRYW CTAF (Archives)
Raywood, Victoria, Australia

Feed Status: UP
Listen in your browser - HTML5 player(in browser, HTML5)
Click here to listen with your own player(launches your MP3 player)

METAR NOT AVAILABLE

YRYW Flight Activity (Flightaware)

Listeners: 0 out of 1246 total

Raywood CTAF: 126.700

YSBK ATIS (Archives)
Bankstown, New South Wales, Australia

Feed Status: UP
Listen in your browser - HTML5 player(in browser, HTML5)
Click here to listen with your own player(launches your MP3 player)

YSBK Flight Activity (Flightaware)

Listeners: 0 out of 1246 total

Bankstown ATIS: 120.900

YSBK Tower (Archives)
Bankstown, New South Wales, Australia

Feed Status: UP
Listen in your browser - HTML5 player(in browser, HTML5)
Click here to listen with your own player(launches your MP3 player)

YSBK Flight Activity (Flightaware)

Listeners: 0 out of 1246 total

Bankstown Tower: 132.800

NOTE: Feed provided by Bryan Ford

YSCB App/Dep (Archives)
Canberra, Australian Capital Territory, Australia

Feed Status: UP
Listen in your browser - HTML5 player(in browser, HTML5)
Click here to listen with your own player(launches your MP3 player)

YSCB 211430Z AUTO 14006KT 9999 // SCT017 BKN022 BKN046 16/12 Q1021

YSCB Flight Activity (Flightaware)

Listeners: 0 out of 1246 total

Canberra Approach/Departure: 124.500

YSCB App/Dep/Center (Archives)
Canberra, Australian Capital Territory, Australia

Feed Status: UP
Listen in your browser - HTML5 player(in browser, HTML5)
Click here to listen with your own player(launches your MP3 player)

YSCB 211430Z AUTO 14006KT 9999 // SCT017 BKN022 BKN046 16/12 Q1021

YSCB Flight Activity (Flightaware)

Listeners: 0 out of 1246 total

Melbourne Center: 125.900

YSCB ATIS (Archives)
Canberra, Australian Capital Territory, Australia

Feed Status: UP
Listen in your browser - HTML5 player(in browser, HTML5)
Click here to listen with your own player(launches your MP3 player)

YSCB 211430Z AUTO 14006KT 9999 // SCT017 BKN022 BKN046 16/12 Q1021

YSCB Flight Activity (Flightaware)

Listeners: 0 out of 1246 total

Canberra ATIS: 127.450

YSCB Ground/Tower (Archives)
Canberra, Australian Capital Territory, Australia

Feed Status: UP
Listen in your browser - HTML5 player(in browser, HTML5)
Click here to listen with your own player(launches your MP3 player)

YSCB 211430Z AUTO 14006KT 9999 // SCT017 BKN022 BKN046 16/12 Q1021

YSCB Flight Activity (Flightaware)

Listeners: 1 out of 1246 total

Canberra Ground: 121.700
Canberra Tower: 118.700

YSCN Tower/CTAF (Archives)
Camden, New South Wales, Australia

Feed Status: UP
Listen in your browser - HTML5 player(in browser, HTML5)
Click here to listen with your own player(launches your MP3 player)

YSCN Flight Activity (Flightaware)

Listeners: 0 out of 1246 total

Camden Tower/CTAF: 120.100

YSNW Gnd/CTAF/App/Center (Archives)
Nowra, New South Wales, Australia

Feed Status: UP
Listen in your browser - HTML5 player(in browser, HTML5)
Click here to listen with your own player(launches your MP3 player)

YSNW 211400Z AUTO 17010KT 9999 // BKN022 OVC029 19/14 Q1020

YSNW Flight Activity (Flightaware)

Listeners: 0 out of 1246 total

Enroute: 132.300
Nowra Approach: 123.500
Nowra CTAF: 118.850
Nowra Ground: 135.850

Australia - ATC Satellite Feed (Archives)
Sydney, New South Wales, Australia

Feed Status: UP
Listen in your browser - HTML5 player(in browser, HTML5)
Click here to listen with your own player(launches your MP3 player)


Listeners: 2 out of 1246 total

Brisbane Center: 123.400
Brisbane Center: 128.600
Melbourne Center: 133.500
Melbourne Center: 118.500
Sydney Departures: 118.400

YSSY Approach/Departure (Archives)
Sydney, New South Wales, Australia

Feed Status: UP
Listen in your browser - HTML5 player(in browser, HTML5)
Click here to listen with your own player(launches your MP3 player)

YSSY 211400Z 14009KT 9999 VCSH FEW012 SCT025 BKN050 22/19 Q1019

YSSY Flight Activity (Flightaware)

Listeners: 0 out of 1246 total

Sydney Approach: 135.100
Sydney Approach (North/East): 124.400
Sydney Approach (South/West): 128.300
Sydney Departure (Rte N and E): 123.000
Sydney Departure (Rte S, W and NW outside 15 NM SY): 118.400
Sydney Departure (Rte S, W and NW): 129.700

YSSY Director (Archives)
Sydney, New South Wales, Australia

Feed Status: UP
Listen in your browser - HTML5 player(in browser, HTML5)
Click here to listen with your own player(launches your MP3 player)

YSSY 211400Z 14009KT 9999 VCSH FEW012 SCT025 BKN050 22/19 Q1019

YSSY Flight Activity (Flightaware)

Listeners: 0 out of 1246 total

Sydney Director (East): 125.300
Sydney Director (West): 126.100

Note: Director provides radar vectoring from late downwind until established on final approach.

YSSY Tower (Archives)
Sydney, New South Wales, Australia

Feed Status: UP
Listen in your browser - HTML5 player(in browser, HTML5)
Click here to listen with your own player(launches your MP3 player)

YSSY 211400Z 14009KT 9999 VCSH FEW012 SCT025 BKN050 22/19 Q1019

YSSY Flight Activity (Flightaware)

Listeners: 1 out of 1246 total

Sydney Tower (Rwy 16L/34R): 124.700
Sydney Tower (Rwy 16R/34L, Rwy 07/25): 120.500

YSSY Tower/Approach (Archives)
Sydney, New South Wales, Australia

Feed Status: UP
Listen in your browser - HTML5 player(in browser, HTML5)
Click here to listen with your own player(launches your MP3 player)

YSSY 211400Z 14009KT 9999 VCSH FEW012 SCT025 BKN050 22/19 Q1019

YSSY Flight Activity (Flightaware)

Listeners: 0 out of 1246 total

Sydney Approach: 135.100
Sydney Approach (North/East): 124.400
Sydney Approach (South/West): 128.300
Sydney Departure (Rte N and E): 123.000
Sydney Departure (Rte S, W and NW outside 15 NM SY): 118.400
Sydney Departure (Rte S, W and NW): 129.700
Sydney Tower (Rwy 16L/34R): 124.700
Sydney Tower (Rwy 16R/34L, Rwy 07/25): 120.500

ZBAA Tower (Archives)
Beijing, China

Feed Status: UP
Listen in your browser - HTML5 player(in browser, HTML5)
Click here to listen with your own player(launches your MP3 player)

ZBAA 211400Z 19003MPS 170V250 2800 HZ NSC 05/M06 Q1026 BECMG TL1440 3000


Listeners: 10 out of 1246 total

Beijing Tower (Rwy 01/19): 118.600

ZGKL App/Control
Guilin, China

Feed Status: DOWN
Offline since: 2019-02-21 04:22:03 UTC

ZGKL 211400Z 04004MPS 9999 SCT026 SCT060 07/04 Q1025 NOSIG

Guilin Approach: 120.850
Guilin Control: 133.600

ZYCY Tower
Chaoyang, China

Feed Status: DOWN
Offline since: 2019-01-27 01:06:03 UTC

ZYCY 140700Z 25002MPS CAVOK 29/16 Q1006 NOSIG

Chaoyang Tower: 118.350